[[{"header":{"parameterUnit":"m.s-1","parameterCategory":1,"la1":30.6,"la2":28.766,"lo1":-90.7593,"lo2":-88.6598,"dy":0.0162,"dx":0.0183,"nx":116,"ny":114,"refTime":"2023-07-22T06:00:00:Z","depth":0,"parameterNumber":2,"parameterNumberName":"U-component_of_WINDS"},"data":[0.0,0.0,0.0,0.0,0.0,0.0,0.0,0.0,0.0,0.0,0.0,0.0,0.0,0.0,0.0,0.0,0.0,0.0,0.0,0.0,0.0,0.0,0.0,0.0,0.0,0.0,0.0,0.0,0.0,0.0,0.0,0.0,0.0,0.0,0.0,0.0,0.0,0.0,0.0,0.0,0.0,0.0,0.0,0.0,0.0,0.0,0.0,0.0,0.0,0.0,0.0,0.0,0.0,0.0,0.0,0.0,0.0,0.0,0.0,0.0,0.0,0.0,0.0,0.0,0.0,0.0,0.0,0.0,0.0,0.0,0.0,0.0,0.0,0.0,0.0,0.0,0.0,0.0,0.0,0.0,0.0,0.0,0.0,0.0,0.0,0.0,0.0,0.0,0.0,0.0,0.0,0.0,0.0,0.0,0.0,0.0,0.0,0.0,0.0,0.0,0.0,0.0,0.0,0.0,0.0,0.0,0.0,0.0,0.0,0.0,0.0,0.0,0.0,0.0,0.0,0.0,0.0,0.0,0.0,0.0,0.0,0.0,0.0,0.0,0.0,0.0,0.0,0.0,0.0,0.0,0.0,0.0,0.0,0.0,0.0,0.0,0.0,0.0,0.0,0.0,0.0,0.0,0.0,0.0,0.0,0.0,0.0,0.0,0.0,0.0,0.0,0.0,0.0,0.0,0.0,0.0,0.0,0.0,0.0,0.0,0.0,0.0,0.0,0.0,0.0,0.0,0.0,0.0,0.0,0.0,0.0,0.0,0.0,0.0,0.0,0.0,0.0,0.0,0.0,0.0,0.0,0.0,0.0,0.0,0.0,0.0,0.0,0.0,0.0,0.0,0.0,0.0,0.0,0.0,0.0,0.0,0.0,0.0,0.0,0.0,0.0,0.0,0.0,0.0,0.0,0.0,0.0,0.0,0.0,0.0,0.0,0.0,0.0,0.0,0.0,0.0,0.0,0.0,0.0,0.0,0.0,0.0,0.0,0.0,0.0,0.0,0.0,0.0,0.0,0.0,0.0,0.0,0.0,0.0,0.0,0.0,0.0,0.0,0.0,0.0,0.0,0.0,0.0,0.0,0.0,0.0,0.0,0.0,0.0,0.0,0.0,0.0,0.0,0.0,0.0,0.0,0.0,0.0,0.0,0.0,0.0,0.0,0.0,0.0,0.0,0.0,0.0,0.0,0.0,0.0,0.0,0.0,0.0,0.0,0.0,0.0,0.0,0.0,0.0,0.0,0.0,0.0,0.0,0.0,0.0,0.0,0.0,0.0,0.0,0.0,0.0,0.0,0.0,0.0,0.0,0.0,0.0,0.0,0.0,0.0,0.0,0.0,0.0,0.0,0.0,0.0,0.0,0.0,0.0,0.0,0.0,0.0,0.0,0.0,0.0,0.0,0.0,0.0,0.0,0.0,0.0,0.0,0.0,0.0,0.0,0.0,0.0,0.0,0.0,0.0,0.0,0.0,0.0,0.0,0.0,0.0,0.0,0.0,0.0,0.0,0.0,0.0,0.0,0.0,0.0,0.0,0.0,0.0,0.0,0.0,0.0,0.0,0.0,0.0,0.0,0.0,0.0,0.0,0.0,0.0,0.0,0.0,0.0,0.0,0.0,0.0,0.0,0.0,0.0,0.0,0.0,0.0,0.0,0.0,0.0,0.0,0.0,0.0,0.0,0.0,0.0,0.0,0.0,0.0,0.0,0.0,0.0,0.0,0.0,0.0,0.0,0.0,0.0,0.0,0.0,0.0,0.0,0.0,0.0,0.0,0.0,0.0,0.0,0.0,0.0,0.0,0.0,0.0,0.0,0.0,0.0,0.0,0.0,0.0,0.0,0.0,0.0,0.0,0.0,0.0,0.0,0.0,0.0,0.0,0.0,0.0,0.0,0.0,0.0,0.0,0.0,0.0,0.0,0.0,0.0,0.0,0.0,0.0,0.0,0.0,0.0,0.0,0.0,0.0,0.0,0.0,0.0,0.0,0.0,0.0,0.0,0.0,0.0,0.0,0.0,0.0,0.0,0.0,0.0,0.0,0.0,0.0,0.0,0.0,0.0,0.0,0.0,0.0,0.0,0.0,0.0,0.0,0.0,0.0,0.0,0.0,0.0,0.0,0.0,0.0,0.0,0.0,0.0,0.0,0.0,0.0,0.0,0.0,0.0,0.0,0.0,0.0,0.0,0.0,0.0,0.0,0.0,0.0,0.0,0.0,0.0,0.0,0.0,0.0,0.0,0.0,0.0,0.0,0.0,0.0,0.0,0.0,0.0,0.0,0.0,0.0,0.0,0.0,0.0,0.0,0.0,0.0,0.0,0.0,0.0,0.0,0.0,0.0,0.0,0.0,0.0,0.0,0.0,0.0,0.0,0.0,0.0,0.0,0.0,0.0,0.0,0.0,0.0,0.0,0.0,0.0,0.0,0.0,0.0,0.0,0.0,0.0,0.0,0.0,0.0,0.0,0.0,0.0,0.0,0.0,0.0,0.0,0.0,0.0,0.0,0.0,0.0,0.0,0.0,0.0,0.0,0.0,0.0,0.0,0.0,0.0,0.0,0.0,0.0,0.0,0.0,0.0,0.0,0.0,0.0,0.0,0.0,0.0,0.0,0.0,0.0,0.0,0.0,0.0,0.0,0.0,0.0,0.0,0.0,0.0,0.0,0.0,0.0,0.0,0.0,0.0,0.0,0.0,0.0,0.0,0.0,0.0,0.0,0.0,0.0,0.0,0.0,0.0,0.0,0.0,0.0,0.0,0.0,0.0,0.0,0.0,0.0,0.0,0.0,0.0,0.0,0.0,0.0,0.0,0.0,0.0,0.0,0.0,0.0,0.0,0.0,0.0,0.0,0.0,0.0,0.0,0.0,0.0,0.0,0.0,0.0,0.0,0.0,0.0,0.0,0.0,0.0,0.0,0.0,0.0,0.0,0.0,0.0,0.0,0.0,0.0,0.0,0.0,0.0,0.0,0.0,0.0,0.0,0.0,0.0,0.0,0.0,0.0,0.0,0.0,0.0,0.0,0.0,0.0,0.0,0.0,0.0,0.0,0.0,0.0,0.0,0.0,0.0,0.0,0.0,0.0,0.0,0.0,0.0,0.0,0.0,0.0,0.0,0.0,0.0,0.0,0.0,0.0,0.0,0.0,0.0,0.0,0.0,0.0,0.0,0.0,0.0,0.0,0.0,0.0,0.0,0.0,0.0,0.0,0.0,0.0,0.0,0.0,0.0,0.0,0.0,0.0,0.0,0.0,0.0,0.0,0.0,0.0,0.0,0.0,0.0,0.0,0.0,0.0,0.0,0.0,0.0,0.0,0.0,0.0,0.0,0.0,0.0,0.0,0.0,0.0,0.0,0.0,0.0,0.0,0.0,0.0,0.0,0.0,0.0,0.0,0.0,0.0,0.0,0.0,0.0,0.0,0.0,0.0,0.0,0.0,0.0,0.0,0.0,0.0,0.0,0.0,0.0,0.0,0.0,0.0,0.0,0.0,0.0,0.0,0.0,0.0,0.0,0.0,0.0,0.0,0.0,0.0,0.0,0.0,0.0,0.0,0.0,0.0,0.0,0.0,0.0,0.0,0.0,0.0,0.0,0.0,0.0,0.0,0.0,0.0,0.0,0.0,0.0,0.0,0.0,0.0,0.0,0.0,0.0,0.0,0.0,0.0,0.0,0.0,0.0,0.0,0.0,0.0,0.0,0.0,0.0,0.0,0.0,0.0,0.0,0.0,0.0,0.0,0.0,0.0,0.0,0.0,0.0,0.0,0.0,0.0,0.0,0.0,0.0,0.0,0.0,0.0,0.0,0.0,0.0,0.0,0.0,0.0,0.0,0.0,0.0,0.0,0.0,0.0,0.0,0.0,0.0,0.0,0.0,0.0,0.0,0.0,0.0,0.0,0.0,0.0,0.0,0.0,0.0,0.0,0.0,0.0,0.0,0.0,0.0,0.0,0.0,0.0,0.0,0.0,0.0,0.0,0.0,0.0,0.0,0.0,0.0,0.0,0.0,0.0,0.0,0.0,0.0,0.0,0.0,0.0,0.0,0.0,0.0,0.0,0.0,0.0,0.0,0.0,0.0,0.0,0.0,0.0,0.0,0.0,0.0,0.0,0.0,0.0,0.0,0.0,0.0,0.0,0.0,0.0,0.0,0.0,0.0,0.0,0.0,0.0,0.0,0.0,0.0,0.0,0.0,0.0,0.0,0.0,0.0,0.0,0.0,0.0,0.0,0.0,0.0,0.0,0.0,0.0,0.0,0.0,0.0,0.0,0.0,0.0,0.0,0.0,0.0,0.0,0.0,0.0,0.0,0.0,0.0,0.0,0.0,0.0,0.0,0.0,0.0,0.0,0.0,0.0,0.0,0.0,0.0,0.0,0.0,0.0,0.0,0.0,0.0,0.0,0.0,0.0,0.0,0.0,0.0,0.0,0.0,0.0,0.0,0.0,0.0,0.0,0.0,0.0,0.0,0.0,0.0,0.0,0.0,0.0,0.0,0.0,0.0,0.0,0.0,0.0,0.0,0.0,0.0,0.0,0.0,0.0,0.0,0.0,0.0,0.0,0.0,0.0,0.0,0.0,0.0,0.0,0.0,0.0,0.0,0.0,0.0,0.0,0.0,0.0,0.0,0.0,0.0,0.0,0.0,0.0,0.0,0.0,0.0,0.0,0.0,0.0,0.0,0.0,0.0,0.0,0.0,0.0,0.0,0.0,0.0,0.0,0.0,0.0,0.0,0.0,0.0,0.0,0.0,0.0,0.0,0.0,0.0,0.0,0.0,0.0,0.0,0.0,0.0,0.0,0.0,0.0,0.0,0.0,0.0,0.0,0.0,0.0,0.0,0.0,0.0,0.0,0.0,0.0,0.0,0.0,0.0,0.0,0.0,0.0,0.0,0.0,0.0,0.0,0.0,0.0,0.0,0.0,0.0,0.0,0.0,0.0,0.0,0.0,0.0,0.0,0.0,0.0,0.0,0.0,0.0,0.0,0.0,0.0,0.0,0.0,0.0,0.0,0.0,0.0,0.0,0.0,0.0,0.0,0.0,0.0,0.0,0.0,0.0,0.0,0.0,0.0,0.0,0.0,0.0,0.0,0.0,0.0,0.0,0.0,0.0,0.0,0.0,0.0,0.0,0.0,0.0,0.0,0.0,0.0,0.0,0.0,0.0,0.0,0.0,0.0,0.0,0.0,0.0,0.0,0.0,0.0,0.0,0.0,0.0,0.0,0.0,0.0,0.0,0.0,0.0,0.0,0.0,0.0,0.0,0.0,0.0,0.0,0.0,0.0,0.0,0.0,0.0,0.0,0.0,0.0,0.0,0.0,0.0,0.0,0.0,0.0,0.0,0.0,0.0,0.0,0.0,0.0,0.0,0.0,0.0,0.0,0.0,0.0,0.0,0.0,0.0,0.0,0.0,0.0,0.0,0.0,0.0,0.0,0.0,0.0,0.0,0.0,0.0,0.0,0.0,0.0,0.0,0.0,0.0,0.0,0.0,0.0,0.0,0.0,0.0,0.0,0.0,0.0,0.0,0.0,0.0,0.0,0.0,0.0,0.0,0.0,0.0,0.0,0.0,0.0,0.0,0.0,0.0,0.0,0.0,0.0,0.0,0.0,0.0,0.0,0.0,0.0,0.0,0.0,0.0,0.0,0.0,0.0,0.0,0.0,0.0,0.0,0.0,0.0,0.0,0.0,0.0,0.0,0.0,0.0,0.0,0.0,0.0,0.0,0.0,0.0,0.0,0.0,0.0,0.0,0.0,0.0,0.0,0.0,0.0,0.0,0.0,0.0,0.0,0.0,0.0,0.0,0.0,0.0,0.0,0.0,0.0,0.0,0.0,0.0,0.0,0.0,0.0,0.0,0.0,0.0,0.0,0.0,0.0,0.0,0.0,0.0,0.0,0.0,0.0,0.0,0.0,0.0,0.0,0.0,0.0,0.0,0.0,0.0,0.0,0.0,0.0,0.0,0.0,0.0,0.0,0.0,0.0,0.0,0.0,0.0,0.0,0.0,0.0,0.0,0.0,0.0,0.0,0.0,0.0,0.0,0.0,0.0,0.0,0.0,0.0,0.0,0.0,0.0,0.0,0.0,0.0,0.0,0.0,0.0,-1.4363,0.0,0.0,0.0,0.0,0.0,0.0,0.0,0.0,0.0,0.0,0.0,0.0,0.0,0.0,0.0,0.0,0.0,0.0,0.0,0.0,0.0,0.0,0.0,0.0,0.0,0.0,0.0,0.0,0.0,0.0,0.0,0.0,0.0,0.0,0.0,0.0,0.0,0.0,0.0,0.0,0.0,0.0,0.0,0.0,0.0,0.0,0.0,0.0,0.0,0.0,0.0,0.0,0.0,0.0,0.0,0.0,0.0,0.0,0.0,0.0,0.0,0.0,0.0,0.0,0.0,0.0,0.0,0.0,0.0,0.0,0.0,0.0,0.0,0.0,0.0,0.0,0.0,0.0,0.0,0.0,0.0,0.0,0.0,0.0,0.0,0.0,0.0,0.0,0.0,0.0,0.0,0.0,0.0,0.0,0.0,0.0,0.0,0.0,0.0,0.0,0.0,0.0,0.0,0.0,0.0,0.0,0.0,0.0,0.0,0.0,0.0,0.0,0.0,0.0,0.0,0.0,-1.5864,0.0,0.0,0.0,0.0,0.0,0.0,0.0,0.0,0.0,0.0,0.0,0.0,0.0,0.0,0.0,0.0,0.0,0.0,0.0,0.0,0.0,0.0,0.0,0.0,0.0,0.0,0.0,0.0,0.0,0.0,0.0,0.0,0.0,0.0,0.0,0.0,0.0,0.0,0.0,0.0,0.0,0.0,0.0,0.0,0.0,0.0,0.0,0.0,0.0,0.0,0.0,0.0,0.0,0.0,0.0,0.0,0.0,0.0,0.0,0.0,0.0,0.0,0.0,0.0,0.0,0.0,0.0,0.0,0.0,0.0,0.0,0.0,0.0,0.0,0.0,0.0,0.0,0.0,0.0,0.0,0.0,0.0,0.0,0.0,0.0,0.0,0.0,0.0,0.0,0.0,0.0,0.0,0.0,0.0,0.0,0.0,0.0,0.0,0.0,0.0,0.0,0.0,0.0,0.0,0.0,0.0,0.0,0.0,-1.8983,-1.8945,-1.9225,-1.8703,-1.8179,-1.766,-1.7169,-1.6485,-1.5764,0.0,0.0,0.0,0.0,0.0,0.0,0.0,0.0,0.0,0.0,0.0,0.0,0.0,0.0,0.0,0.0,0.0,0.0,0.0,0.0,0.0,0.0,0.0,0.0,0.0,0.0,0.0,0.0,0.0,0.0,0.0,0.0,0.0,0.0,0.0,0.0,0.0,0.0,0.0,-2.3152,-2.2815,-2.2597,-2.2533,0.0,0.0,0.0,0.0,0.0,0.0,0.0,0.0,0.0,0.0,0.0,0.0,0.0,0.0,0.0,0.0,0.0,0.0,0.0,0.0,0.0,0.0,0.0,0.0,0.0,0.0,0.0,0.0,0.0,0.0,0.0,0.0,0.0,0.0,0.0,0.0,0.0,0.0,0.0,0.0,0.0,0.0,0.0,0.0,-1.8035,-2.0706,0.0,0.0,0.0,0.0,0.0,0.0,0.0,0.0,0.0,0.0,0.0,0.0,0.0,-2.0655,-2.0703,-2.1741,-2.171,-2.0689,-2.107,-2.0685,-1.9729,-1.9623,-1.9296,-1.8776,-1.87,0.0,-1.6337,-1.582,0.0,0.0,0.0,0.0,0.0,0.0,0.0,0.0,0.0,0.0,0.0,0.0,0.0,0.0,0.0,0.0,0.0,0.0,0.0,0.0,0.0,0.0,0.0,0.0,0.0,0.0,0.0,0.0,0.0,0.0,0.0,0.0,0.0,0.0,0.0,0.0,-2.3106,-2.3156,-2.3564,-2.3357,-2.3276,-2.3259,-2.2914,-2.2448,-2.1899,-2.1688,0.0,0.0,0.0,0.0,0.0,0.0,0.0,0.0,0.0,0.0,0.0,0.0,0.0,0.0,0.0,0.0,0.0,0.0,0.0,0.0,0.0,0.0,0.0,0.0,0.0,0.0,0.0,0.0,0.0,0.0,0.0,0.0,0.0,0.0,0.0,0.0,0.0,0.0,0.0,-1.7861,-1.8949,-1.8424,-1.9845,-2.0634,0.0,0.0,0.0,0.0,0.0,0.0,0.0,0.0,0.0,-2.2523,-2.2818,-2.3187,-2.3635,-2.3663,-2.3581,-2.3345,-2.2483,-2.1958,-2.1746,-2.104,-2.0444,-1.9929,-1.9609,-1.8868,-1.7818,-1.6948,-1.6205,-1.5588,0.0,0.0,0.0,0.0,-1.4698,-1.4744,0.0,0.0,0.0,0.0,0.0,0.0,0.0,0.0,0.0,0.0,0.0,0.0,0.0,0.0,0.0,0.0,0.0,0.0,0.0,0.0,0.0,0.0,0.0,0.0,0.0,0.0,0.0,0.0,-2.3522,-2.365,-2.4183,-2.4183,-2.4282,-2.4481,-2.4481,-2.3585,-2.2059,-2.2059,-2.2153,0.0,0.0,0.0,0.0,0.0,0.0,0.0,0.0,0.0,0.0,0.0,0.0,0.0,0.0,0.0,0.0,0.0,0.0,0.0,0.0,0.0,0.0,0.0,0.0,0.0,0.0,0.0,0.0,0.0,0.0,0.0,0.0,0.0,0.0,0.0,0.0,0.0,0.0,-1.8315,-1.8717,-1.7136,-1.8929,-2.0158,0.0,0.0,0.0,0.0,0.0,0.0,-2.2413,-2.3071,-2.3954,-2.5091,-2.5038,-2.5342,-2.6041,-2.5357,-2.5135,-2.5462,-2.3947,-2.3309,-2.3444,-2.2572,-2.1758,-2.1064,-2.0618,-2.0045,-1.9321,-1.8099,-1.7093,-1.6263,-1.613,-1.5885,-1.558,-1.5452,-1.5406,-1.5451,0.0,0.0,0.0,0.0,0.0,0.0,0.0,0.0,0.0,0.0,0.0,0.0,0.0,0.0,0.0,0.0,0.0,0.0,0.0,0.0,0.0,0.0,0.0,0.0,0.0,0.0,0.0,-2.3422,-2.3422,-2.4137,-2.5509,-2.5509,-2.588,-2.6539,-2.6539,-2.534,-2.3313,-2.3313,-2.2907,-2.231,0.0,0.0,0.0,0.0,0.0,0.0,0.0,0.0,0.0,0.0,0.0,0.0,0.0,0.0,0.0,0.0,0.0,0.0,0.0,0.0,0.0,0.0,0.0,0.0,0.0,0.0,0.0,0.0,0.0,0.0,0.0,0.0,0.0,0.0,0.0,0.0,0.0,0.0,0.0,-1.9785,-2.0203,0.0,0.0,0.0,0.0,-2.1545,-2.2757,-2.3759,-2.4403,-2.5106,-2.5779,-2.6467,-2.6331,-2.6558,-2.719,-2.6972,-2.6511,-2.5884,-2.5768,-2.5117,-2.397,-2.391,-2.3246,-2.2204,-2.2216,-2.1584,-2.0492,-1.8821,-1.8113,-1.8019,-1.7493,-1.7606,-1.7959,-1.7435,-1.7247,-1.7293,0.0,0.0,0.0,0.0,0.0,0.0,0.0,0.0,0.0,0.0,0.0,0.0,0.0,0.0,0.0,0.0,0.0,0.0,0.0,0.0,0.0,0.0,0.0,0.0,0.0,0.0,-2.3399,-2.4249,-2.511,-2.5914,-2.6684,-2.7077,-2.7411,-2.7661,-2.7661,-2.7121,-2.6184,-2.522,-2.4391,-2.3663,-2.319,-2.2963,0.0,0.0,0.0,0.0,0.0,0.0,0.0,0.0,0.0,0.0,0.0,0.0,0.0,0.0,0.0,0.0,0.0,0.0,0.0,0.0,0.0,0.0,0.0,0.0,0.0,0.0,0.0,0.0,0.0,0.0,0.0,0.0,0.0,0.0,0.0,0.0,0.0,-2.1106,-2.2309,0.0,-2.2862,-2.3475,-2.3969,-2.4193,-2.5031,-2.5809,-2.6482,-2.7575,-2.8457,-2.9086,-2.898,-2.9016,-2.9246,-2.8044,-2.7346,-2.7038,-2.6128,-2.5454,-2.5028,-2.4668,-2.4079,-2.3366,-2.2957,-2.2405,-2.1656,-2.0723,-1.9697,-1.8719,-1.8518,-1.8342,-1.8179,-1.799,-1.7903,-1.7865,0.0,0.0,0.0,0.0,0.0,0.0,0.0,0.0,0.0,0.0,0.0,0.0,0.0,0.0,0.0,0.0,0.0,0.0,0.0,0.0,0.0,0.0,0.0,0.0,0.0,-2.3624,-2.4325,-2.5455,-2.6343,-2.7048,-2.7588,-2.7964,-2.8567,-2.9263,-2.9263,-2.9293,-2.9245,-2.801,-2.6471,-2.4828,-2.4202,-2.3895,-2.3731,0.0,0.0,0.0,0.0,0.0,0.0,0.0,0.0,0.0,0.0,0.0,0.0,0.0,0.0,0.0,0.0,0.0,0.0,0.0,0.0,0.0,0.0,0.0,0.0,0.0,0.0,0.0,0.0,0.0,0.0,0.0,0.0,0.0,0.0,0.0,-2.2188,-2.2637,-2.4223,-2.5285,-2.5285,-2.6093,-2.6707,-2.6931,-2.7545,-2.8308,-2.919,-2.9781,-3.0365,-3.1043,-3.0349,-2.9897,-2.9673,-2.8279,-2.7478,-2.7284,-2.6345,-2.5673,-2.5314,-2.4937,-2.4379,-2.3654,-2.3265,-2.2924,-2.2514,-2.2185,-2.1263,-2.01,-1.9723,-1.9359,-1.9007,-1.8807,-1.8631,-1.8405,0.0,0.0,0.0,0.0,0.0,0.0,0.0,0.0,0.0,0.0,0.0,0.0,0.0,0.0,0.0,0.0,0.0,0.0,0.0,0.0,0.0,0.0,0.0,0.0,0.0,0.0,0.0,-2.6891,-2.6962,-2.7405,-2.8196,-2.818,-2.9327,-3.1309,-3.1309,-3.1732,-3.2273,-3.1562,-2.9144,-2.5742,-2.5244,-2.5086,-2.5,0.0,0.0,0.0,0.0,0.0,0.0,0.0,0.0,0.0,0.0,0.0,0.0,0.0,0.0,0.0,0.0,0.0,0.0,0.0,0.0,0.0,0.0,0.0,0.0,0.0,0.0,0.0,0.0,0.0,0.0,0.0,0.0,0.0,-2.1724,-2.2338,-2.3295,-2.4552,-2.5929,-2.6752,-2.6767,-2.7979,-2.9011,-2.9654,-3.0253,-3.1165,-3.2408,-3.1649,-3.1409,-3.2062,-3.0324,-2.9092,-2.8486,-2.771,-2.6979,-2.6533,-2.6533,-2.5887,-2.4833,-2.4811,-2.4203,-2.3103,-2.3103,-2.309,-2.3078,-2.3078,-2.2824,-2.2234,-2.1142,-2.0756,-2.0668,-2.0037,-1.9497,-1.8908,0.0,0.0,0.0,0.0,0.0,0.0,0.0,0.0,0.0,0.0,0.0,0.0,0.0,0.0,0.0,0.0,0.0,0.0,0.0,0.0,0.0,0.0,0.0,0.0,0.0,0.0,0.0,0.0,-2.8156,-2.9037,-2.9822,-3.0291,-3.108,-3.2081,-3.2081,-3.2453,-3.3085,-3.2882,-3.1579,-2.9485,-2.7476,-2.615,-2.5341,0.0,0.0,0.0,0.0,0.0,0.0,0.0,0.0,0.0,0.0,0.0,0.0,0.0,0.0,0.0,0.0,0.0,0.0,0.0,0.0,0.0,0.0,0.0,0.0,0.0,0.0,0.0,0.0,0.0,0.0,0.0,0.0,-2.2413,-2.2413,-2.4208,-2.6019,-2.735,-2.9086,-3.0357,-3.0836,-3.1644,-3.2228,-3.2407,-3.2572,-3.257,-3.2198,-3.2407,-3.2051,-3.1013,-2.9994,-2.9161,-2.8486,-2.7327,-2.6684,-2.6533,-2.6533,-2.6088,-2.5385,-2.5388,-2.4796,-2.3766,-2.3766,-2.3527,-2.3078,-2.3078,-2.2977,-2.2836,-2.2133,-2.1606,-2.1192,-2.0639,-1.9836,-1.8958,0.0,0.0,0.0,0.0,0.0,0.0,0.0,0.0,0.0,0.0,0.0,0.0,0.0,0.0,0.0,0.0,0.0,0.0,0.0,0.0,0.0,0.0,0.0,0.0,0.0,0.0,0.0,0.0,0.0,-3.0055,-3.0502,-3.1149,-3.2139,-3.3388,-3.3648,-3.4162,-3.4793,-3.4472,-3.366,-3.2381,-3.009,-2.8372,-2.7064,-2.6172,-2.5873,-2.5867,-2.5377,-2.4979,-2.4685,-2.4685,0.0,0.0,0.0,0.0,0.0,0.0,0.0,0.0,0.0,0.0,0.0,0.0,0.0,0.0,0.0,0.0,0.0,0.0,0.0,0.0,0.0,0.0,0.0,0.0,-2.3759,-2.4972,-2.5495,-2.6886,-2.8442,-3.0043,-3.1734,-3.2916,-3.3305,-3.3591,-3.3691,-3.3691,-3.3092,-3.2594,-3.2291,-3.2011,-3.1433,-3.0524,-2.9928,-2.9132,-2.7988,-2.7678,-2.7143,-2.6533,-2.676,-2.6377,-2.5598,-2.5598,-2.5134,0.0,-2.4104,-2.3803,-2.3477,-2.3178,-2.3078,0.0,0.0,0.0,0.0,0.0,-2.0263,-1.9685,0.0,0.0,0.0,0.0,0.0,0.0,0.0,0.0,0.0,0.0,0.0,0.0,0.0,0.0,0.0,0.0,0.0,0.0,0.0,0.0,0.0,0.0,0.0,0.0,0.0,0.0,0.0,0.0,0.0,0.0,0.0,-3.158,-3.2962,-3.4957,-3.5583,-3.6217,-3.6874,-3.6163,-3.5385,-3.4481,-3.2882,-3.1179,-2.9434,-2.7958,-2.7759,-2.8152,-2.7123,-2.6282,-2.566,-2.5586,0.0,0.0,0.0,0.0,0.0,0.0,0.0,0.0,0.0,0.0,0.0,0.0,0.0,0.0,0.0,0.0,0.0,0.0,0.0,0.0,0.0,0.0,0.0,0.0,-2.6258,-2.8397,-2.9819,-3.0088,-3.0776,-3.2527,-3.3769,-3.4502,-3.4592,-3.4339,-3.4095,-3.4027,-3.2665,-3.2041,-3.2423,0.0,0.0,0.0,0.0,-2.895,-2.7394,-2.8285,-2.8009,-2.6634,-2.6979,-2.6628,-2.5598,-2.5598,-2.531,-2.4795,-2.4305,-2.4092,-2.4054,-2.354,-2.3288,-2.3165,-2.3103,-2.2799,-2.2196,-2.1204,-2.0819,-2.0655,0.0,0.0,0.0,0.0,0.0,0.0,0.0,0.0,0.0,0.0,0.0,0.0,0.0,0.0,0.0,0.0,0.0,0.0,0.0,0.0,0.0,0.0,0.0,0.0,0.0,0.0,0.0,0.0,0.0,0.0,0.0,0.0,-3.4936,-3.6383,-3.6514,-3.702,-3.7686,-3.7533,-3.6671,-3.5368,-3.5016,-3.3014,-3.0197,-2.9419,-2.8774,-2.8242,-2.7743,-2.7457,-2.7236,-2.6594,-2.6391,-2.632,-2.5669,0.0,0.0,0.0,0.0,0.0,0.0,0.0,0.0,0.0,0.0,0.0,0.0,0.0,0.0,0.0,0.0,0.0,0.0,0.0,0.0,-2.7245,-2.8921,-3.0597,-3.2467,-3.3185,-3.3664,-3.4053,-3.4322,-3.4696,-3.525,-3.5285,-3.4839,-3.4095,-3.3693,-3.2905,-3.1523,-3.1209,0.0,-2.9225,-2.9101,-2.8725,-2.7959,-2.772,-2.7444,-2.7118,0.0,0.0,-2.5598,-2.5598,-2.531,-2.4808,-2.4707,-2.4669,-2.4657,-2.4544,-2.423,-2.3791,-2.3314,-2.2799,-2.2284,-2.2071,-2.143,-2.0769,0.0,0.0,0.0,0.0,0.0,0.0,0.0,0.0,0.0,0.0,0.0,0.0,0.0,0.0,0.0,0.0,0.0,0.0,0.0,0.0,0.0,0.0,0.0,0.0,0.0,0.0,0.0,0.0,0.0,0.0,0.0,0.0,0.0,-3.6804,-3.7124,-3.7906,-3.8971,-3.8616,-3.8007,-3.7212,-3.6079,-3.4338,-3.2376,-3.1148,-3.0552,-3.0196,-2.9112,-2.856,-2.8282,-2.7475,-2.7011,-2.6669,-2.628,-2.5931,-2.5595,0.0,0.0,0.0,0.0,0.0,0.0,0.0,0.0,0.0,0.0,0.0,0.0,0.0,0.0,-2.4886,0.0,0.0,-2.7754,-2.9744,-3.115,-3.2467,-3.3799,-3.4562,-3.4996,-3.4996,-3.4996,-3.4907,-3.4743,-3.4327,-3.3616,-3.2664,-3.2191,-3.1489,-3.0558,-3.0482,-3.0011,-2.895,-2.8925,-2.8536,-2.7708,-2.7971,-2.7821,-2.7281,-2.7557,-2.7394,-2.6841,-2.6565,-2.6302,-2.6025,-2.546,-2.5209,-2.5172,-2.4618,-2.423,-2.3941,-2.3364,-2.2915,-2.2686,-2.241,-2.197,-2.1493,0.0,0.0,0.0,0.0,0.0,0.0,0.0,0.0,0.0,0.0,0.0,0.0,0.0,0.0,0.0,0.0,0.0,0.0,0.0,0.0,0.0,0.0,0.0,0.0,0.0,0.0,0.0,0.0,0.0,0.0,0.0,0.0,0.0,0.0,-3.8003,-3.8941,-4.0037,-3.9462,-3.9123,-3.8819,-3.6857,-3.5622,-3.4718,-3.2771,-3.2073,-3.1971,-3.0312,-2.9416,-2.8847,-2.7897,-2.7169,-2.6641,-2.6454,-2.5978,-2.5427,-2.5279,-2.4724,0.0,0.0,0.0,0.0,0.0,0.0,0.0,0.0,0.0,-2.5629,-2.6449,-2.7267,-2.8088,-2.8965,-2.9681,-3.0582,-3.1884,-3.311,-3.4068,-3.4607,-3.516,-3.5459,-3.5325,-3.527,-3.4905,-3.4095,-3.3171,-3.2249,-3.1241,-3.0482,-2.9998,-2.9792,-2.9691,-2.9365,-2.8787,-2.8875,-2.8448,-2.7457,-2.8436,-2.8486,-2.7607,-2.8398,-2.8536,-2.8084,-2.7532,-2.7281,-2.7218,-2.6201,-2.5762,-2.5699,-2.4856,-2.4417,-2.4255,-2.3778,-2.354,-2.3315,-2.2723,-2.2397,-2.2259,0.0,0.0,0.0,0.0,0.0,0.0,0.0,0.0,0.0,0.0,0.0,0.0,0.0,0.0,0.0,0.0,0.0,0.0,0.0,0.0,0.0,0.0,0.0,0.0,0.0,0.0,0.0,0.0,0.0,0.0,0.0,0.0,0.0,0.0,0.0,-3.9952,-4.007,-3.9986,-3.958,-3.892,-3.8024,-3.7195,-3.6288,-3.3728,-3.2231,-3.1324,-3.043,-2.963,-2.8755,-2.7255,-2.6777,-2.6749,-2.6024,-2.5726,-2.5519,-2.4813,0.0,-2.419,-2.419,-2.3996,-2.3811,-2.4122,-2.448,-2.5069,0.0,0.0,-2.8505,-2.8582,-2.9366,-3.0196,-3.0803,-3.1596,-3.2617,-3.3933,-3.4786,-3.531,-3.5385,-3.5459,-3.528,-3.4666,-3.4325,-3.4095,-3.4027,-3.3171,-3.2249,-3.1241,-3.1106,-3.0696,-2.9856,-2.9302,-2.8762,-2.821,-2.8674,-2.8637,-2.8021,-2.8624,-2.8863,-2.8737,-2.8373,-2.816,-2.8084,-2.7532,-2.7281,-2.7256,-2.6628,-2.6433,-2.642,-2.6251,-2.5887,-2.5398,-2.5378,-2.5023,-2.4506,-2.3439,-2.2736,-2.2372,0.0,0.0,0.0,0.0,0.0,0.0,0.0,0.0,0.0,0.0,0.0,0.0,0.0,0.0,0.0,0.0,0.0,0.0,0.0,0.0,0.0,0.0,0.0,0.0,0.0,0.0,0.0,0.0,0.0,0.0,0.0,0.0,0.0,0.0,0.0,0.0,-4.007,-4.007,-3.9648,-3.8937,-3.821,-3.6924,-3.5254,-3.3277,-3.1459,-2.9814,-2.9296,-2.8755,0.0,0.0,-2.6659,-2.6686,-2.6334,-2.591,-2.5467,-2.5116,-2.4634,0.0,-2.3958,-2.4444,-2.5058,0.0,-2.6467,-2.7856,-2.9066,-3.048,-3.1803,-3.262,-3.3111,-3.3614,-3.4274,-3.4329,-3.4442,0.0,-3.5325,-3.5504,-3.5504,-3.516,-3.4666,-3.3978,-3.2587,-3.1777,-3.2143,-3.135,-3.0379,-2.949,-2.9725,-2.9693,-2.9289,-2.9377,-2.9327,-2.9101,-2.8988,-2.8825,-2.8586,-2.8812,-2.8925,-2.8925,-2.9038,-2.8913,-2.8574,-2.8348,-2.7896,-2.7256,-2.6703,-2.6533,-2.6452,-2.6096,-2.5852,-2.5573,-2.5281,-2.5006,-2.472,-2.3929,-2.3489,-2.3276,0.0,0.0,0.0,0.0,0.0,0.0,0.0,0.0,0.0,0.0,0.0,0.0,0.0,0.0,0.0,0.0,0.0,0.0,0.0,0.0,0.0,0.0,0.0,0.0,0.0,0.0,0.0,0.0,0.0,0.0,0.0,0.0,0.0,0.0,0.0,0.0,0.0,-3.9868,-3.9478,-3.8886,-3.7736,-3.6045,-3.3999,-3.2299,-3.0208,-2.8112,-2.7913,-2.7523,0.0,0.0,-2.5952,-2.5952,-2.5952,-2.5529,-2.5072,-2.5072,-2.4591,-2.4121,-2.4415,0.0,0.0,-2.739,-2.9076,-3.0854,-3.211,-3.3575,-3.4863,-3.5719,-3.5929,-3.5991,-3.6085,-3.5493,-3.5011,-3.519,-3.522,-3.5295,-3.5474,-3.4592,-3.3754,-3.3275,-3.0831,-2.9384,-2.9762,-2.9266,-2.8621,-2.7943,-2.8536,-2.8925,-2.8925,-2.9327,-2.9553,-2.9553,-2.9151,-2.8925,-2.8925,-2.9089,-2.9164,-2.9164,-2.9591,-2.9578,-2.9164,-2.9001,-2.8411,-2.7482,-2.6929,-2.6691,-2.6666,-2.6052,-2.5847,-2.5812,-2.5453,-2.5265,-2.5209,-2.4644,-2.4255,-2.3966,0.0,0.0,0.0,0.0,0.0,0.0,0.0,0.0,0.0,0.0,0.0,0.0,0.0,0.0,0.0,0.0,0.0,0.0,0.0,0.0,0.0,0.0,0.0,0.0,0.0,0.0,0.0,0.0,0.0,0.0,0.0,0.0,0.0,0.0,0.0,0.0,0.0,0.0,-3.9005,-3.8802,-3.6586,-3.4793,-3.3185,-3.0924,-2.8442,-2.6231,-2.6548,0.0,0.0,0.0,-2.4263,-2.4263,-2.4263,-2.4263,0.0,-2.4245,-2.3994,0.0,0.0,0.0,-2.7848,-3.0798,-3.2417,-3.366,-3.5148,-3.6671,-3.7551,-3.6841,-3.6726,-3.6305,-3.4817,-3.404,-3.3769,-3.4397,-3.4502,-3.4741,-3.5415,-3.3814,-3.2557,-3.2542,-2.9414,-2.729,0.0,-2.7313,-2.7377,-2.7306,-2.831,-2.8925,-2.8925,-2.895,-2.895,-2.895,-2.8938,-2.8925,-2.8925,-2.9478,-2.9767,-2.9767,-2.9779,-2.9779,-2.9741,-2.9189,-2.8612,-2.8047,-2.7494,-2.7256,-2.7218,-2.6666,-2.644,-2.6496,-2.6414,-2.6483,-2.6408,-2.5762,-2.4883,-2.4067,0.0,0.0,0.0,0.0,0.0,0.0,0.0,0.0,0.0,0.0,0.0,0.0,0.0,0.0,0.0,0.0,0.0,0.0,0.0,0.0,0.0,0.0,0.0,0.0,0.0,0.0,0.0,0.0,0.0,0.0,0.0,0.0,0.0,0.0,0.0,0.0,0.0,0.0,0.0,-3.6552,-3.4303,-3.2814,-3.1585,-2.8558,-2.6554,-2.527,0.0,0.0,0.0,0.0,0.0,0.0,-2.419,0.0,0.0,-2.3937,-2.4834,-2.6047,-2.6796,0.0,-3.1328,-3.311,-3.4982,-3.6654,-3.7635,-3.8633,-3.8908,-3.7242,-3.5756,-3.4213,-3.2331,-3.1379,-3.1255,-3.2347,-3.326,-3.4053,-3.4726,-3.4247,-3.317,-3.139,-2.9631,0.0,0.0,0.0,0.0,-2.6138,-2.7205,-2.7996,-2.836,-2.9101,-2.9503,-2.9503,-2.9503,-2.9503,-2.9503,-2.9691,-2.9792,-2.9792,-2.9402,-2.9415,-2.9767,-2.8812,-2.8486,-2.8599,-2.7682,-2.7494,-2.7783,-2.7231,-2.7005,-2.7005,-2.7005,-2.6779,-2.6508,-2.6239,-2.5699,-2.5034,0.0,0.0,0.0,0.0,0.0,0.0,0.0,0.0,0.0,0.0,0.0,0.0,0.0,0.0,0.0,0.0,0.0,0.0,0.0,0.0,0.0,0.0,0.0,0.0,0.0,0.0,0.0,0.0,0.0,0.0,0.0,0.0,0.0,0.0,0.0,0.0,0.0,0.0,0.0,-3.3474,-3.1495,-3.0091,-2.8926,-2.6602,-2.5023,0.0,0.0,0.0,0.0,0.0,0.0,0.0,0.0,-2.4117,-2.4295,-2.4474,-2.5941,-2.776,-2.9076,-3.1555,-3.4157,-3.5701,-3.7398,-3.8802,-3.9276,-3.9343,-3.8655,-3.6339,-3.4153,-3.1933,-2.9658,-2.8622,-2.8592,-2.9909,-3.1031,-3.2228,-3.3589,-3.3365,-3.2557,-3.1235,-2.9704,-2.8002,0.0,0.0,0.0,-2.531,-2.6728,-2.7733,-2.8084,-2.9176,-2.9792,-2.9792,-2.9792,-2.9792,-2.9792,-2.9792,-2.9792,-2.9792,-2.9415,-2.9428,-2.9767,-2.9038,-2.89,-2.9189,-2.826,-2.7959,-2.8059,-2.7507,-2.7281,-2.7281,-2.7281,-2.718,-2.703,-2.6829,-2.6515,-2.6126,0.0,0.0,0.0,0.0,0.0,0.0,0.0,0.0,0.0,0.0,0.0,0.0,0.0,0.0,0.0,0.0,0.0,0.0,0.0,0.0,0.0,0.0,0.0,0.0,-2.6573,-2.899,-3.0118,-2.9939,0.0,0.0,0.0,0.0,0.0,0.0,0.0,0.0,0.0,0.0,0.0,-2.9854,-2.8281,0.0,-2.5539,-2.5055,0.0,0.0,0.0,0.0,0.0,0.0,0.0,0.0,0.0,-2.4129,-2.4752,-2.5947,-2.7368,-2.9334,-3.2659,-3.4658,-3.6332,-3.8548,-3.9563,-4.0003,-3.9918,-3.8785,-3.6944,-3.4103,-3.1838,-2.9528,0.0,0.0,-2.5959,-2.735,-2.8233,-2.9654,-3.2243,-3.1554,-3.1115,0.0,0.0,0.0,0.0,0.0,0.0,-2.4983,0.0,-2.8084,-2.8147,-2.9202,-2.9792,-2.9792,-2.9792,-2.9792,-2.9792,-2.9792,-2.9792,-2.9792,-2.9792,-2.9792,-2.9792,-2.9792,-2.9792,-2.9767,-2.9176,-2.8649,-2.8147,-2.7595,-2.7369,-2.7369,-2.7369,-2.767,-2.8047,-2.7494,-2.7281,-2.7205,0.0,0.0,0.0,0.0,0.0,0.0,0.0,0.0,0.0,0.0,0.0,0.0,0.0,0.0,0.0,0.0,0.0,0.0,0.0,0.0,0.0,0.0,0.0,0.0,0.0,-2.6231,-2.7097,-2.7571,0.0,0.0,0.0,0.0,0.0,0.0,0.0,0.0,0.0,0.0,0.0,-2.823,0.0,-2.5456,-2.5406,0.0,0.0,0.0,0.0,0.0,0.0,0.0,0.0,0.0,0.0,-2.6233,-2.7759,-2.838,-3.0437,-3.2968,-3.5287,-3.7009,-3.8531,-4.0223,-3.9952,-3.8971,-3.7872,-3.6451,-3.4326,-3.0628,-2.8178,-2.5958,0.0,0.0,0.0,-2.72,-2.9385,0.0,-3.3679,-3.4128,0.0,-3.155,0.0,-2.9914,-2.7631,-2.7442,0.0,0.0,-2.718,-2.7846,-2.8674,-2.9402,-2.9792,-2.9792,-2.9792,-2.9792,-2.9792,-2.9792,-2.9792,-2.9792,-2.9792,-2.9792,-2.9792,-2.9792,-2.9792,-2.9767,-2.9176,-2.9101,-2.9315,-2.875,-2.8511,-2.8511,-2.8511,-2.8348,-2.8047,-2.7494,-2.7281,-2.7268,0.0,0.0,0.0,0.0,0.0,0.0,0.0,0.0,0.0,0.0,0.0,0.0,0.0,0.0,0.0,0.0,0.0,0.0,0.0,0.0,0.0,0.0,0.0,0.0,0.0,0.0,0.0,0.0,0.0,0.0,0.0,0.0,0.0,0.0,0.0,0.0,0.0,0.0,0.0,0.0,0.0,0.0,0.0,0.0,0.0,0.0,0.0,0.0,0.0,0.0,0.0,-2.6347,-2.7011,-2.865,-3.0506,-3.1387,0.0,-3.6041,-3.7797,-3.9073,-4.0155,-4.1001,-3.9851,-3.8125,-3.662,-3.4425,-3.1666,-2.7891,-2.5557,0.0,0.0,0.0,0.0,0.0,0.0,0.0,-3.2407,-3.3829,-3.3938,0.0,-3.1957,0.0,-2.8459,-2.8375,-2.8335,0.0,-2.8009,-2.8273,-2.89,-2.9478,-2.9792,-2.9792,-2.9792,-2.9792,-2.9792,-2.9792,-2.9792,-2.9792,-2.9792,-2.9792,-2.9792,-2.9792,-2.9792,-2.9779,0.0,-2.9352,-2.939,-2.9063,-2.8925,-2.8925,-2.8925,-2.89,-2.8775,-2.821,-2.8009,-2.7934,0.0,0.0,0.0,0.0,0.0,0.0,0.0,0.0,0.0,0.0,0.0,0.0,0.0,0.0,0.0,0.0,0.0,0.0,0.0,0.0,0.0,0.0,0.0,0.0,0.0,0.0,0.0,0.0,0.0,0.0,0.0,0.0,0.0,0.0,0.0,0.0,0.0,0.0,0.0,0.0,0.0,0.0,0.0,0.0,0.0,0.0,0.0,0.0,0.0,0.0,-2.6514,-2.77,-2.9283,-3.1223,-3.3152,-3.4539,-3.6485,-3.8497,-3.9851,-4.0696,-4.1204,-4.1204,-3.9309,-3.706,-3.5431,-3.2328,-2.8857,-2.5578,0.0,-2.1755,-2.0029,-2.0318,-2.1335,-2.2817,0.0,-2.7694,-3.0507,-3.2392,-3.3289,-3.2807,-3.2664,-3.1685,-2.9427,-2.9101,-2.9038,-2.9038,-2.9038,-2.9038,-2.9038,-2.9515,-2.9792,-2.9792,-2.9792,-2.9792,-2.9792,-2.9792,-2.9792,-2.9792,-2.9792,-2.9792,-2.9792,-2.9792,-2.9792,-2.9792,0.0,0.0,-2.9038,-2.9038,-2.9038,-2.9038,-2.9038,-2.9352,-2.9729,-2.9139,-2.8925,-2.8787,0.0,0.0,0.0,0.0,0.0,0.0,0.0,0.0,0.0,0.0,0.0,0.0,0.0,0.0,0.0,0.0,0.0,0.0,0.0,0.0,0.0,0.0,0.0,0.0,0.0,0.0,0.0,0.0,0.0,0.0,0.0,0.0,0.0,0.0,0.0,0.0,0.0,0.0,0.0,0.0,0.0,0.0,0.0,0.0,0.0,0.0,0.0,0.0,0.0,0.0,-2.7487,-2.9049,-3.1138,-3.3761,-3.6163,-3.706,-3.8447,-3.9901,-4.0764,-4.1102,-4.1204,-4.1204,-3.8125,-3.4604,-3.2777,-2.9031,0.0,0.0,0.0,-2.0505,-1.9827,-2.0692,0.0,-2.4717,0.0,0.0,0.0,0.0,-3.3572,0.0,0.0,0.0,0.0,0.0,0.0,0.0,0.0,-2.9641,-2.9641,-2.9741,-2.9792,-2.9792,-2.9792,-2.9792,-2.9792,-2.9792,-2.9792,-2.9792,-2.9792,-2.9792,-2.9792,-2.9792,-2.9792,-2.9792,-2.9792,0.0,-2.9641,-2.9641,-2.9641,-2.9641,-2.9641,-2.9704,-2.9729,-2.9139,-2.8925,-2.89,0.0,0.0,0.0,0.0,0.0,0.0,0.0,0.0,0.0,0.0,-2.4284,0.0,0.0,0.0,0.0,0.0,0.0,0.0,0.0,0.0,0.0,0.0,0.0,0.0,0.0,0.0,0.0,0.0,0.0,0.0,0.0,0.0,0.0,0.0,0.0,0.0,0.0,0.0,0.0,0.0,0.0,0.0,0.0,0.0,0.0,0.0,0.0,0.0,0.0,0.0,-2.686,-2.8383,-3.1799,-3.4658,-3.6924,-3.7686,-3.8937,-4.024,-4.1001,-4.0908,-4.0525,-4.0194,-3.6505,-3.2467,-3.044,0.0,0.0,0.0,-2.0404,-1.9945,-1.9762,0.0,0.0,0.0,0.0,0.0,0.0,0.0,0.0,0.0,0.0,0.0,0.0,0.0,0.0,0.0,0.0,-2.9792,-2.9792,-2.9792,-2.9792,-2.9792,-2.9792,-2.9792,-2.9792,-2.9792,-2.9792,-2.9792,-2.9792,-2.9792,-2.9792,-2.9792,-2.9792,-2.9792,-2.9792,0.0,-2.9792,-2.9792,-2.9792,-2.9792,-2.9792,-2.9792,-2.9754,-2.9478,-2.9377,-2.934,0.0,0.0,0.0,0.0,0.0,0.0,0.0,-2.4266,-2.419,-2.419,-2.419,-2.419,-2.419,-2.419,0.0,0.0,0.0,0.0,0.0,0.0,0.0,0.0,0.0,0.0,0.0,0.0,0.0,0.0,0.0,0.0,0.0,0.0,0.0,0.0,0.0,0.0,0.0,0.0,0.0,0.0,0.0,0.0,0.0,0.0,0.0,0.0,0.0,0.0,0.0,0.0,-2.5744,-2.6894,-3.0751,-3.3846,-3.6231,-3.7144,-3.8451,-3.9766,-4.0523,-4.0259,-3.9598,-3.8635,-3.4738,-3.0573,-2.8542,-2.495,0.0,0.0,-1.9909,-1.969,-1.969,0.0,0.0,0.0,0.0,0.0,0.0,0.0,0.0,0.0,0.0,0.0,0.0,0.0,0.0,0.0,0.0,0.0,-2.9792,-2.9792,-2.9792,-2.9792,-2.9792,-2.9792,-2.9792,-2.9792,-2.9792,-2.9792,-2.9792,-2.9792,-2.9792,-2.9792,-2.9792,-2.9792,-2.9792,0.0,0.0,-2.9792,-2.9792,-2.9792,-2.9792,-2.9792,-2.9792,-2.9792,-2.9624,-2.9381,0.0,0.0,0.0,0.0,0.0,0.0,0.0,-2.4426,-2.419,-2.419,-2.419,-2.419,-2.419,-2.419,0.0,0.0,0.0,0.0,0.0,0.0,0.0,0.0,0.0,0.0,0.0,0.0,0.0,0.0,0.0,0.0,0.0,0.0,0.0,0.0,0.0,0.0,0.0,0.0,0.0,0.0,0.0,0.0,0.0,0.0,0.0,0.0,0.0,0.0,0.0,0.0,0.0,-2.5031,-2.6759,-3.026,-3.3998,-3.5419,0.0,0.0,-3.8933,-3.9039,-3.8541,-3.6587,-3.2802,-2.9125,-2.734,0.0,0.0,-1.9869,-1.9726,-1.969,-1.969,-1.9339,0.0,0.0,0.0,0.0,0.0,0.0,0.0,0.0,0.0,0.0,0.0,0.0,0.0,0.0,0.0,0.0,-2.9792,-2.9792,-2.9792,-2.9792,-2.9792,-2.9792,-2.9792,-2.9792,-2.9792,-2.9792,-2.9792,-2.9792,-2.9792,-2.9792,-2.9792,-2.9792,-2.9792,0.0,0.0,-2.9792,-2.9792,-2.9792,-2.9792,-2.9792,-2.9792,-2.9792,-2.9106,-2.8255,0.0,0.0,0.0,0.0,0.0,0.0,0.0,-2.4375,-2.419,-2.419,-2.419,-2.419,-2.419,-2.419,0.0,0.0,0.0,0.0,0.0,0.0,0.0,0.0,0.0,0.0,0.0,0.0,0.0,0.0,0.0,0.0,0.0,0.0,0.0,0.0,0.0,0.0,0.0,0.0,0.0,0.0,0.0,0.0,0.0,0.0,0.0,0.0,0.0,0.0,0.0,0.0,0.0,0.0,-2.3524,-2.5648,0.0,0.0,-3.3408,-3.5366,-3.6222,-3.6646,-3.6531,-3.4935,-3.1103,-2.7303,-2.5817,0.0,0.0,-1.9711,-1.969,-1.9603,-1.9281,-1.9043,-1.8975,0.0,0.0,0.0,0.0,0.0,0.0,0.0,0.0,0.0,0.0,0.0,0.0,0.0,0.0,0.0,-2.9792,-2.9792,-2.9792,-2.9792,-2.9792,-2.9792,-2.9792,-2.9792,-2.9792,-2.9792,-2.9792,-2.9792,-2.9792,-2.9792,-2.9792,-2.9792,-2.9792,0.0,0.0,-2.9792,-2.9792,-2.9792,-2.9792,-2.9792,-2.9792,-2.9792,-2.9106,-2.8096,0.0,0.0,0.0,0.0,0.0,0.0,-2.4607,-2.4357,-2.419,-2.419,-2.419,-2.417,-2.4074,-2.4036,-2.4016,-2.3917,0.0,0.0,0.0,0.0,0.0,0.0,0.0,0.0,0.0,0.0,0.0,0.0,0.0,0.0,0.0,0.0,0.0,0.0,0.0,0.0,0.0,0.0,0.0,0.0,0.0,0.0,0.0,0.0,0.0,0.0,0.0,0.0,0.0,0.0,0.0,0.0,0.0,0.0,0.0,0.0,-2.9891,-3.2043,-3.3056,-3.3521,-3.3464,-3.1951,-2.8784,-2.5615,0.0,0.0,0.0,-1.969,-1.9566,-1.9369,-1.8968,-1.865,-1.8302,0.0,0.0,-1.8248,0.0,0.0,0.0,0.0,0.0,0.0,0.0,0.0,0.0,0.0,0.0,0.0,0.0,-2.9792,-2.9716,-2.9541,-2.9704,-2.9704,-2.9541,-2.9704,-2.9792,-2.9792,-2.9792,-2.9792,-2.9792,-2.9792,-2.9792,-2.9792,0.0,0.0,0.0,-2.9792,-2.9792,-2.9792,-2.9792,-2.9611,-2.9287,-2.9287,-2.8359,-2.7093,0.0,0.0,0.0,0.0,0.0,0.0,0.0,-2.4461,-2.419,-2.419,-2.419,-2.4074,-2.3735,-2.3714,-2.3566,-2.3236,0.0,0.0,0.0,0.0,0.0,0.0,0.0,0.0,0.0,0.0,0.0,0.0,0.0,0.0,0.0,0.0,0.0,0.0,0.0,0.0,0.0,0.0,0.0,0.0,0.0,0.0,0.0,0.0,0.0,0.0,0.0,0.0,0.0,0.0,0.0,0.0,0.0,0.0,0.0,0.0,-2.6727,-2.8389,-2.9469,-2.972,-2.9199,-2.7141,-2.5644,-2.4089,0.0,0.0,-1.969,-1.969,-1.9281,-1.8893,-1.8893,-1.8027,-1.7312,-1.7312,-1.6879,0.0,-1.8147,0.0,0.0,0.0,0.0,0.0,0.0,0.0,0.0,0.0,0.0,0.0,0.0,-2.9792,-2.9528,-2.895,-2.949,-2.9515,-2.895,-2.9503,-2.9792,-2.9792,-2.9792,-2.9792,-2.9792,-2.9792,-2.9792,0.0,0.0,0.0,0.0,-2.9792,-2.9792,-2.9792,-2.9792,-2.9106,-2.8096,-2.8096,-2.6685,-2.4872,0.0,0.0,0.0,0.0,0.0,0.0,0.0,-2.4461,-2.419,-2.419,-2.419,-2.4074,-2.3753,-2.3692,-2.3566,-2.3212,0.0,0.0,0.0,0.0,0.0,0.0,0.0,0.0,0.0,0.0,0.0,0.0,0.0,0.0,0.0,0.0,0.0,0.0,0.0,0.0,0.0,0.0,0.0,0.0,0.0,0.0,0.0,0.0,0.0,0.0,0.0,0.0,0.0,0.0,0.0,0.0,0.0,0.0,0.0,0.0,0.0,0.0,-2.6092,-2.6856,-2.7275,-2.6198,-2.4597,-2.3011,-2.1934,0.0,-1.9603,-1.9244,-1.9006,-1.8688,-1.7947,-1.7544,-1.7332,-1.7375,-1.7232,-1.739,0.0,0.0,0.0,0.0,0.0,0.0,0.0,0.0,0.0,0.0,0.0,0.0,0.0,-2.9415,-2.9302,-2.9515,-2.9315,-2.9114,-2.8925,-2.9114,-2.9202,-2.9202,-2.9603,-2.9792,-2.9792,-2.9792,0.0,0.0,0.0,0.0,0.0,-2.9792,-2.9792,-2.9792,-2.9792,-2.9106,-2.8096,-2.8096,-2.6685,-2.4787,0.0,0.0,0.0,0.0,0.0,0.0,0.0,-2.4461,-2.419,-2.419,-2.419,-2.4016,-2.3566,-2.3522,-2.3341,-2.2908,0.0,0.0,0.0,0.0,0.0,0.0,0.0,0.0,0.0,0.0,0.0,0.0,0.0,0.0,0.0,0.0,0.0,0.0,0.0,0.0,0.0,0.0,0.0,0.0,0.0,0.0,-2.1921,0.0,0.0,0.0,0.0,0.0,0.0,0.0,0.0,0.0,0.0,0.0,0.0,0.0,-2.1069,0.0,0.0,-2.3924,-2.4582,-2.3924,-2.2847,0.0,0.0,0.0,-1.9281,-1.8968,-1.8574,-1.8106,-1.7435,-1.7105,-1.6995,-1.703,-1.7237,-1.7579,-1.817,0.0,0.0,0.0,0.0,0.0,0.0,0.0,0.0,0.0,0.0,0.0,0.0,-2.9126,-2.9001,-2.9151,-2.88,-2.8511,-2.831,-2.8725,-2.8925,-2.8938,-2.9515,-2.9792,-2.9792,-2.9792,0.0,0.0,0.0,0.0,0.0,-2.9197,-2.9197,-2.9118,-2.8712,-2.7867,-2.6849,-2.6849,-2.5703,-2.4125,0.0,0.0,0.0,0.0,0.0,0.0,0.0,0.0,0.0,0.0,-2.417,-2.3917,-2.3259,-2.3165,0.0,0.0,0.0,0.0,0.0,0.0,0.0,0.0,0.0,0.0,0.0,0.0,0.0,-2.231,-2.231,-2.231,-2.231,0.0,0.0,0.0,0.0,0.0,0.0,0.0,0.0,0.0,0.0,0.0,0.0,0.0,0.0,0.0,0.0,0.0,0.0,0.0,0.0,0.0,0.0,0.0,0.0,0.0,0.0,0.0,0.0,0.0,0.0,0.0,0.0,0.0,0.0,0.0,0.0,-1.8817,-1.7987,-1.7312,-1.7229,-1.6837,-1.6491,-1.6572,-1.7099,-1.7715,0.0,0.0,0.0,0.0,0.0,0.0,0.0,0.0,0.0,0.0,0.0,0.0,0.0,-2.8888,-2.8612,-2.8059,-2.8009,-2.777,-2.7344,-2.836,-2.8888,-2.8938,-2.9515,-2.9792,-2.9792,-2.9702,0.0,0.0,0.0,0.0,0.0,-2.8016,-2.8016,-2.7936,-2.6883,-2.5797,-2.4787,-2.4787,-2.4049,-2.3135,0.0,0.0,0.0,0.0,0.0,0.0,0.0,0.0,0.0,0.0,0.0,-2.3671,-2.3253,-2.2972,0.0,0.0,0.0,0.0,0.0,0.0,0.0,0.0,0.0,0.0,0.0,0.0,0.0,-2.231,-2.231,-2.231,-2.231,-2.231,0.0,0.0,0.0,0.0,0.0,0.0,0.0,0.0,0.0,0.0,0.0,0.0,0.0,0.0,-2.0808,-2.0972,0.0,0.0,0.0,0.0,0.0,0.0,0.0,0.0,-1.969,-1.972,-1.9884,0.0,-2.0124,-1.9959,-1.9929,0.0,0.0,0.0,0.0,0.0,0.0,0.0,0.0,-1.6595,-1.666,-1.7099,-1.8003,-1.883,-1.9357,0.0,0.0,0.0,0.0,0.0,0.0,0.0,0.0,0.0,0.0,0.0,0.0,-2.8524,-2.8047,-2.7494,-2.7067,-2.7193,-2.7908,-2.8172,-2.8511,-2.8938,-2.9515,-2.9792,-2.9792,-2.8937,0.0,0.0,0.0,0.0,-2.6883,-2.6883,-2.6883,-2.6883,-2.6565,-2.5797,-2.4787,-2.4787,-2.4049,-2.3135,0.0,0.0,0.0,0.0,0.0,0.0,0.0,0.0,0.0,0.0,0.0,0.0,0.0,0.0,0.0,0.0,0.0,0.0,0.0,0.0,0.0,0.0,0.0,0.0,0.0,0.0,0.0,0.0,0.0,-2.231,0.0,0.0,0.0,0.0,0.0,0.0,0.0,0.0,0.0,0.0,-2.1549,0.0,0.0,0.0,0.0,0.0,-1.9962,-2.0113,0.0,-2.0206,-2.0193,-2.0,0.0,0.0,0.0,0.0,-1.969,-1.9639,-1.9406,-1.9332,-1.9406,-1.9639,-1.953,-1.9244,0.0,0.0,0.0,0.0,0.0,0.0,0.0,0.0,0.0,-1.7287,-1.8346,0.0,0.0,0.0,0.0,0.0,0.0,0.0,0.0,0.0,0.0,0.0,0.0,0.0,0.0,-2.8034,-2.7469,-2.6917,-2.6615,-2.6753,-2.7344,-2.7607,-2.8009,-2.8561,-2.9126,-2.9528,-2.9792,-2.8597,-2.7844,0.0,0.0,0.0,-2.5714,-2.5714,-2.5714,-2.563,-2.5136,-2.4553,-2.4049,-2.4049,-2.3637,-2.3135,0.0,0.0,0.0,0.0,0.0,0.0,0.0,0.0,0.0,0.0,0.0,0.0,0.0,0.0,0.0,0.0,0.0,0.0,0.0,0.0,0.0,0.0,0.0,0.0,0.0,0.0,0.0,0.0,0.0,0.0,0.0,0.0,-2.231,0.0,0.0,0.0,0.0,0.0,0.0,0.0,-2.0579,0.0,0.0,0.0,0.0,0.0,0.0,0.0,0.0,-1.9875,-1.9965,-1.969,-1.969,0.0,0.0,0.0,0.0,0.0,-1.9132,-1.8893,-1.8893,-1.9332,-1.9169,-1.8855,0.0,0.0,0.0,0.0,0.0,0.0,0.0,0.0,0.0,0.0,0.0,0.0,0.0,0.0,0.0,0.0,0.0,0.0,0.0,0.0,0.0,0.0,0.0,0.0,0.0,-2.7544,-2.703,-2.6546,-2.6533,-2.6533,-2.6533,-2.7005,-2.7557,-2.8109,-2.8586,-2.9025,-2.9409,-2.8227,-2.7209,0.0,0.0,0.0,-2.4542,-2.4542,-2.4542,-2.4457,-2.3464,-2.3135,-2.3135,-2.3135,-2.3135,-2.3135,0.0,0.0,0.0,0.0,0.0,0.0,0.0,0.0,0.0,0.0,0.0,0.0,0.0,0.0,0.0,0.0,0.0,0.0,0.0,0.0,0.0,0.0,0.0,0.0,0.0,0.0,0.0,0.0,0.0,0.0,-2.1718,-2.2106,-2.231,-2.2282,0.0,0.0,-2.2265,-2.1753,-2.1589,-2.1622,-2.0443,0.0,0.0,0.0,0.0,0.0,0.0,0.0,0.0,-1.9557,-1.9747,-1.969,-1.969,0.0,0.0,0.0,0.0,0.0,-1.9479,-1.8893,-1.8263,-1.8341,-1.8612,-1.865,0.0,0.0,0.0,0.0,0.0,0.0,0.0,0.0,0.0,0.0,0.0,0.0,0.0,0.0,0.0,0.0,0.0,0.0,0.0,0.0,0.0,0.0,0.0,0.0,0.0,-2.7331,-2.703,-2.6546,-2.6533,-2.6533,-2.6533,-2.7005,-2.7557,-2.8109,-2.8185,-2.8039,-2.7675,-2.6473,-2.565,0.0,0.0,-2.3551,-2.3387,-2.3387,-2.3387,-2.3299,-2.3135,-2.3135,-2.3135,-2.3135,-2.3135,-2.3135,0.0,0.0,0.0,0.0,0.0,0.0,0.0,0.0,0.0,0.0,0.0,0.0,0.0,0.0,0.0,0.0,0.0,0.0,0.0,0.0,0.0,0.0,0.0,0.0,0.0,0.0,0.0,0.0,0.0,-2.1794,-2.1612,-2.1823,-2.1928,-2.1899,0.0,-2.1598,-2.1584,-2.1385,-2.1275,-2.1179,0.0,0.0,0.0,0.0,0.0,0.0,0.0,0.0,0.0,0.0,-1.969,-1.969,-1.969,0.0,0.0,0.0,0.0,0.0,-1.8855,-1.8496,-1.8027,-1.7747,-1.8302,-1.8688,0.0,0.0,0.0,0.0,0.0,0.0,0.0,0.0,0.0,0.0,0.0,0.0,0.0,0.0,0.0,0.0,0.0,0.0,0.0,0.0,0.0,0.0,0.0,0.0,0.0,0.0,-2.6251,-2.6,-2.5988,-2.6138,-2.6533,-2.6716,-2.7118,-2.7657,-2.7657,-2.7397,-2.6895,-2.5984,-2.5196,-2.4441,0.0,-2.3135,-2.3135,-2.3135,-2.3135,-2.3135,-2.3135,-2.3135,-2.3135,-2.3135,-2.3135,-2.3135,0.0,0.0,0.0,0.0,0.0,0.0,0.0,0.0,0.0,0.0,0.0,0.0,0.0,0.0,0.0,0.0,0.0,0.0,0.0,0.0,0.0,0.0,0.0,0.0,0.0,0.0,-2.146,-2.146,-2.146,-2.146,-2.146,-2.1228,-2.1259,0.0,0.0,-2.1181,-2.0991,-2.0894,-2.0829,-2.0766,0.0,0.0,0.0,0.0,0.0,0.0,0.0,0.0,0.0,0.0,0.0,0.0,0.0,0.0,0.0,-1.953,-1.9043,-1.8496,-1.8341,-1.8106,-1.7827,0.0,0.0,0.0,0.0,0.0,0.0,0.0,0.0,0.0,0.0,0.0,0.0,0.0,0.0,0.0,0.0,0.0,0.0,0.0,0.0,0.0,0.0,0.0,0.0,0.0,0.0,0.0,0.0,0.0,-2.5473,-2.5598,-2.5598,-2.5875,-2.6521,-2.6533,-2.6747,-2.7092,-2.6868,-2.6529,-2.6059,-2.5386,-2.4562,-2.3742,-2.3275,-2.3135,-2.3135,-2.3135,-2.3135,-2.3135,-2.3135,-2.3135,-2.3135,-2.3135,-2.3135,-2.3135,0.0,0.0,0.0,0.0,0.0,0.0,0.0,0.0,0.0,0.0,0.0,0.0,0.0,0.0,0.0,0.0,0.0,0.0,0.0,0.0,0.0,0.0,0.0,0.0,0.0,-2.1039,-2.1023,-2.1023,-2.1023,-2.1023,-2.1039,-2.0208,-2.0277,-2.1023,0.0,0.0,-2.0959,-2.055,-2.0348,-2.0252,-1.9216,0.0,0.0,0.0,0.0,0.0,0.0,0.0,0.0,0.0,0.0,0.0,0.0,0.0,-1.8968,-1.8968,-1.8224,-1.7626,-1.8574,-1.8145,-1.7463,-1.7947,0.0,0.0,0.0,0.0,0.0,0.0,0.0,0.0,0.0,0.0,0.0,0.0,0.0,0.0,0.0,0.0,0.0,0.0,0.0,0.0,0.0,0.0,0.0,0.0,0.0,0.0,0.0,0.0,0.0,-2.5573,-2.5598,-2.5875,-2.6521,-2.6533,-2.6546,-2.6515,-2.5572,-2.4891,-2.4332,-2.3709,-2.3145,-2.2614,-2.2949,-2.3135,-2.3135,-2.3135,-2.3135,-2.3135,-2.3135,-2.3135,-2.3135,-2.3135,-2.3135,-2.3135,0.0,0.0,0.0,0.0,0.0,0.0,0.0,0.0,0.0,0.0,0.0,0.0,0.0,0.0,0.0,0.0,0.0,0.0,0.0,0.0,0.0,0.0,0.0,-2.0174,-2.0174,-2.0431,-2.055,-2.055,-2.055,-2.055,-2.055,-2.0227,0.0,0.0,0.0,0.0,-2.0174,-2.0,-1.9945,-1.9879,-1.9476,-1.9076,0.0,0.0,0.0,0.0,0.0,0.0,0.0,0.0,-1.8817,-1.908,0.0,0.0,-1.8419,-1.8419,-1.7867,-1.7394,-1.7787,-1.7626,-1.7353,-1.7544,0.0,0.0,0.0,0.0,0.0,0.0,0.0,0.0,0.0,0.0,0.0,0.0,0.0,0.0,0.0,0.0,0.0,0.0,0.0,0.0,0.0,0.0,0.0,0.0,0.0,0.0,0.0,0.0,0.0,-2.5096,-2.5109,-2.5548,-2.6521,-2.6533,-2.6164,-2.5581,-2.5804,-2.5171,-2.3754,-2.4073,-2.3437,-2.2158,-2.2842,-2.3135,-2.3135,-2.3135,-2.3135,-2.3135,-2.3135,-2.3135,-2.3135,-2.3135,-2.3135,-2.3135,0.0,0.0,0.0,0.0,0.0,0.0,0.0,0.0,0.0,0.0,0.0,0.0,0.0,0.0,0.0,0.0,0.0,0.0,0.0,0.0,0.0,0.0,0.0,-1.9854,-1.969,-1.9965,-2.0124,-2.0124,-2.0124,-2.0124,-2.0124,0.0,0.0,0.0,0.0,0.0,0.0,-1.969,-1.969,-1.969,-1.969,-1.942,0.0,0.0,0.0,0.0,0.0,0.0,0.0,0.0,0.0,0.0,0.0,0.0,0.0,0.0,-1.7585,-1.7353,-1.7504,-1.7422,-1.7353,0.0,0.0,0.0,0.0,0.0,0.0,0.0,0.0,0.0,0.0,0.0,0.0,0.0,0.0,0.0,0.0,0.0,0.0,0.0,0.0,0.0,0.0,0.0,0.0,0.0,0.0,0.0,0.0,0.0,0.0,0.0,-2.4556,-2.5084,-2.6176,-2.6189,-2.584,-2.5004,-2.5734,-2.4981,-2.3032,-2.3619,-2.3122,-2.1934,-2.2773,-2.3135,-2.3135,-2.3135,-2.3135,-2.3135,-2.3135,-2.3135,-2.3135,-2.3135,-2.3135,-2.3135,0.0,0.0,0.0,0.0,0.0,0.0,0.0,0.0,0.0,0.0,0.0,0.0,0.0,0.0,0.0,0.0,0.0,0.0,0.0,0.0,0.0,0.0,0.0,-2.0089,-1.9726,-1.969,-1.969,-1.969,-1.969,-1.969,-1.969,-1.969,0.0,0.0,0.0,0.0,0.0,0.0,-1.969,-1.969,-1.969,-1.969,-1.9615,0.0,0.0,0.0,0.0,0.0,0.0,0.0,-1.757,0.0,0.0,0.0,0.0,0.0,-1.7312,-1.7435,-1.7947,-1.7706,0.0,0.0,0.0,0.0,0.0,0.0,0.0,0.0,0.0,0.0,0.0,0.0,0.0,0.0,0.0,0.0,0.0,0.0,0.0,0.0,0.0,0.0,0.0,0.0,0.0,0.0,0.0,0.0,0.0,0.0,0.0,0.0,-2.4004,-2.4506,-2.5573,-2.5586,-2.5388,-2.5004,-2.4992,-2.3963,-2.1983,-2.194,-2.1885,-2.1934,-2.2773,-2.3135,-2.3135,-2.3135,-2.3135,-2.3135,-2.3135,-2.3135,-2.3135,-2.3135,-2.3135,-2.3135,0.0,0.0,0.0,0.0,0.0,0.0,0.0,0.0,0.0,0.0,0.0,0.0,0.0,0.0,0.0,0.0,0.0,0.0,0.0,0.0,0.0,0.0,0.0,0.0,0.0,0.0,-1.969,-1.969,-1.969,-1.969,0.0,0.0,0.0,-1.969,0.0,0.0,0.0,0.0,-1.969,-1.969,-1.969,-1.969,-1.966,0.0,0.0,0.0,0.0,0.0,0.0,0.0,0.0,0.0,0.0,0.0,0.0,-1.6752,-1.6752,-1.6752,-1.6909,0.0,0.0,0.0,0.0,0.0,0.0,0.0,0.0,0.0,0.0,0.0,0.0,0.0,0.0,0.0,0.0,0.0,0.0,0.0,0.0,0.0,0.0,0.0,0.0,0.0,0.0,0.0,0.0,0.0,0.0,0.0,0.0,0.0,-2.4004,-2.4343,-2.5046,-2.5059,-2.4487,-2.3367,-2.3073,-2.2557,-2.1983,-2.2608,-2.2493,-2.1934,-2.2773,-2.3135,-2.3135,-2.3135,-2.3135,-2.3135,-2.3135,-2.3135,-2.3135,-2.3135,-2.3135,-2.3135,0.0,0.0,0.0,0.0,0.0,0.0,0.0,0.0,0.0,0.0,0.0,0.0,0.0,0.0,0.0,0.0,0.0,0.0,0.0,0.0,0.0,0.0,0.0,0.0,0.0,-1.969,-1.969,0.0,0.0,0.0,0.0,0.0,0.0,-1.969,0.0,-1.969,0.0,0.0,-1.969,-1.969,-1.969,-1.969,-1.969,0.0,0.0,0.0,0.0,0.0,0.0,0.0,0.0,0.0,0.0,0.0,0.0,-1.6752,-1.6951,-1.7146,-1.7146,0.0,0.0,0.0,0.0,0.0,0.0,0.0,0.0,0.0,0.0,0.0,0.0,0.0,0.0,0.0,0.0,0.0,0.0,0.0,0.0,0.0,0.0,0.0,0.0,0.0,0.0,0.0,0.0,0.0,0.0,0.0,0.0,0.0,-2.354,-2.3916,-2.4494,-2.4494,-2.3796,-2.2414,-2.2112,-2.1674,-2.1196,-2.192,-2.198,-2.168,-2.2519,-2.2988,-2.3135,-2.3135,-2.3135,-2.3135,-2.3135,-2.3135,-2.3135,-2.3135,-2.3135,-2.3135,0.0,0.0,0.0,0.0,0.0,0.0,0.0,0.0,0.0,0.0,0.0,0.0,0.0,0.0,0.0,0.0,0.0,0.0,0.0,0.0,0.0,0.0,0.0,0.0,0.0,0.0,0.0,0.0,0.0,0.0,0.0,0.0,-1.9639,-1.969,0.0,-1.9639,0.0,-1.969,-1.969,-1.969,-1.969,-1.969,-1.969,-1.969,0.0,0.0,0.0,0.0,0.0,0.0,0.0,0.0,0.0,0.0,0.0,-1.7076,-1.7626,-1.8027,0.0,0.0,0.0,0.0,0.0,0.0,0.0,0.0,0.0,0.0,0.0,0.0,0.0,0.0,0.0,0.0,0.0,0.0,0.0,0.0,0.0,0.0,0.0,0.0,0.0,0.0,0.0,0.0,0.0,0.0,0.0,0.0,0.0,-2.2234,-2.2774,-2.3314,-2.3841,-2.3891,-2.324,0.0,-2.1855,-2.1165,-1.9932,-2.0361,-2.083,-2.1338,-2.2158,-2.2734,-2.3086,-2.3125,-2.3135,-2.3135,-2.3135,-2.3135,-2.3135,-2.3135,-2.3135,-2.3135,0.0,0.0,0.0,0.0,0.0,0.0,0.0,0.0,0.0,0.0,0.0,0.0,0.0,0.0,0.0,0.0,0.0,0.0,0.0,0.0,0.0,0.0,0.0,0.0,0.0,0.0,0.0,0.0,0.0,0.0,0.0,0.0,0.0,-1.969,0.0,-1.9332,-1.969,-1.969,-1.969,-1.969,-1.969,-1.969,-1.969,-1.969,-1.969,0.0,0.0,0.0,0.0,0.0,0.0,0.0,-1.668,-1.6522,-1.6522,-1.6637,-1.7034,-1.7394,0.0,0.0,0.0,0.0,0.0,0.0,0.0,0.0,0.0,0.0,0.0,0.0,0.0,0.0,0.0,0.0,0.0,0.0,0.0,0.0,0.0,0.0,0.0,0.0,0.0,0.0,0.0,0.0,0.0,0.0,0.0,0.0,0.0,-2.1669,-2.2196,-2.2548,-2.2673,-2.31,-2.2684,0.0,-2.1083,-2.0546,-1.9932,-2.0361,-2.0996,-2.1777,-2.2285,-2.2568,-2.2676,-2.2998,-2.3135,-2.3135,-2.3135,-2.3135,-2.3135,-2.3135,-2.3135,-2.3135,0.0,0.0,0.0,0.0,0.0,0.0,0.0,0.0,0.0,0.0,0.0,0.0,0.0,0.0,0.0,0.0,0.0,0.0,0.0,0.0,0.0,0.0,0.0,0.0,0.0,0.0,0.0,0.0,0.0,0.0,0.0,0.0,0.0,-1.969,0.0,-1.9207,-1.969,-1.969,-1.969,-1.969,-1.969,-1.969,-1.969,-1.969,-1.969,-1.969,-1.9406,0.0,0.0,0.0,0.0,0.0,0.0,0.0,-1.6552,-1.6795,-1.7076,-1.7229,0.0,0.0,0.0,0.0,0.0,0.0,0.0,0.0,0.0,0.0,0.0,0.0,0.0,0.0,0.0,0.0,0.0,0.0,0.0,0.0,0.0,0.0,0.0,0.0,0.0,0.0,0.0,0.0,0.0,0.0,0.0,-2.0941,-2.1091,-2.1091,-2.1631,-2.192,-2.192,-2.2196,-2.1741,-2.0462,-2.0281,-1.9828,-1.9336,-2.0176,-2.0937,-2.1582,-2.1807,-2.2129,-2.2529,-2.2744,-2.2959,-2.3135,-2.3135,-2.3135,-2.3135,-2.3135,-2.3135,-2.3135,0.0,0.0,0.0,0.0,0.0,0.0,0.0,0.0,0.0,0.0,0.0,0.0,0.0,0.0,0.0,0.0,0.0,0.0,0.0,0.0,0.0,0.0,0.0,0.0,0.0,0.0,0.0,0.0,0.0,0.0,0.0,0.0,0.0,-1.953,0.0,0.0,-1.969,-1.969,-1.969,-1.969,-1.969,-1.969,-1.969,-1.969,-1.969,-1.9639,-1.9207,-1.8968,-1.8727,-1.7787,0.0,0.0,0.0,0.0,-1.6595,-1.7034,-1.7229,-1.7271,0.0,0.0,0.0,0.0,0.0,0.0,0.0,0.0,0.0,0.0,0.0,0.0,0.0,0.0,0.0,0.0,0.0,0.0,0.0,0.0,0.0,0.0,0.0,0.0,0.0,0.0,0.0,0.0,0.0,0.0,-1.9798,-2.0263,-2.0514,-2.0514,-2.1054,-2.1343,-2.1343,-2.1443,-2.087,-1.9582,-1.9438,-1.9152,-1.8601,-1.9893,-2.0654,-2.1016,-2.1162,-2.1641,-2.2295,-2.2373,-2.2646,-2.3027,-2.3027,-2.3076,-2.3135,-2.3135,-2.3135,-2.3135,0.0,0.0,0.0,0.0,0.0,0.0,0.0,0.0,0.0,0.0,0.0,0.0,0.0,0.0,0.0,0.0,0.0,0.0,-1.9834,0.0,0.0,-1.969,-1.9244,0.0,0.0,0.0,0.0,0.0,0.0,0.0,0.0,0.0,0.0,-1.8968,0.0,0.0,0.0,-1.969,-1.969,-1.969,-1.969,-1.969,-1.969,-1.969,-1.969,-1.969,-1.9603,-1.9281,-1.8817,-1.8224,-1.7666,0.0,0.0,0.0,-1.6522,-1.6595,-1.6951,0.0,0.0,0.0,0.0,0.0,0.0,0.0,0.0,0.0,0.0,0.0,0.0,0.0,0.0,0.0,0.0,0.0,0.0,0.0,0.0,0.0,0.0,0.0,0.0,0.0,0.0,0.0,0.0,0.0,0.0,0.0,-1.9798,-1.9874,-1.9911,-1.9911,-2.0476,-2.0832,-2.0832,-2.1255,-2.0746,-1.9153,-1.8503,-1.837,-1.8592,-1.958,-2.0039,-2.0137,-2.0898,-2.1299,-2.1435,-2.1816,-2.2217,-2.2598,-2.2598,-2.2822,-2.3135,-2.3135,-2.3135,-2.3135,0.0,0.0,0.0,0.0,0.0,0.0,0.0,0.0,0.0,0.0,0.0,0.0,0.0,0.0,0.0,-2.1023,-2.0764,-2.0196,-1.9273,-1.8712,-1.8688,-1.9244,-1.8727,-1.8574,0.0,0.0,0.0,0.0,0.0,0.0,0.0,-1.7827,-1.8224,0.0,0.0,0.0,0.0,0.0,0.0,-1.969,-1.969,-1.969,-1.969,-1.969,-1.969,-1.969,-1.969,-1.9169,-1.8458,-1.8535,-1.7787,-1.6879,-1.6909,0.0,0.0,0.0,-1.668,0.0,0.0,0.0,0.0,0.0,0.0,0.0,0.0,0.0,0.0,0.0,0.0,0.0,0.0,0.0,0.0,0.0,0.0,0.0,0.0,0.0,0.0,0.0,0.0,0.0,0.0,0.0,0.0,0.0,0.0,-1.9798,-1.9798,-1.9798,-1.9798,-1.9798,-2.0049,-2.0188,-2.0188,-2.0426,-2.0048,-1.8992,-1.8104,-1.7881,-1.8301,-1.8916,-1.9463,-1.9951,-2.0586,-2.0996,-2.125,-2.1445,-2.1777,-2.2187,-2.2422,-2.2627,-2.2812,-2.3057,-2.3135,-2.3135,0.0,0.0,0.0,0.0,0.0,0.0,0.0,0.0,0.0,0.0,0.0,0.0,0.0,0.0,0.0,0.0,-2.0449,-1.9884,-1.8968,-1.8263,-1.8145,-1.865,-1.8185,-1.8066,-1.8496,0.0,0.0,0.0,0.0,0.0,-1.671,-1.7504,-1.7827,0.0,-1.7544,0.0,0.0,0.0,0.0,0.0,-1.969,-1.969,-1.969,-1.969,-1.969,-1.969,-1.969,-1.9207,-1.8535,-1.865,-1.7907,-1.6909,-1.7076,-1.6837,0.0,0.0,0.0,0.0,0.0,0.0,0.0,0.0,0.0,0.0,0.0,0.0,0.0,0.0,0.0,0.0,0.0,0.0,0.0,0.0,0.0,0.0,0.0,0.0,0.0,0.0,0.0,0.0,0.0,0.0,0.0,0.0,0.0,-1.9798,-1.9798,-1.9798,-1.9798,-1.9798,-1.9798,-1.9798,-1.9798,-1.9423,-1.9003,-1.8447,-1.761,-1.7441,-1.7871,-1.8398,-1.8984,-1.9609,-2.0049,-2.0557,-2.1055,-2.0947,-2.1221,-2.1758,-2.2187,-2.2412,-2.2568,-2.2988,-2.3135,-2.3135,0.0,0.0,0.0,0.0,0.0,0.0,0.0,0.0,0.0,0.0,0.0,0.0,0.0,-2.0715,-2.0665,-1.9854,-2.0089,-1.9884,-1.8968,-1.7907,-1.7585,-1.8145,-1.7626,0.0,-1.7394,0.0,0.0,0.0,0.0,0.0,-1.7271,-1.7312,-1.7076,-1.6637,-1.7626,-1.838,-1.8893,0.0,0.0,0.0,0.0,0.0,0.0,0.0,0.0,0.0,0.0,0.0,-1.9479,-1.8496,-1.8106,-1.7827,-1.6837,-1.6522,-1.6522,0.0,0.0,0.0,0.0,0.0,0.0,0.0,0.0,0.0,0.0,0.0,0.0,0.0,0.0,0.0,0.0,0.0,0.0,0.0,0.0,0.0,0.0,0.0,0.0,0.0,0.0,0.0,0.0,0.0,0.0,0.0,0.0,-1.9798,-1.9798,-1.9798,-1.9798,-1.9798,-1.9798,-1.9798,-1.9798,-1.8394,-1.7566,-1.7284,-1.6917,-1.6992,-1.7451,-1.8262,-1.8592,-1.866,-1.916,-1.9824,-2.0566,-2.0156,-2.0488,-2.1309,-2.1748,-2.2158,-2.2568,-2.2988,-2.3135,-2.3135,0.0,0.0,0.0,0.0,0.0,0.0,0.0,0.0,0.0,0.0,0.0,0.0,0.0,-1.9758,-1.9528,-1.9207,-1.8698,-1.8221,-1.7907,-1.7188,-1.7034,-1.7544,-1.7076,-1.6951,-1.7312,0.0,0.0,0.0,0.0,-1.6795,-1.6795,-1.7146,-1.6993,-1.6522,-1.7271,-1.7706,-1.7907,-1.8612,0.0,0.0,0.0,0.0,0.0,0.0,0.0,0.0,0.0,0.0,0.0,-1.9132,-1.8458,-1.7585,-1.7544,-1.7034,-1.6522,-1.6522,-1.6522,-1.6522,-1.6522,0.0,0.0,0.0,0.0,0.0,0.0,0.0,0.0,0.0,0.0,0.0,0.0,0.0,0.0,0.0,0.0,0.0,0.0,0.0,0.0,0.0,0.0,0.0,0.0,0.0,0.0,0.0,0.0,0.0,-1.9798,-1.9798,-1.9798,-1.9798,-1.9798,-1.9579,-1.9097,-1.8124,-1.7442,-1.7193,-1.6587,-1.6689,-1.7393,-1.7695,-1.8125,-1.8562,-1.8516,-1.9102,-2.0137,-1.998,-2.0264,-2.085,-2.1289,-2.1562,-2.1748,-2.2178,-2.2334,-2.2334,0.0,0.0,0.0,0.0,0.0,0.0,0.0,0.0,0.0,0.0,0.0,0.0,0.0,0.0,-1.8612,-1.8612,-1.7827,-1.7312,-1.7312,-1.6795,-1.668,-1.7034,-1.668,-1.668,-1.7034,0.0,0.0,0.0,0.0,0.0,0.0,0.0,-1.6837,-1.6522,-1.7076,-1.7312,0.0,0.0,0.0,-1.8968,0.0,0.0,-1.969,0.0,0.0,0.0,0.0,0.0,0.0,0.0,0.0,0.0,-1.7827,-1.7229,-1.6522,-1.6522,-1.6522,-1.6522,-1.6522,0.0,0.0,0.0,0.0,0.0,0.0,0.0,0.0,0.0,0.0,0.0,0.0,0.0,0.0,0.0,0.0,0.0,0.0,0.0,0.0,0.0,0.0,0.0,0.0,0.0,0.0,0.0,0.0,0.0,-1.9798,-1.9798,-1.9695,-1.9423,-1.9423,-1.898,-1.795,-1.7468,-1.7027,-1.6601,-1.6287,-1.6367,-1.6943,-1.71,-1.7549,-1.8193,-1.792,-1.8525,-1.9707,-1.9707,-1.9961,-2.041,-2.1006,-2.123,-2.1289,-2.1728,-2.1982,-2.21,0.0,0.0,0.0,0.0,0.0,0.0,0.0,0.0,0.0,0.0,0.0,0.0,0.0,0.0,0.0,-1.8066,-1.7585,-1.7271,-1.7271,-1.6795,-1.6522,-1.6522,-1.6522,-1.6522,-1.6522,0.0,0.0,0.0,0.0,0.0,0.0,0.0,-1.6522,0.0,-1.7034,-1.7271,-1.7312,0.0,-1.8419,-1.8893,0.0,-1.969,-1.969,0.0,0.0,0.0,-1.969,-1.969,0.0,0.0,0.0,0.0,0.0,0.0,-1.6522,-1.6522,-1.6522,-1.6522,0.0,0.0,0.0,0.0,0.0,0.0,0.0,0.0,0.0,0.0,0.0,0.0,0.0,0.0,0.0,0.0,0.0,0.0,0.0,0.0,0.0,0.0,0.0,0.0,0.0,0.0,0.0,0.0,0.0,-1.9798,-1.9798,-1.9798,-1.9423,-1.8715,-1.8661,-1.795,-1.6482,-1.6492,-1.6151,-1.542,-1.584,-1.6115,-1.6135,-1.6514,-1.6953,-1.7383,-1.7383,-1.8096,-1.9248,-1.9268,-1.9521,-2.0,-2.0859,-2.1201,-2.1269,-2.1689,-2.2109,-2.2451,0.0,0.0,0.0,0.0,0.0,0.0,0.0,0.0,0.0,0.0,0.0,0.0,0.0,0.0,-1.7394,-1.6993,-1.6795,-1.671,-1.671,-1.6595,-1.6522,-1.6522,-1.6522,-1.6522,0.0,0.0,0.0,0.0,0.0,0.0,0.0,0.0,0.0,0.0,-1.668,-1.671,-1.6795,-1.8145,0.0,0.0,-1.9169,-1.9479,0.0,0.0,0.0,0.0,0.0,-1.969,0.0,0.0,-1.865,-1.8145,0.0,0.0,0.0,-1.6522,-1.6522,-1.6522,-1.6522,0.0,0.0,0.0,0.0,0.0,0.0,0.0,0.0,0.0,0.0,0.0,0.0,0.0,0.0,0.0,0.0,0.0,0.0,0.0,0.0,0.0,0.0,0.0,0.0,0.0,0.0,0.0,-1.9798,-1.9798,-1.9798,-1.9307,-1.8927,-1.8715,-1.8178,-1.7468,-1.6482,-1.6492,-1.6151,-1.541,-1.5537,-1.5752,-1.6125,-1.6191,-1.666,-1.7383,-1.7383,-1.7754,-1.8389,-1.8691,-1.9248,-1.9932,-2.0185,-2.0469,-2.0762,-2.0889,-2.1006,-2.1103,0.0,0.0,0.0,0.0,0.0,0.0,0.0,0.0,0.0,0.0,0.0,0.0,0.0,0.0,0.0,-1.6522,-1.6522,-1.6522,-1.6522,-1.6522,-1.6522,-1.6522,-1.6522,-1.6522,0.0,0.0,0.0,0.0,0.0,0.0,0.0,0.0,0.0,0.0,0.0,0.0,0.0,0.0,0.0,0.0,-1.8817,0.0,0.0,-1.9479,-1.969,0.0,0.0,0.0,-1.9281,-1.8727,-1.8224,0.0,0.0,0.0,0.0,0.0,0.0,-1.6522,0.0,0.0,0.0,0.0,0.0,0.0,-1.6522,-1.6522,0.0,0.0,0.0,0.0,0.0,0.0,0.0,0.0,0.0,0.0,0.0,0.0,0.0,0.0,0.0,0.0,0.0,0.0,0.0,-1.9798,-1.9798,-1.9695,-1.9371,-1.8927,-1.8447,-1.7786,-1.7357,-1.681,-1.6036,-1.6036,-1.5806,-1.541,-1.541,-1.5547,-1.5791,-1.5791,-1.6269,-1.7109,-1.7109,-1.7451,-1.8027,-1.8271,-1.8877,-1.9668,-1.9844,-2.0185,-2.0566,-2.0566,-2.0684,-2.084,0.0,0.0,0.0,0.0,0.0,0.0,0.0,0.0,0.0,0.0,0.0,0.0,0.0,0.0,0.0,0.0,-1.638,-1.638,-1.6293,-1.638,-1.638,-1.638,-1.6466,-1.6522,0.0,0.0,0.0,0.0,0.0,0.0,0.0,0.0,0.0,0.0,0.0,0.0,0.0,0.0,0.0,-1.7312,-1.8458,-1.8855,0.0,0.0,-1.969,0.0,-1.9095,-1.8893,-1.8817,-1.8293,-1.7773,0.0,0.0,0.0,0.0,0.0,-1.6522,0.0,0.0,0.0,0.0,0.0,0.0,0.0,-1.6466,-1.6466,-1.5874,0.0,0.0,0.0,0.0,0.0,0.0,0.0,0.0,0.0,0.0,0.0,0.0,0.0,0.0,0.0,0.0,-1.9447,-1.9748,-1.9798,-1.9798,-1.9475,-1.8715,-1.8608,-1.795,-1.6539,-1.6436,-1.6036,-1.541,-1.541,-1.541,-1.541,-1.541,-1.541,-1.541,-1.541,-1.5898,-1.6665,-1.6665,-1.7217,-1.8008,-1.8008,-1.8516,-1.9326,-1.9697,-2.0137,-2.0566,-2.0566,-2.082,-2.1162,-1.8468,0.0,0.0,0.0,0.0,0.0,0.0,0.0,0.0,0.0,0.0,0.0,0.0,0.0,0.0,0.0,-1.5776,-1.5555,-1.5062,-1.5511,-1.5776,-1.5776,-1.6238,-1.6522,-1.6522,0.0,0.0,0.0,0.0,0.0,0.0,0.0,0.0,0.0,0.0,0.0,0.0,0.0,0.0,-1.6795,-1.8302,0.0,-1.838,-1.9332,-1.969,-1.9639,-1.9095,-1.8893,-1.8812,0.0,-1.8091,-1.7974,0.0,0.0,0.0,0.0,0.0,0.0,0.0,0.0,0.0,0.0,0.0,0.0,-1.638,-1.6139,-1.5799,0.0,0.0,0.0,0.0,0.0,0.0,0.0,0.0,0.0,0.0,0.0,0.0,0.0,0.0,0.0,0.0,-1.9071,-1.9359,-1.9773,-1.9798,-1.9475,-1.8715,-1.8124,-1.7413,-1.6549,-1.5921,-1.5526,-1.541,-1.541,-1.541,-1.541,-1.541,-1.541,-1.541,-1.541,-1.5898,-1.6665,-1.6665,-1.7217,-1.8008,-1.8008,-1.8516,-1.9297,-1.9375,-1.9883,-2.0566,-2.0566,-2.0625,-2.0693,-1.7747,0.0,0.0,0.0,0.0,0.0,0.0,0.0,0.0,0.0,0.0,0.0,0.0,0.0,0.0,0.0,0.0,0.0,0.0,0.0,0.0,-1.6051,-1.6337,-1.6522,-1.6522,-1.6522,0.0,0.0,0.0,0.0,0.0,0.0,0.0,0.0,0.0,0.0,0.0,0.0,-1.6685,-1.7011,-1.7787,0.0,-1.7854,-1.9253,-1.9424,-1.8898,-1.8967,-1.8642,-1.8136,-1.787,-1.7956,0.0,0.0,-1.779,-1.7739,0.0,-1.7363,-1.73,0.0,0.0,0.0,-1.656,0.0,0.0,0.0,-1.5599,-1.4896,0.0,0.0,0.0,0.0,0.0,0.0,0.0,0.0,0.0,0.0,0.0,0.0,0.0,0.0,0.0,0.0,-1.8869,-1.9083,-1.9218,-1.9254,-1.8768,-1.7688,-1.7246,-1.6698,-1.5979,-1.5584,-1.541,-1.541,-1.541,-1.541,-1.541,-1.541,-1.541,-1.542,-1.5635,-1.6103,-1.6685,-1.6963,-1.7422,-1.8027,-1.8242,-1.8701,-1.9287,-1.9287,-1.9814,-2.0566,-2.0566,-2.0566,-2.0566,-1.7146,0.0,0.0,0.0,0.0,0.0,0.0,0.0,0.0,0.0,0.0,0.0,0.0,0.0,0.0,0.0,0.0,0.0,0.0,0.0,0.0,0.0,-1.6423,-1.6522,-1.6522,-1.6522,0.0,0.0,0.0,0.0,0.0,0.0,0.0,0.0,0.0,0.0,0.0,0.0,0.0,-1.7395,0.0,-1.7463,-1.7661,-1.9137,-1.9061,-1.8175,-1.8755,-1.8385,-1.7702,-1.7702,0.0,-1.8493,-1.8392,-1.8355,0.0,0.0,0.0,0.0,0.0,0.0,0.0,0.0,0.0,-1.5362,0.0,0.0,0.0,0.0,0.0,0.0,0.0,0.0,0.0,0.0,0.0,0.0,0.0,0.0,0.0,0.0,0.0,0.0,0.0,-1.8326,-1.8666,-1.8679,-1.8555,-1.7907,-1.6539,-1.6492,-1.6151,-1.541,-1.541,-1.541,-1.541,-1.541,-1.541,-1.541,-1.541,-1.541,-1.542,-1.5781,-1.6221,-1.6748,-1.7109,-1.7549,-1.8037,-1.8379,-1.8818,-1.9297,-1.9375,-1.9883,-2.0566,-2.0566,-2.0566,-2.0566,-1.6595,-1.6552,0.0,0.0,0.0,0.0,0.0,0.0,0.0,0.0,0.0,0.0,0.0,0.0,0.0,0.0,0.0,0.0,-1.4039,0.0,0.0,0.0,0.0,0.0,-1.6522,-1.6522,-1.6522,0.0,0.0,0.0,0.0,0.0,0.0,0.0,-1.6522,0.0,0.0,0.0,-1.7325,0.0,-1.7932,-1.81,0.0,-1.8781,-1.8631,-1.8109,-1.824,-1.852,-1.8844,0.0,-1.9183,-1.9547,0.0,-1.8883,-1.8844,0.0,0.0,0.0,0.0,0.0,0.0,0.0,-1.624,0.0,0.0,0.0,0.0,0.0,0.0,0.0,0.0,0.0,0.0,0.0,0.0,0.0,0.0,0.0,0.0,0.0,0.0,0.0,0.0,0.0,-1.7647,-1.8626,-1.8112,-1.7357,-1.6539,-1.6492,-1.6151,-1.541,-1.541,-1.541,-1.541,-1.541,-1.541,-1.541,-1.541,-1.541,-1.541,-1.5469,-1.5937,-1.6665,-1.6787,-1.7266,-1.8018,-1.8057,-1.8555,-1.9326,-1.9697,-2.0137,-2.0566,-2.0566,-2.0566,-2.0566,-1.6423,0.0,0.0,0.0,0.0,0.0,0.0,0.0,0.0,0.0,0.0,0.0,0.0,0.0,0.0,0.0,0.0,-1.3695,0.0,0.0,0.0,0.0,0.0,0.0,0.0,-1.6522,-1.6522,-1.6522,-1.6522,0.0,0.0,0.0,0.0,0.0,-1.7024,0.0,-1.7513,0.0,0.0,0.0,0.0,0.0,0.0,-1.8937,-1.8906,-1.8591,-1.7943,-1.8266,-1.8983,0.0,-1.9371,0.0,0.0,0.0,0.0,0.0,0.0,0.0,0.0,0.0,0.0,0.0,0.0,0.0,-1.4468,0.0,-1.3334,0.0,0.0,0.0,0.0,0.0,0.0,0.0,0.0,0.0,0.0,0.0,0.0,0.0,0.0,0.0,0.0,0.0,0.0,0.0,0.0,-1.6401,-1.5901,-1.5864,-1.57,-1.541,-1.541,-1.541,-1.541,-1.541,-1.541,-1.541,-1.541,-1.5537,-1.5791,-1.6055,-1.6514,-1.7119,-1.7363,-1.7676,-1.8027,-1.8271,-1.8584,-1.8975,-1.9648,-2.0185,-2.0566,-2.0566,-2.0566,-2.0566,-1.592,0.0,0.0,0.0,0.0,0.0,0.0,0.0,0.0,0.0,0.0,0.0,-1.3152,-1.3017,0.0,0.0,0.0,-1.3324,0.0,0.0,-1.4457,0.0,0.0,0.0,0.0,0.0,-1.602,-1.602,0.0,0.0,0.0,0.0,0.0,0.0,0.0,-1.7601,-1.8003,0.0,0.0,-1.8983,-1.9183,-1.907,-1.878,-1.8688,-1.8728,-1.8728,-1.7911,-1.8304,-1.9246,-1.9246,-1.9497,0.0,-1.9798,0.0,0.0,0.0,0.0,0.0,-1.7903,0.0,0.0,0.0,0.0,0.0,0.0,0.0,0.0,0.0,0.0,0.0,0.0,0.0,0.0,0.0,0.0,0.0,0.0,0.0,0.0,0.0,0.0,0.0,0.0,0.0,0.0,-1.5891,-1.5727,-1.5548,-1.5391,-1.541,-1.541,-1.541,-1.541,-1.541,-1.541,-1.5527,-1.5586,-1.5586,-1.5713,-1.5937,-1.626,-1.6582,-1.6834,-1.7044,-1.7273,-1.7474,-1.7666,-1.7894,-1.8235,-1.8711,-1.9453,-2.001,-2.04,-2.0518,-2.0566,-2.0566,-1.4744,-1.4744,0.0,0.0,0.0,0.0,0.0,0.0,0.0,0.0,0.0,0.0,0.0,0.0,0.0,0.0,0.0,-1.3779,-1.3815,0.0,-1.4709,0.0,0.0,-1.4744,0.0,0.0,0.0,0.0,0.0,0.0,0.0,0.0,0.0,0.0,0.0,-1.7388,-1.7476,-1.8543,-1.8958,-1.907,-1.9572,-1.9158,-1.8179,0.0,-1.7785,-1.8204,-1.8191,0.0,0.0,-1.9773,-1.9786,0.0,0.0,0.0,0.0,0.0,0.0,0.0,0.0,0.0,0.0,-1.6695,0.0,0.0,0.0,0.0,-1.3857,0.0,0.0,0.0,0.0,0.0,0.0,0.0,0.0,0.0,0.0,0.0,0.0,0.0,0.0,0.0,0.0,0.0,0.0,-1.5762,-1.5255,-1.5017,-1.5391,-1.541,-1.541,-1.541,-1.541,-1.541,-1.541,-1.583,-1.6105,-1.6105,-1.6484,-1.6699,-1.6709,-1.6665,-1.6419,-1.5963,-1.5981,-1.6206,-1.6636,-1.6655,-1.746,-1.8682,-1.9131,-1.957,-1.999,-2.041,-2.0566,-2.0566,0.0,0.0,0.0,0.0,0.0,0.0,0.0,-1.3254,0.0,0.0,0.0,0.0,0.0,0.0,-1.3391,0.0,0.0,-1.319,-1.319,-1.3789,0.0,0.0,0.0,-1.488,0.0,0.0,0.0,0.0,0.0,0.0,0.0,0.0,0.0,0.0,0.0,-1.8129,0.0,0.0,0.0,0.0,0.0,-1.9371,-1.8643,0.0,0.0,-1.8254,-1.8618,-1.9208,0.0,-1.9798,-1.9798,-1.9798,-1.9798,-1.9798,-1.9736,-1.9384,-1.9409,0.0,0.0,0.0,-1.8037,-1.6482,0.0,0.0,0.0,0.0,0.0,0.0,0.0,0.0,0.0,0.0,0.0,0.0,0.0,0.0,0.0,0.0,0.0,0.0,0.0,0.0,0.0,0.0,0.0,-1.4242,-1.435,-1.4541,0.0,-1.5264,-1.541,-1.541,-1.541,-1.541,-1.541,-1.5557,-1.5781,-1.6125,-1.6221,-1.6602,-1.7168,-1.7168,-1.6902,-1.636,-1.636,-1.6095,-1.5649,-1.5649,-1.6298,-1.7339,-1.8108,-1.8851,-1.959,-2.0303,-2.0566,-2.0566,-1.3457,0.0,0.0,0.0,0.0,0.0,0.0,0.0,0.0,0.0,-1.4199,0.0,-1.4365,0.0,-1.3672,0.0,-1.3262,-1.3037,-1.2891,-1.3238,0.0,-1.4014,-1.4294,0.0,0.0,0.0,0.0,0.0,0.0,-1.6478,0.0,0.0,0.0,0.0,0.0,0.0,0.0,0.0,-1.9798,0.0,0.0,-1.8943,0.0,0.0,-1.7569,-1.8118,0.0,-1.8763,-1.9044,-1.9044,-1.9202,-1.9423,-1.9423,-1.9423,-1.9414,-1.9296,-1.9165,-1.8855,-1.8037,-1.7871,0.0,-1.6095,-1.57,0.0,-1.4562,0.0,0.0,0.0,0.0,0.0,0.0,0.0,0.0,0.0,0.0,0.0,0.0,-1.2881,0.0,0.0,0.0,0.0,0.0,0.0,-1.3057,-1.3477,-1.3896,-1.4326,0.0,0.0,-1.541,-1.541,-1.541,-1.541,-1.541,-1.5405,-1.551,-1.5847,-1.5815,-1.6038,-1.6631,-1.6631,-1.6204,-1.5579,-1.5579,-1.5226,-1.4665,-1.4665,-1.53,-1.6333,-1.6981,-1.8006,-1.906,-2.0226,-2.0566,-2.0566,0.0,0.0,0.0,0.0,-1.291,0.0,0.0,0.0,-1.4287,0.0,-1.4805,-1.4814,-1.4814,-1.4424,-1.4004,-1.3603,-1.3555,0.0,-1.2939,-1.2959,0.0,0.0,-1.3525,-1.3536,-1.3008,0.0,0.0,0.0,0.0,0.0,0.0,0.0,0.0,0.0,-1.7823,0.0,-1.7966,-1.9241,-1.9747,-1.9645,-1.8437,-1.7926,-1.7812,-1.7096,-1.7242,-1.7824,-1.7875,-1.7762,-1.7578,-1.7578,-1.807,-1.8661,-1.8661,-1.8661,-1.8768,-1.9475,-1.8715,-1.7578,-1.7578,-1.709,-1.6368,-1.5642,0.0,0.0,0.0,0.0,-1.5176,0.0,0.0,0.0,0.0,0.0,0.0,0.0,0.0,0.0,0.0,0.0,0.0,0.0,0.0,0.0,0.0,-1.2881,-1.3047,-1.3447,-1.3887,0.0,0.0,0.0,-1.541,-1.541,-1.541,-1.5352,-1.5352,-1.5284,-1.5239,-1.5265,-1.5206,-1.5217,-1.5234,-1.5234,-1.4665,-1.3673,-1.3673,-1.3673,-1.36,-1.36,-1.4363,-1.5585,-1.5937,-1.7005,-1.8434,-1.9936,-2.0489,-2.0489,-1.3281,-1.3603,-1.3818,0.0,-1.3301,-1.3027,0.0,0.0,0.0,0.0,-1.5059,-1.5254,-1.5254,-1.4873,-1.457,-1.4463,-1.416,0.0,0.0,0.0,0.0,-1.3563,-1.3997,-1.4174,-1.4037,-1.5214,0.0,-1.4272,0.0,0.0,-1.5713,0.0,0.0,0.0,0.0,0.0,-1.7966,-1.8658,-1.898,-1.8967,-1.8625,-1.8195,0.0,0.0,-1.717,-1.6906,-1.7497,-1.763,-1.7578,-1.7578,-1.7743,-1.7895,-1.7895,-1.7895,-1.7907,-1.8124,-1.7895,-1.7578,-1.7578,-1.7468,-1.7135,-1.6425,-1.6208,-1.6063,0.0,0.0,0.0,0.0,0.0,0.0,0.0,0.0,0.0,0.0,0.0,0.0,0.0,0.0,0.0,0.0,0.0,0.0,-1.2939,-1.2881,-1.293,-1.3037,-1.3721,0.0,0.0,0.0,0.0,-1.541,-1.541,-1.5108,-1.451,-1.4771,-1.4716,-1.4419,-1.4612,-1.4829,-1.5234,-1.5234,-1.4665,-1.3673,-1.3673,-1.331,-1.2666,-1.2666,-1.3424,-1.4636,-1.4965,-1.6164,-1.7692,-1.8912,-1.9441,-1.9441,-1.3657,0.0,0.0,-1.4136,0.0,0.0,-1.4307,0.0,0.0,-1.5264,-1.5381,0.0,-1.541,-1.5205,-1.4912,-1.4531,-1.4277,0.0,0.0,0.0,0.0,-1.3667,-1.4128,-1.4252,-1.4023,-1.5007,0.0,-1.4146,0.0,0.0,-1.5474,0.0,0.0,0.0,0.0,-1.6815,0.0,-1.7943,-1.8232,-1.8167,-1.7852,0.0,0.0,-1.6743,-1.6358,-1.6093,-1.6472,-1.6631,-1.6631,-1.6631,-1.6856,-1.7146,-1.7146,-1.7146,-1.7191,-1.7523,-1.7135,-1.6687,-1.7034,-1.6856,-1.6528,-1.614,-1.6036,-1.5921,-1.5468,-1.541,-1.541,0.0,0.0,0.0,0.0,0.0,0.0,0.0,0.0,0.0,0.0,0.0,0.0,0.0,-1.4077,0.0,-1.3006,-1.3051,-1.3232,-1.3418,0.0,0.0,0.0,0.0,0.0,-1.4874,-1.5043,-1.4708,-1.3847,-1.3953,-1.3858,-1.3656,-1.3576,-1.3693,-1.3947,-1.3947,-1.3593,-1.3098,-1.3098,-1.2806,-1.2311,-1.2445,-1.3044,-1.3831,-1.4813,-1.5456,-1.6041,-1.7172,-1.8141,-1.9063,0.0,0.0,0.0,0.0,0.0,0.0,0.0,-1.5225,0.0,-1.5949,0.0,-1.5478,-1.542,-1.541,-1.5088,-1.4287,0.0,-1.3867,-1.3018,-1.3301,-1.3506,-1.3506,-1.4023,-1.4134,-1.3672,-1.4446,0.0,0.0,0.0,0.0,0.0,0.0,0.0,0.0,0.0,0.0,0.0,-1.7302,-1.7523,0.0,-1.6765,-1.6436,-1.6265,-1.5633,-1.541,-1.541,-1.541,-1.541,-1.541,-1.541,-1.5806,-1.6379,-1.6379,-1.6379,-1.6482,-1.7135,-1.6415,-1.5526,-1.6208,-1.5864,-1.541,-1.541,-1.541,-1.543,-1.5488,-1.5498,-1.5498,-1.5498,-1.5498,-1.5478,0.0,0.0,0.0,0.0,0.0,0.0,0.0,0.0,0.0,0.0,0.0,0.0,0.0,-1.3277,-1.3522,0.0,0.0,0.0,0.0,0.0,0.0,-1.4213,-1.4408,0.0,-1.3292,0.0,-1.3079,-1.2982,-1.2542,-1.2305,-1.2305,-1.2305,-1.2305,-1.2305,-1.2345,-1.2365,-1.2385,-1.2679,-1.2986,-1.34,-1.4907,-1.4894,-1.425,-1.5137,-1.6764,-1.8603,0.0,0.0,0.0,0.0,0.0,-1.6074,-1.6445,-1.6123,-1.5762,-1.5557,-1.5771,-1.5811,-1.5449,-1.541,-1.5205,-1.4717,-1.4678,0.0,0.0,0.0,0.0,-1.3506,-1.3932,-1.4287,-1.4551,-1.5308,-1.5133,0.0,0.0,0.0,0.0,0.0,0.0,0.0,0.0,0.0,-1.6539,-1.7302,0.0,-1.6652,-1.6539,-1.6151,-1.5584,-1.5468,-1.541,-1.541,-1.541,-1.541,-1.541,-1.541,-1.5468,-1.5584,-1.5584,-1.5584,-1.5642,-1.5748,-1.5575,-1.541,-1.5584,-1.5526,-1.541,-1.541,-1.541,-1.5508,-1.5869,-1.5947,-1.5947,-1.5947,-1.5947,-1.584,-1.5478,0.0,0.0,0.0,0.0,0.0,0.0,0.0,0.0,0.0,0.0,0.0,0.0,0.0,0.0,0.0,0.0,0.0,0.0,0.0,0.0,0.0,-1.3845,0.0,0.0,0.0,-1.2906,-1.2444,-1.2345,-1.2305,-1.2305,-1.2305,-1.2305,-1.2318,-1.2559,-1.2741,-1.2692,-1.2999,-1.33,-1.3601,-1.4192,-1.425,-1.4088,-1.4328,-1.522,-1.6281,0.0,0.0,0.0,0.0,0.0,0.0,0.0,-1.6592,0.0,-1.584,-1.5547,-1.5322,-1.5107,-1.5283,-1.5156,-1.4502,-1.4453,-1.4082,-1.3242,-1.3389,-1.3506,-1.3506,-1.3916,0.0,-1.4443,-1.4804,-1.4703,-1.4077,0.0,0.0,0.0,0.0,0.0,0.0,0.0,-1.5584,0.0,0.0,0.0,-1.5921,-1.5921,-1.57,-1.541,-1.541,-1.541,-1.541,-1.541,-1.541,-1.541,-1.541,-1.541,-1.541,-1.541,-1.541,-1.541,-1.541,-1.541,-1.541,-1.541,-1.541,-1.5469,-1.5693,-1.5752,-1.5869,-1.6309,-1.6406,-1.6406,-1.6406,-1.6406,-1.6348,-1.6133,-1.6094,0.0,0.0,0.0,0.0,0.0,0.0,0.0,0.0,0.0,0.0,0.0,0.0,0.0,0.0,0.0,0.0,0.0,0.0,0.0,0.0,0.0,0.0,0.0,0.0,0.0,-1.2305,-1.2305,-1.2305,-1.2305,-1.2305,-1.2305,-1.2311,-1.2452,-1.2681,-1.2856,-1.3247,-1.3607,-1.3888,-1.4035,-1.4088,-1.4108,-1.4255,-1.4638,-1.5156,0.0,-1.6756,0.0,0.0,-1.709,0.0,-1.6507,-1.6934,-1.7031,-1.6055,-1.542,-1.499,-1.4805,-1.5079,-1.4896,-1.4029,-1.397,-1.3659,-1.293,-1.3193,-1.3418,-1.3506,-1.3828,-1.4082,-1.4214,-1.4126,-1.4126,0.0,0.0,0.0,0.0,0.0,0.0,0.0,0.0,0.0,0.0,0.0,-1.541,-1.541,-1.541,-1.541,-1.541,-1.541,-1.541,-1.541,-1.541,-1.541,-1.541,-1.541,-1.541,-1.541,-1.541,-1.541,-1.541,-1.541,-1.541,-1.541,-1.541,-1.541,-1.5498,-1.584,-1.6056,-1.6182,-1.6631,-1.6807,-1.6865,-1.6865,-1.6797,-1.6758,-1.6855,-1.6797,0.0,0.0,0.0,0.0,0.0,0.0,0.0,0.0,0.0,0.0,0.0,0.0,0.0,0.0,0.0,0.0,0.0,0.0,0.0,0.0,0.0,-1.2289,-1.1957,0.0,-1.2338,-1.2398,-1.2331,-1.2305,-1.2305,-1.2305,-1.2338,-1.2405,-1.2465,-1.2699,-1.3144,-1.354,-1.3915,-1.4182,-1.4182,-1.4215,-1.4302,-1.4529,-1.4576,-1.4643,0.0,0.0,0.0,0.0,0.0,0.0,0.0,-1.7334,-1.6924,-1.5644,-1.5742,-1.5704,-1.4873,-1.485,-1.4534,-1.361,-1.3559,-1.3384,-1.292,-1.292,-1.3105,-1.3486,-1.3545,-1.3936,-1.4707,-1.4336,-1.4326,0.0,0.0,0.0,0.0,0.0,0.0,0.0,0.0,0.0,0.0,-1.541,-1.541,-1.541,-1.541,-1.541,-1.541,-1.541,-1.541,-1.541,-1.541,-1.541,-1.541,-1.541,-1.541,-1.541,-1.541,-1.541,-1.541,-1.541,-1.541,-1.541,-1.541,-1.541,-1.542,-1.5459,-1.5771,-1.6182,-1.6631,-1.7041,-1.7324,-1.7324,-1.7012,-1.6855,-1.7246,-1.7002,-1.6865,0.0,0.0,0.0,0.0,0.0,0.0,0.0,0.0,0.0,0.0,0.0,0.0,0.0,0.0,0.0,0.0,0.0,0.0,-1.2178,0.0,-1.176,-1.2258,-1.2285,-1.2438,-1.2775,-1.2432,-1.2305,-1.2305,-1.2305,-1.2452,-1.2795,-1.2999,-1.3447,-1.3968,-1.4021,-1.4215,-1.4482,-1.4482,-1.4643,-1.4883,-1.491,-1.475,-1.4563,0.0,0.0,0.0,0.0,0.0,0.0,0.0,-1.7377,-1.7002,-1.5937,-1.5957,-1.583,-1.5225,-1.4935,-1.4574,-1.3935,-1.3623,-1.3435,-1.3271,-1.3262,-1.3447,-1.3867,-1.4131,-1.4434,-1.4775,-1.4853,-1.498,0.0,0.0,0.0,0.0,0.0,0.0,0.0,0.0,-1.541,-1.541,-1.541,-1.541,-1.541,-1.541,-1.541,-1.541,-1.541,-1.541,-1.541,-1.541,-1.541,-1.541,-1.541,-1.541,-1.541,-1.541,-1.541,-1.541,-1.541,-1.541,-1.5469,-1.5732,-1.5801,-1.5928,-1.6465,-1.6728,-1.6973,-1.7402,-1.7637,-1.7764,-1.7764,-1.7627,-1.7549,-1.7734,-1.7617,-1.7559,0.0,0.0,0.0,0.0,0.0,0.0,0.0,0.0,0.0,0.0,0.0,0.0,0.0,0.0,0.0,0.0,0.0,0.0,-1.1692,0.0,-1.1891,-1.2298,-1.2305,-1.2365,-1.2478,-1.2358,-1.2398,-1.2565,-1.2565,-1.2732,-1.3046,-1.334,-1.3707,-1.4102,-1.4275,-1.4516,-1.4783,-1.4783,-1.4863,-1.4983,-1.5157,-1.515,-1.5064,-1.8086,0.0,-1.7666,0.0,-1.7764,-1.7541,-1.7437,-1.7503,-1.7207,-1.6253,-1.623,-1.5984,-1.5321,-1.4972,-1.4629,-1.4158,-1.3851,-1.3708,-1.3691,-1.3691,-1.3828,-1.4068,-1.4434,0.0,-1.4785,-1.5078,-1.5283,-1.541,-1.5117,0.0,0.0,0.0,0.0,0.0,-1.541,-1.541,-1.541,-1.541,-1.541,-1.541,-1.541,-1.541,-1.541,-1.541,-1.541,-1.541,-1.541,-1.541,-1.541,-1.541,-1.541,-1.541,-1.541,-1.541,-1.541,-1.541,-1.541,-1.5478,-1.5791,-1.5957,-1.6272,-1.6836,-1.7187,-1.7461,-1.7764,-1.792,-1.8008,-1.8008,-1.8008,-1.8008,-1.8008,-1.8008,-1.8008,-1.8008,0.0,0.0,0.0,0.0,0.0,0.0,-1.5085,-1.414,-1.248,0.0,0.0,0.0,0.0,0.0,0.0,0.0,0.0,0.0,0.0,0.0,0.0,-1.2305,-1.2345,-1.2432,-1.2127,-1.2119,-1.2402,-1.2486,-1.264,-1.2853,-1.3477,-1.3941,-1.4229,-1.4436,-1.4743,-1.509,-1.509,-1.5144,-1.5244,-1.5444,-1.5471,-1.5398,-1.8008,-1.8008,-1.8008,-1.8008,-1.8008,-1.7861,-1.7451,-1.7734,-1.7539,-1.6292,-1.6442,-1.622,-1.4962,-1.4773,-1.4591,-1.4126,-1.4092,-1.4064,-1.4087,-1.4077,-1.4077,0.0,0.0,-1.4346,-1.4775,-1.4785,-1.5,-1.541,0.0,0.0,-1.541,0.0,-1.541,-1.541,-1.541,-1.541,-1.541,-1.541,-1.541,-1.541,-1.541,-1.541,-1.541,-1.541,-1.541,-1.541,-1.541,-1.541,-1.541,-1.541,-1.541,-1.541,-1.541,-1.541,-1.541,-1.541,-1.541,-1.541,-1.542,-1.5732,-1.6125,-1.6135,-1.6738,-1.7383,-1.7393,-1.7715,-1.8008,-1.8008,-1.8008,-1.8008,-1.8008,-1.8008,-1.8008,-1.8008,0.0,0.0,0.0,0.0,0.0,0.0,-1.4542,-1.3994,-1.2811,0.0,0.0,0.0,0.0,0.0,0.0,0.0,0.0,-1.1844,-1.1864,0.0,-1.2298,-1.2305,-1.2452,-1.2815,-1.1563,-1.1149,-1.149,-1.1823,-1.194,-1.204,-1.3432,-1.4249,-1.4516,-1.4522,-1.4863,-1.5391,-1.5391,-1.5565,-1.5818,-1.5818,-1.5645,-1.5398,-1.8066,-1.8008,-1.8008,-1.8008,-1.8008,-1.7969,-1.7832,-1.793,-1.7725,-1.7081,-1.6836,-1.6436,-1.5738,-1.5158,-1.4735,0.0,-1.4287,-1.4218,0.0,-1.458,-1.4707,-1.499,-1.501,-1.5068,-1.5205,-1.5215,-1.5273,-1.541,0.0,0.0,0.0,-1.541,-1.541,-1.541,-1.541,-1.541,-1.541,-1.541,-1.541,-1.541,-1.541,-1.541,-1.541,-1.541,-1.541,-1.541,-1.541,-1.541,-1.5294,-1.4756,-1.4569,-1.451,-1.3965,-1.451,-1.541,-1.541,-1.541,-1.5478,-1.5771,-1.6017,-1.6262,-1.6816,-1.7178,-1.7461,-1.7744,-1.791,-1.8008,-1.8008,-1.8008,-1.8008,-1.8008,-1.8008,-1.8008,-1.8008,-1.7217,0.0,0.0,0.0,0.0,0.0,-1.3808,-1.3284,0.0,-1.1957,0.0,0.0,0.0,0.0,0.0,0.0,0.0,0.0,-1.1392,0.0,-1.2599,-1.113,-1.0867,-1.1927,-1.0816,-1.0517,-1.088,-1.105,-1.1252,-1.14,-1.2738,-1.3464,-1.3805,-1.4741,-1.5344,-1.5691,-1.5691,-1.5745,-1.5832,-1.5832,-1.5772,-1.5665,-1.8057,-1.8008,-1.8008,-1.8008,-1.8008,-1.7959,-1.7803,-1.7801,-1.7556,-1.6992,-1.666,-1.6278,-1.5909,-1.5342,0.0,-1.5054,-1.4792,-1.4727,-1.5,-1.5019,-1.5137,-1.54,-1.541,-1.541,-1.541,0.0,0.0,-1.541,-1.541,-1.541,-1.541,-1.541,-1.541,-1.541,-1.541,-1.541,-1.541,-1.541,-1.541,-1.5352,-1.505,-1.5108,-1.5352,-1.4756,-1.4688,-1.4932,-1.4628,-1.451,-1.4451,-1.3906,-1.3734,-1.3666,-1.3191,-1.3674,-1.451,-1.451,-1.451,-1.4662,-1.5444,-1.5733,-1.6153,-1.7132,-1.75,-1.7686,-1.7949,-1.8008,-1.8008,-1.8008,-1.8008,-1.8008,-1.8008,-1.8008,-1.8008,-1.8008,-1.6932,-1.607,-1.607,0.0,0.0,0.0,0.0,0.0,0.0,-1.1864,-1.183,0.0,0.0,0.0,0.0,0.0,0.0,-1.1505,-1.1099,0.0,-1.1563,-1.0247,-1.0054,-1.1117,-1.0172,-0.966,-0.9535,-0.999,-1.0327,-1.0445,-1.1726,-1.2693,-1.3485,-1.4341,-1.4797,-1.5146,-1.5635,-1.5534,-1.514,-1.5635,-1.5832,-1.5805,-1.8008,-1.8008,0.0,0.0,-1.8008,0.0,-1.749,-1.7425,-1.7115,-1.6314,-1.6128,-1.5946,-1.5527,-1.542,-1.541,-1.541,0.0,0.0,0.0,-1.541,-1.541,-1.541,-1.541,-1.541,-1.541,-1.541,-1.541,-1.541,-1.541,-1.541,-1.541,-1.541,-1.541,-1.541,-1.541,-1.541,-1.541,-1.5352,-1.5294,-1.5235,-1.4451,-1.4569,-1.505,-1.3545,-1.3485,-1.4025,-1.3252,-1.3009,-1.3009,-1.2948,-1.2948,-1.2887,-1.2826,-1.2826,-1.2887,-1.2948,-1.3009,-1.3266,-1.4479,-1.5115,-1.5781,-1.6946,-1.7676,-1.8008,-1.8008,-1.794,-1.794,-1.8008,-1.794,-1.794,-1.8008,-1.794,-1.7862,-1.7862,-1.6298,-1.5092,-1.5092,0.0,0.0,0.0,0.0,0.0,0.0,-1.2224,-1.2231,0.0,0.0,0.0,0.0,0.0,-1.1497,-1.0807,-1.0912,-1.0517,-0.9602,-0.957,-0.9731,-1.0173,-0.9553,-0.8625,-0.7628,-0.8726,-0.9185,-0.9291,-1.0487,-1.1806,-1.314,-1.3228,-1.3466,-1.3878,-1.5146,-1.4949,-1.407,-1.5337,-1.5832,-1.5832,0.0,0.0,-1.8008,-1.8008,-1.8008,-1.7978,-1.7881,-1.7625,-1.7362,-1.7113,-1.6487,-1.6049,-1.5928,-1.5585,-1.541,-1.541,-1.541,-1.541,-1.541,-1.541,-1.541,-1.541,-1.541,-1.541,-1.541,-1.541,-1.541,-1.541,-1.541,-1.541,-1.541,-1.541,-1.541,-1.541,-1.541,-1.541,-1.5352,-1.4746,-1.451,-1.4392,-1.3614,-1.3425,-1.3554,-1.313,-1.313,-1.3252,-1.307,-1.3009,-1.2887,-1.2266,-1.2081,-1.1958,-1.1358,-1.1178,-1.1421,-1.2642,-1.3009,-1.3086,-1.3361,-1.4206,-1.5169,-1.5827,-1.6959,-1.8008,-1.8008,-1.7432,-1.7139,-1.7862,-1.7432,-1.7139,-1.7872,-1.7432,-1.6922,-1.6922,-1.5296,-1.4027,-1.4027,-1.3025,0.0,0.0,-1.2305,-1.2305,-1.2305,-1.162,-1.1172,0.0,0.0,0.0,0.0,-1.0391,-1.0561,-1.0941,-1.0458,-1.0192,-1.0209,-0.8558,-0.7949,-0.84,-0.8175,-0.7999,-0.7929,-0.8101,-0.8204,-0.8416,-0.9672,-1.0466,-1.0895,-1.1864,-1.2281,-1.2528,-1.3878,-1.4166,-1.407,-1.5337,-1.5832,-1.5832,-1.8008,-1.8008,-1.8008,-1.8008,-1.8008,-1.793,-1.7745,-1.7359,-1.7045,-1.7076,-1.6337,-1.5878,-1.6055,-1.5654,-1.541,-1.541,-1.541,-1.541,-1.541,-1.541,-1.541,-1.541,-1.541,-1.541,-1.541,-1.541,-1.541,-1.541,-1.541,-1.541,-1.541,-1.541,-1.541,-1.541,-1.541,-1.541,-1.5352,-1.4569,-1.4213,-1.4085,-1.2931,-1.2696,-1.2948,-1.2151,-1.2151,-1.2389,-1.2027,-1.1911,-1.1849,-1.1413,-1.1226,-1.1163,-1.0744,-1.0648,-1.0948,-1.1821,-1.2024,-1.2003,-1.2594,-1.333,-1.4185,-1.5117,-1.6397,-1.7217,-1.6802,-1.6645,-1.6636,-1.6724,-1.6298,-1.6149,-1.6655,-1.6289,-1.593,-1.593,-1.4665,-1.3673,-1.3673,-1.2879,0.0,-1.2305,-1.1964,-1.1734,-1.1734,-1.0841,-1.0339,-1.039,-0.9925,0.0,-0.9848,-1.007,-1.0036,-0.9852,-0.9563,-0.932,-0.9013,-0.792,-0.757,-0.7811,-0.7804,-0.7885,-0.8035,-0.7953,-0.796,-0.8038,-0.8726,-0.941,-1.0096,-1.0779,-1.1072,-1.1263,-1.3102,-1.3488,-1.3199,-1.5146,-1.5832,-1.5832,-1.8008,-1.8008,-1.8008,-1.8008,-1.8008,-1.7842,-1.7474,-1.6996,-1.6713,-1.6724,-1.6004,-1.5645,-1.6065,-1.5732,-1.5488,-1.541,-1.541,-1.541,-1.541,-1.541,-1.541,-1.541,-1.541,-1.541,-1.541,-1.541,-1.541,-1.541,-1.541,-1.541,-1.541,-1.541,-1.541,-1.541,-1.541,-1.5352,-1.5177,-1.4392,-1.3965,-1.3726,-1.2197,-1.202,-1.252,-1.1115,-1.1045,-1.1531,-1.087,-1.0624,-1.0624,-1.0624,-1.0624,-1.0624,-1.0624,-1.0728,-1.0929,-1.0929,-1.0782,-1.0873,-1.1949,-1.2594,-1.3332,-1.4787,-1.579,-1.621,-1.5376,-1.572,-1.6,-1.5305,-1.5092,-1.5021,-1.5163,-1.5092,-1.495,-1.495,-1.4171,-1.3455,-1.3455,0.0,-1.2318,-1.2365,-1.1581,-1.1039,-1.1074,-1.0077,-0.949,-0.9553,-0.9393,-0.9419,-0.9667,-0.9868,-0.9463,-0.8356,-0.8702,-0.8496,-0.7438,-0.7709,-0.7845,-0.7848,-0.7977,-0.8038,-0.8038,-0.8038,-0.8038,-0.8038,-0.8038,-0.8627,-0.9706,-0.9706,-0.9706,-0.9899,-1.2323,-1.2716,-1.2237,-1.4663,-1.5635,-1.5832,-1.8008,-1.8008,-1.8008,-1.8008,-1.8008,-1.7842,-1.7474,-1.7017,-1.6698,-1.667,-1.6292,-1.6007,-1.6115,-1.6035,-1.581,-1.542,-1.541,-1.541,-1.541,-1.541,-1.541,-1.541,-1.541,-1.541,-1.541,-1.541,-1.541,-1.541,-1.541,-1.541,-1.541,-1.541,-1.541,-1.541,-1.541,-1.4991,-1.4323,-1.3554,-1.2818,-1.2074,-1.117,-1.087,-1.0926,-1.0688,-1.0681,-1.0744,-1.0624,-1.0624,-1.0624,-1.0624,-1.0624,-1.0624,-1.0624,-1.0658,-1.0628,-1.0628,-1.0768,-1.1055,-1.1411,-1.2391,-1.3546,-1.4852,-1.5305,-1.5376,-1.5234,-1.4665,-1.4378,-1.5021,-1.4522,-1.4171,-1.5021,-1.4522,-1.3954,-1.3954,-1.3171,-1.2519,-1.2519,0.0,-1.2398,-1.2721,-1.1698,-1.1109,-1.1403,-0.9604,-0.8542,-0.8854,-0.802,-0.7634,-0.7937,-0.8095,-0.8072,-0.7861,-0.88,-0.873,-0.774,-0.7916,-0.8004,-0.8004,-0.8028,-0.8038,-0.8038,-0.8038,-0.8038,-0.8038,-0.8038,-0.8137,-0.8333,-0.8333,-0.8333,-0.8432,-0.9993,-1.1165,-1.2042,-1.359,-1.4854,-1.5832,-1.8008,-1.8008,-1.8008,-1.8008,-1.8008,-1.7842,-1.7474,-1.7211,-1.7009,-1.6719,-1.6348,-1.6076,-1.61,-1.5887,-1.5644,-1.542,-1.541,-1.541,-1.541,-1.541,-1.541,-1.541,-1.541,-1.541,-1.541,-1.541,-1.541,-1.541,-1.541,-1.541,-1.541,-1.541,-1.541,-1.541,-1.541,-1.5167,-1.4756,-1.3554,-1.2765,-1.2328,-1.1115,-1.0624,-1.0624,-1.0624,-1.0624,-1.0624,-1.0624,-1.0624,-1.0624,-1.0624,-1.0624,-1.0624,-1.0624,-1.0668,-1.0795,-1.0795,-1.0889,-1.1089,-1.1543,-1.2109,-1.2707,-1.3439,-1.4027,-1.4235,-1.373,-1.3665,-1.3673,-1.3665,-1.3237,-1.3098,-1.352,-1.3237,-1.2952,-1.2952,-1.2592,0.0,0.0,-1.2438,-1.2359,-1.1864,-1.1146,-1.0528,-1.004,-0.8723,-0.7945,-0.8098,-0.7657,-0.7482,-0.7702,-0.7777,-0.7848,-0.7933,-0.8348,-0.8344,-0.7933,-0.8004,-0.8038,-0.8038,-0.8038,-0.8038,-0.8038,-0.8038,-0.8038,-0.8038,-0.8038,-0.8038,-0.8038,-0.8038,-0.8038,-0.8137,-0.9509,-1.0391,-1.1165,-1.3199,-1.4262,-1.4848,-1.8008,-1.8008,-1.8008,-1.8008,-1.8008,-1.7842,-1.7474,-1.7396,-1.7255,-1.6921,-1.6577,-1.6374,-1.6374,-1.5979,-1.5654,-1.5566,-1.5488,-1.541,-1.541,-1.541,-1.541,-1.541,-1.541,-1.541,-1.541,-1.541,-1.541,-1.541,-1.541,-1.541,-1.541,-1.5235,-1.5235,-1.541,-1.5167,-1.4991,-1.4746,-1.3545,-1.2765,-1.2336,-1.1115,-1.0624,-1.0624,-1.0624,-1.0624,-1.0624,-1.0624,-1.0624,-1.0624,-1.0624,-1.0624,-1.0624,-1.0624,-1.0715,-1.0895,-1.0895,-1.0989,-1.1209,-1.1724,-1.1917,-1.2024,-1.2245,-1.2806,-1.3171,-1.2445,-1.2879,-1.3171,-1.2445,-1.2305,-1.2305,-1.2305,-1.2305,-1.2305,-1.2305,0.0,0.0,0.0,-1.2424,-1.2188,-1.135,-1.0554,-0.9703,-0.8911,-0.8096,-0.7614,-0.7645,-0.7648,-0.7712,-0.7858,-0.7865,-0.7919,-0.8035,-0.8038,-0.8038,-0.8038,-0.8038,-0.8038,-0.8038,-0.8038,-0.8038,-0.8038,-0.8038,-0.8038,-0.8038,-0.8038,-0.8038,-0.8038,-0.8038,-0.8038,-0.8137,-0.9118,-0.9706,-1.0288,-1.2619,-1.3584,-1.407,-1.8008,-1.8008,-1.8008,-1.8008,-1.8008,-1.7842,-1.7474,-1.7378,-1.7379,-1.7369,-1.7294,-1.7301,-1.7301,-1.6915,-1.6448,-1.6055,-1.5654,-1.541,-1.541,-1.541,-1.541,-1.541,-1.541,-1.541,-1.541,-1.541,-1.541,-1.541,-1.541,-1.541,-1.5352,-1.4628,-1.4688,-1.5352,-1.4628,-1.3846,-1.3191,-1.307,-1.2151,-1.0744,-1.0624,-1.0624,-1.0624,-1.0624,-1.0624,-1.0624,-1.0624,-1.0624,-1.0624,-1.0624,-1.0624,-1.0624,-1.0624,-1.0638,-1.0658,-1.0658,-1.0969,-1.1463,-1.1784,-1.2064,-1.2278,-1.2298,-1.2378,-1.2372,-1.2298,-1.2378,-1.2372,-1.2298,-1.2305,-1.2305,-1.2305,-1.2305,-1.2305,-1.2305,0.0,0.0,-1.2788,-1.2089,-1.1717,-1.2024,-1.0149,-0.8928,-0.9271,-0.8228,-0.7655,-0.7787,-0.7794,-0.7862,-0.8014,-0.8021,-0.8028,-0.8038,-0.8038,-0.8038,-0.8038,-0.8038,-0.8038,-0.8038,-0.8038,-0.8038,-0.8038,-0.8038,-0.8038,-0.8038,-0.8038,-0.8038,-0.8038,-0.8038,-0.8038,-0.8038,-0.8137,-0.892,-1.0194,-1.1556,-1.2813,-1.407,-1.8008,-1.8008,-1.8008,-1.8008,-1.8008,-1.793,-1.7823,-1.7745,-1.7571,-1.703,-1.7251,-1.7105,-1.626,-1.626,-1.6172,-1.5674,-1.5498,-1.541,-1.541,-1.541,-1.541,-1.541,-1.541,-1.541,-1.541,-1.541,-1.541,-1.541,-1.541,-1.541,-1.541,-1.5108,-1.4815,-1.4628,-1.4332,-1.3726,-1.2948,-1.2451,-1.1896,-1.1288,-1.0807,-1.0624,-1.0624,-1.0624,-1.0624,-1.0624,-1.0624,-1.0624,-1.0624,-1.0624,-1.0624,-1.0624,-1.0624,-1.0624,-1.0698,-1.0995,-1.1383,-1.1764,-1.2058,-1.2218,-1.2305,-1.2305,-1.2305,-1.2305,-1.2305,-1.2305,-1.2305,-1.2305,-1.2452,-1.2579,-1.2579,-1.2739,-1.2866,-1.2866,0.0,-1.33,-1.33,-1.2616,-1.1929,-1.1324,-1.0071,-0.8995,-0.8471,-0.8004,-0.7896,-0.7946,-0.7953,-0.7977,-0.8035,-0.8038,-0.8038,-0.8038,-0.8038,-0.8038,-0.8038,-0.8038,-0.8038,-0.8038,-0.8038,-0.8038,-0.8038,-0.8038,-0.8038,-0.8038,-0.8038,-0.8038,-0.8038,-0.8038,-0.8038,-0.8038,-0.8038,-0.8825,-1.0194,-1.1458,-1.2721,-1.407,-1.8008,-1.8008,-1.8008,-1.8008,-1.8008,-1.8008,-1.8008,-1.791,-1.7571,-1.702,-1.7092,-1.6807,-1.5931,-1.5969,-1.5968,-1.5674,-1.5488,-1.541,-1.541,-1.541,-1.541,-1.541,-1.541,-1.541,-1.541,-1.541,-1.541,-1.541,-1.541,-1.541,-1.541,-1.5108,-1.4874,-1.4569,-1.4034,-1.3545,-1.2948,-1.2143,-1.1648,-1.1344,-1.0807,-1.0624,-1.0624,-1.0624,-1.0624,-1.0624,-1.0624,-1.0624,-1.0624,-1.0624,-1.0624,-1.0624,-1.0624,-1.0685,-1.0808,-1.139,-1.171,-1.1937,-1.2225,-1.2305,-1.2305,-1.2305,-1.2305,-1.2305,-1.2305,-1.2378,-1.2445,-1.2445,-1.2679,-1.2893,-1.2893,-1.3066,-1.324,-1.3333,-1.3173,-1.3131,-1.3304,-1.2313,-1.1256,-1.0515,-0.9562,-0.8694,-0.7973,-0.7977,-0.8038,-0.8038,-0.8038,-0.8038,-0.8038,-0.8038,-0.8038,-0.8038,-0.8038,-0.8038,-0.8038,-0.8038,-0.8038,-0.8038,-0.8038,-0.8038,-0.8038,-0.8038,-0.8038,-0.8038,-0.8038,-0.8038,-0.8038,-0.8038,-0.8038,-0.8038,-0.8038,-0.8825,-1.0194,-1.1458,-1.2721,-1.407,-1.8008,-1.8008,-1.8008,-1.8008,-1.8008,-1.8008,-1.8008,-1.7658,-1.7387,-1.7377,-1.6996,-1.6719,-1.6671,-1.6364,-1.6113,-1.6113,-1.5654,-1.542,-1.542,-1.543,-1.543,-1.542,-1.542,-1.541,-1.541,-1.541,-1.541,-1.541,-1.541,-1.541,-1.5352,-1.4569,-1.4628,-1.5294,-1.3734,-1.3009,-1.2956,-1.2151,-1.1351,-1.0624,-1.0624,-1.0624,-1.0624,-1.0624,-1.0624,-1.0624,-1.0624,-1.0624,-1.0624,-1.0624,-1.0624,-1.0624,-1.0624,-1.0762,-1.1109,-1.1697,-1.187,-1.1937,-1.2225,-1.2305,-1.2305,-1.2305,-1.2305,-1.2305,-1.2305,-1.2532,-1.2822,-1.2829,-1.2999,-1.3213,-1.3213,-1.322,-1.3313,-1.3519,-1.2782,-1.2267,-1.2522,-1.0687,-0.9324,-0.9511,-0.8483,-0.7872,-0.8024,-0.8038,-0.8038,-0.8038,-0.8038,-0.8038,-0.8038,-0.8038,-0.8038,-0.8038,-0.8038,-0.8038,-0.8038,-0.8038,-0.8038,-0.8038,-0.8038,-0.8038,-0.8038,-0.8038,-0.8038,-0.8038,-0.8038,-0.8038,-0.8038,-0.8038,-0.8038,-0.8038,-0.8038,-0.8821,-1.0194,-1.1458,-1.2716,-1.407,-1.8008,-1.8008,-1.8008,-1.8008,-1.8008,-1.8008,-1.8008,-1.792,-1.774,-1.7441,-1.7529,-1.7301,-1.6375,-1.6436,-1.628,-1.5654,-1.5488,-1.5526,-1.5894,-1.5899,-1.6038,-1.6296,-1.5742,-1.541,-1.541,-1.541,-1.541,-1.541,-1.541,-1.541,-1.541,-1.5167,-1.4874,-1.4519,-1.3636,-1.2995,-1.2378,-1.1781,-1.124,-1.0862,-1.0862,-1.0742,-1.0624,-1.0624,-1.0624,-1.0624,-1.0624,-1.0624,-1.0624,-1.0624,-1.0624,-1.0658,-1.0795,-1.1062,-1.1369,-1.1757,-1.2011,-1.2191,-1.2278,-1.2305,-1.2305,-1.2305,-1.2305,-1.2358,-1.2565,-1.2761,-1.2882,-1.3026,-1.3307,-1.3514,-1.3514,-1.3848,-1.4155,-1.4249,-1.3585,-1.3082,-1.3158,-1.1223,-0.9854,-0.9811,-0.875,-0.7987,-0.8035,-0.8038,-0.8038,-0.8038,-0.8038,-0.8038,-0.8038,-0.8038,-0.8038,-0.8038,-0.8038,-0.8038,-0.8038,-0.8038,-0.8038,-0.8038,-0.8038,-0.8038,-0.8038,-0.8038,-0.8038,-0.8038,-0.8038,-0.8038,-0.8038,-0.8038,-0.8038,-0.8038,-0.8038,-0.941,-1.1365,-1.1755,-1.3301,-1.5337,-1.8095,-1.8008,-1.8008,-1.8008,-1.8008,-1.8008,-1.8008,-1.7842,-1.7627,-1.7169,-1.7193,-1.6864,-1.5947,-1.6059,-1.5966,-1.542,-1.541,-1.5654,-1.6272,-1.6166,-1.6299,-1.6675,-1.6221,-1.5937,-1.5937,-1.5762,-1.5674,-1.5674,-1.5498,-1.541,-1.541,-1.541,-1.5108,-1.4647,-1.4188,-1.3474,-1.266,-1.2157,-1.1593,-1.0995,-1.0995,-1.0822,-1.0624,-1.0624,-1.0624,-1.0624,-1.0624,-1.0624,-1.0624,-1.0624,-1.0624,-1.0698,-1.1035,-1.1283,-1.151,-1.1924,-1.2164,-1.2305,-1.2305,-1.2385,-1.2478,-1.2478,-1.2478,-1.2559,-1.2859,-1.3019,-1.3153,-1.3347,-1.3707,-1.3988,-1.3988,-1.4376,-1.4736,-1.485,-1.3567,-1.267,-1.2775,-1.0697,-0.9217,-0.9217,-0.8531,-0.8038,-0.8038,-0.8038,-0.8038,-0.8038,-0.8038,-0.8038,-0.8038,-0.8038,-0.8038,-0.8038,-0.8038,-0.8038,-0.8038,-0.8038,-0.8038,-0.8038,-0.8038,-0.8038,-0.8038,-0.8038,-0.8038,-0.8038,-0.8038,-0.8038,-0.8038,-0.8038,-0.8038,-0.8038,-0.8038,-0.9604,-1.1945,-1.1945,-1.3596,-1.5832,-1.8193,-1.8008,-1.8008,-1.8008,-1.8008,-1.8008,-1.8008,-1.7658,-1.73,-1.6856,-1.6468,-1.6035,-1.561,-1.5548,-1.5498,-1.5498,-1.5488,-1.5861,-1.6729,-1.6426,-1.6379,-1.6777,-1.6787,-1.6714,-1.6665,-1.6289,-1.6125,-1.6125,-1.5625,-1.541,-1.541,-1.541,-1.541,-1.5371,-1.498,-1.429,-1.3428,-1.304,-1.214,-1.1069,-1.1069,-1.0895,-1.0698,-1.0698,-1.0698,-1.0698,-1.0672,-1.0665,-1.0665,-1.0665,-1.0665,-1.0701,-1.1283,-1.1463,-1.1577,-1.2138,-1.2305,-1.2305,-1.2305,-1.2518,-1.2829,-1.2856,-1.2882,-1.2976,-1.3186,-1.3454,-1.3661,-1.3707,-1.4148,-1.4529,-1.4556,-1.4803,-1.509,-1.5351,-1.3228,-1.1607,-1.192,-0.9604,-0.8038,-0.8038,-0.8038,-0.8038,-0.8038,-0.8038,-0.8038,-0.8038,-0.8038,-0.8038,-0.8038,-0.8038,-0.8038,-0.8038,-0.8038,-0.8038,-0.8038,-0.8038,-0.8038,-0.8038,-0.8038,-0.8038,-0.8038,-0.8038,-0.8038,-0.8038,-0.8038,-0.8038,-0.8038,-0.8038,-0.8038,-0.8038,-0.8038,-0.9604,-1.1945,-1.1945,-1.3596,-1.5832,-1.8193,-1.8008,-1.8008,-1.8008,-1.8008,-1.8008,-1.8008,-1.792,-1.7833,-1.7736,-1.7346,-1.7052,-1.6971,-1.6614,-1.6437,-1.6437,-1.6413,-1.6653,-1.7181,-1.7187,-1.7167,-1.7246,-1.7246,-1.708,-1.6738,-1.6289,-1.6125,-1.6125,-1.5625,-1.541,-1.541,-1.541,-1.541,-1.5381,-1.4504,-1.3966,-1.3753,-1.2791,-1.2158,-1.1677,-1.1677,-1.1503,-1.1236,-1.1236,-1.1236,-1.1209,-1.0982,-1.0902,-1.0902,-1.0902,-1.0902,-1.1002,-1.159,-1.177,-1.1844,-1.2198,-1.2305,-1.2305,-1.2305,-1.2518,-1.2882,-1.3053,-1.328,-1.3467,-1.3534,-1.3594,-1.3692,-1.4235,-1.4429,-1.4589,-1.4823,-1.5104,-1.5324,-1.5384,-1.3383,-1.1793,-1.1843,-0.9604,-0.8038,-0.8038,-0.8038,-0.8038,-0.8038,-0.8038,-0.8038,-0.8038,-0.8038,-0.8038,-0.8038,-0.8038,-0.8038,-0.8038,-0.8038,-0.8038,-0.8038,-0.8038,-0.8038,-0.8038,-0.8038,-0.8038,-0.8038,-0.8038,-0.8038,-0.8038,-0.8038,-0.8038,-0.8038,-0.8038,-0.8038,-0.8038,-0.8038,-0.9604,-1.1945,-1.1945,-1.3596,-1.5832,-1.8778,-1.8291,-1.8008,-1.8008,-1.8008,-1.8008,-1.8008,-1.8008,-1.792,-1.7745,-1.7556,-1.7338,-1.7105,-1.6819,-1.6815,-1.7001,-1.6798,-1.6929,-1.7373,-1.7397,-1.7426,-1.7393,-1.7578,-1.7578,-1.7353,-1.6709,-1.6279,-1.6125,-1.5625,-1.541,-1.541,-1.541,-1.5527,-1.5692,-1.4934,-1.4446,-1.4109,-1.3314,-1.2559,-1.187,-1.187,-1.169,-1.1423,-1.1423,-1.1423,-1.1403,-1.1249,-1.1196,-1.1196,-1.1196,-1.1196,-1.1276,-1.1724,-1.187,-1.1924,-1.2218,-1.2305,-1.2331,-1.2478,-1.2732,-1.3039,-1.334,-1.3641,-1.3854,-1.3854,-1.3961,-1.4148,-1.4456,-1.4743,-1.4983,-1.5137,-1.5404,-1.5605,-1.5605,-1.4082,-1.2619,-1.1945,-1.019,-0.8726,-0.8038,-0.8038,-0.8038,-0.8038,-0.8038,-0.8038,-0.8038,-0.8038,-0.8038,-0.8038,-0.8038,-0.8038,-0.8038,-0.8038,-0.8038,-0.8038,-0.8038,-0.8038,-0.8038,-0.8038,-0.8038,-0.8038,-0.8038,-0.8038,-0.8038,-0.8038,-0.8038,-0.8038,-0.8038,-0.8038,-0.8038,-0.8038,-0.9604,-1.1945,-1.1945,-1.3596,-1.5832,-1.9521,-1.8741,-1.8193,-1.8018,-1.8008,-1.8008,-1.8008,-1.8008,-1.791,-1.7561,-1.7464,-1.729,-1.6991,-1.6896,-1.7107,-1.7474,-1.7126,-1.7107,-1.7474,-1.7435,-1.7383,-1.7383,-1.7646,-1.7754,-1.7676,-1.7061,-1.6553,-1.6182,-1.5664,-1.5449,-1.5527,-1.5527,-1.5762,-1.6191,-1.5442,-1.4939,-1.4429,-1.3739,-1.2876,-1.1944,-1.1944,-1.1797,-1.1577,-1.1577,-1.1577,-1.157,-1.1516,-1.147,-1.143,-1.1483,-1.1503,-1.1557,-1.185,-1.1944,-1.1991,-1.2231,-1.2338,-1.2432,-1.2755,-1.3013,-1.3353,-1.3647,-1.3941,-1.4175,-1.4229,-1.4382,-1.4549,-1.4649,-1.5057,-1.5411,-1.5464,-1.5665,-1.5832,-1.5832,-1.4752,-1.3488,-1.2431,-1.0974,-0.9608,-0.8432,-0.8137,-0.8038,-0.8038,-0.8038,-0.8038,-0.8038,-0.8038,-0.8038,-0.8038,-0.8038,-0.8038,-0.8038,-0.8038,-0.8038,-0.8038,-0.8038,-0.8038,-0.8038,-0.8038,-0.8038,-0.8038,-0.8038,-0.8038,-0.8038,-0.8038,-0.8038,-0.8038,-0.8038,-0.8038,-0.8038,-0.8237,-0.9801,-1.1945,-1.2431,-1.3986,-1.5832,-1.9645,-1.9213,-1.8917,-1.8115,-1.8008,-1.8008,-1.8008,-1.8008,-1.8008,-1.792,-1.7648,-1.7484,-1.7782,-1.7794,-1.7833,-1.792,-1.7842,-1.7833,-1.792,-1.7607,-1.7383,-1.7383,-1.707,-1.6719,-1.6338,-1.6592,-1.6636,-1.6641,-1.5811,-1.5605,-1.6037,-1.6037,-1.6211,-1.6534,-1.519,-1.4569,-1.4437,-1.3028,-1.2425,-1.2245,-1.2245,-1.2218,-1.2184,-1.2184,-1.2184,-1.2151,-1.1904,-1.1643,-1.1463,-1.1724,-1.181,-1.1864,-1.2151,-1.2245,-1.2251,-1.2291,-1.2485,-1.2768,-1.2808,-1.3153,-1.3654,-1.3955,-1.4242,-1.4529,-1.479,-1.4676,-1.4663,-1.517,-1.5344,-1.5471,-1.5725,-1.5805,-1.5832,-1.5832,-1.4752,-1.3878,-1.368,-1.1551,-0.9899,-0.9702,-0.8726,-0.8038,-0.8038,-0.8038,-0.8038,-0.8038,-0.8038,-0.8038,-0.8038,-0.8038,-0.8038,-0.8038,-0.8038,-0.8038,-0.8038,-0.8038,-0.8038,-0.8038,-0.8038,-0.8038,-0.8038,-0.8038,-0.8038,-0.8038,-0.8038,-0.8038,-0.8038,-0.8038,-0.8038,-0.8137,-0.9312,-1.0583,-1.2139,-1.4465,-1.554,-1.5832,-2.0292,-1.961,-1.9055,-1.8154,-1.8008,-1.8008,-1.8008,-1.8008,-1.8008,-1.8008,-1.7833,-1.7823,-1.8008,-1.8008,-1.8008,-1.8008,-1.8008,-1.8008,-1.8008,-1.7842,-1.7734,-1.7734,-1.7549,-1.7353,-1.7158,-1.7119,-1.709,-1.709,-1.6211,-1.6006,-1.6436,-1.6182,-1.6436,-1.7035,-1.5833,-1.5411,-1.5549,-1.3814,-1.3091,-1.3025,-1.2519,-1.2305,-1.2305,-1.2305,-1.2305,-1.2285,-1.2158,-1.2024,-1.1937,-1.2064,-1.2111,-1.2131,-1.2265,-1.2418,-1.2552,-1.2552,-1.2766,-1.3039,-1.32,-1.344,-1.3754,-1.4215,-1.4429,-1.4643,-1.5097,-1.5104,-1.5084,-1.5344,-1.5524,-1.5678,-1.5805,-1.5832,-1.5832,-1.5832,-1.4752,-1.368,-1.2909,-1.1165,-0.9706,-0.9019,-0.8333,-0.8038,-0.8038,-0.8038,-0.8038,-0.8038,-0.8038,-0.8038,-0.8038,-0.8038,-0.8038,-0.8038,-0.8038,-0.8038,-0.8038,-0.8038,-0.8038,-0.8038,-0.8038,-0.8038,-0.8038,-0.8038,-0.8038,-0.8038,-0.8038,-0.8038,-0.8038,-0.8038,-0.8038,-0.8137,-0.9509,-1.1263,-1.3199,-1.5146,-1.5832,-1.5832]},{"header":{"parameterUnit":"m.s-1","parameterCategory":1,"la1":30.6,"la2":28.766,"lo1":-90.7593,"lo2":-88.6598,"dy":0.0162,"dx":0.0183,"nx":116,"ny":114,"refTime":"2023-07-22T06:00:00:Z","depth":0,"parameterNumber":3,"parameterNumberName":"V-component_of_WINDS"},"data":[0.0,0.0,0.0,0.0,0.0,0.0,0.0,0.0,0.0,0.0,0.0,0.0,0.0,0.0,0.0,0.0,0.0,0.0,0.0,0.0,0.0,0.0,0.0,0.0,0.0,0.0,0.0,0.0,0.0,0.0,0.0,0.0,0.0,0.0,0.0,0.0,0.0,0.0,0.0,0.0,0.0,0.0,0.0,0.0,0.0,0.0,0.0,0.0,0.0,0.0,0.0,0.0,0.0,0.0,0.0,0.0,0.0,0.0,0.0,0.0,0.0,0.0,0.0,0.0,0.0,0.0,0.0,0.0,0.0,0.0,0.0,0.0,0.0,0.0,0.0,0.0,0.0,0.0,0.0,0.0,0.0,0.0,0.0,0.0,0.0,0.0,0.0,0.0,0.0,0.0,0.0,0.0,0.0,0.0,0.0,0.0,0.0,0.0,0.0,0.0,0.0,0.0,0.0,0.0,0.0,0.0,0.0,0.0,0.0,0.0,0.0,0.0,0.0,0.0,0.0,0.0,0.0,0.0,0.0,0.0,0.0,0.0,0.0,0.0,0.0,0.0,0.0,0.0,0.0,0.0,0.0,0.0,0.0,0.0,0.0,0.0,0.0,0.0,0.0,0.0,0.0,0.0,0.0,0.0,0.0,0.0,0.0,0.0,0.0,0.0,0.0,0.0,0.0,0.0,0.0,0.0,0.0,0.0,0.0,0.0,0.0,0.0,0.0,0.0,0.0,0.0,0.0,0.0,0.0,0.0,0.0,0.0,0.0,0.0,0.0,0.0,0.0,0.0,0.0,0.0,0.0,0.0,0.0,0.0,0.0,0.0,0.0,0.0,0.0,0.0,0.0,0.0,0.0,0.0,0.0,0.0,0.0,0.0,0.0,0.0,0.0,0.0,0.0,0.0,0.0,0.0,0.0,0.0,0.0,0.0,0.0,0.0,0.0,0.0,0.0,0.0,0.0,0.0,0.0,0.0,0.0,0.0,0.0,0.0,0.0,0.0,0.0,0.0,0.0,0.0,0.0,0.0,0.0,0.0,0.0,0.0,0.0,0.0,0.0,0.0,0.0,0.0,0.0,0.0,0.0,0.0,0.0,0.0,0.0,0.0,0.0,0.0,0.0,0.0,0.0,0.0,0.0,0.0,0.0,0.0,0.0,0.0,0.0,0.0,0.0,0.0,0.0,0.0,0.0,0.0,0.0,0.0,0.0,0.0,0.0,0.0,0.0,0.0,0.0,0.0,0.0,0.0,0.0,0.0,0.0,0.0,0.0,0.0,0.0,0.0,0.0,0.0,0.0,0.0,0.0,0.0,0.0,0.0,0.0,0.0,0.0,0.0,0.0,0.0,0.0,0.0,0.0,0.0,0.0,0.0,0.0,0.0,0.0,0.0,0.0,0.0,0.0,0.0,0.0,0.0,0.0,0.0,0.0,0.0,0.0,0.0,0.0,0.0,0.0,0.0,0.0,0.0,0.0,0.0,0.0,0.0,0.0,0.0,0.0,0.0,0.0,0.0,0.0,0.0,0.0,0.0,0.0,0.0,0.0,0.0,0.0,0.0,0.0,0.0,0.0,0.0,0.0,0.0,0.0,0.0,0.0,0.0,0.0,0.0,0.0,0.0,0.0,0.0,0.0,0.0,0.0,0.0,0.0,0.0,0.0,0.0,0.0,0.0,0.0,0.0,0.0,0.0,0.0,0.0,0.0,0.0,0.0,0.0,0.0,0.0,0.0,0.0,0.0,0.0,0.0,0.0,0.0,0.0,0.0,0.0,0.0,0.0,0.0,0.0,0.0,0.0,0.0,0.0,0.0,0.0,0.0,0.0,0.0,0.0,0.0,0.0,0.0,0.0,0.0,0.0,0.0,0.0,0.0,0.0,0.0,0.0,0.0,0.0,0.0,0.0,0.0,0.0,0.0,0.0,0.0,0.0,0.0,0.0,0.0,0.0,0.0,0.0,0.0,0.0,0.0,0.0,0.0,0.0,0.0,0.0,0.0,0.0,0.0,0.0,0.0,0.0,0.0,0.0,0.0,0.0,0.0,0.0,0.0,0.0,0.0,0.0,0.0,0.0,0.0,0.0,0.0,0.0,0.0,0.0,0.0,0.0,0.0,0.0,0.0,0.0,0.0,0.0,0.0,0.0,0.0,0.0,0.0,0.0,0.0,0.0,0.0,0.0,0.0,0.0,0.0,0.0,0.0,0.0,0.0,0.0,0.0,0.0,0.0,0.0,0.0,0.0,0.0,0.0,0.0,0.0,0.0,0.0,0.0,0.0,0.0,0.0,0.0,0.0,0.0,0.0,0.0,0.0,0.0,0.0,0.0,0.0,0.0,0.0,0.0,0.0,0.0,0.0,0.0,0.0,0.0,0.0,0.0,0.0,0.0,0.0,0.0,0.0,0.0,0.0,0.0,0.0,0.0,0.0,0.0,0.0,0.0,0.0,0.0,0.0,0.0,0.0,0.0,0.0,0.0,0.0,0.0,0.0,0.0,0.0,0.0,0.0,0.0,0.0,0.0,0.0,0.0,0.0,0.0,0.0,0.0,0.0,0.0,0.0,0.0,0.0,0.0,0.0,0.0,0.0,0.0,0.0,0.0,0.0,0.0,0.0,0.0,0.0,0.0,0.0,0.0,0.0,0.0,0.0,0.0,0.0,0.0,0.0,0.0,0.0,0.0,0.0,0.0,0.0,0.0,0.0,0.0,0.0,0.0,0.0,0.0,0.0,0.0,0.0,0.0,0.0,0.0,0.0,0.0,0.0,0.0,0.0,0.0,0.0,0.0,0.0,0.0,0.0,0.0,0.0,0.0,0.0,0.0,0.0,0.0,0.0,0.0,0.0,0.0,0.0,0.0,0.0,0.0,0.0,0.0,0.0,0.0,0.0,0.0,0.0,0.0,0.0,0.0,0.0,0.0,0.0,0.0,0.0,0.0,0.0,0.0,0.0,0.0,0.0,0.0,0.0,0.0,0.0,0.0,0.0,0.0,0.0,0.0,0.0,0.0,0.0,0.0,0.0,0.0,0.0,0.0,0.0,0.0,0.0,0.0,0.0,0.0,0.0,0.0,0.0,0.0,0.0,0.0,0.0,0.0,0.0,0.0,0.0,0.0,0.0,0.0,0.0,0.0,0.0,0.0,0.0,0.0,0.0,0.0,0.0,0.0,0.0,0.0,0.0,0.0,0.0,0.0,0.0,0.0,0.0,0.0,0.0,0.0,0.0,0.0,0.0,0.0,0.0,0.0,0.0,0.0,0.0,0.0,0.0,0.0,0.0,0.0,0.0,0.0,0.0,0.0,0.0,0.0,0.0,0.0,0.0,0.0,0.0,0.0,0.0,0.0,0.0,0.0,0.0,0.0,0.0,0.0,0.0,0.0,0.0,0.0,0.0,0.0,0.0,0.0,0.0,0.0,0.0,0.0,0.0,0.0,0.0,0.0,0.0,0.0,0.0,0.0,0.0,0.0,0.0,0.0,0.0,0.0,0.0,0.0,0.0,0.0,0.0,0.0,0.0,0.0,0.0,0.0,0.0,0.0,0.0,0.0,0.0,0.0,0.0,0.0,0.0,0.0,0.0,0.0,0.0,0.0,0.0,0.0,0.0,0.0,0.0,0.0,0.0,0.0,0.0,0.0,0.0,0.0,0.0,0.0,0.0,0.0,0.0,0.0,0.0,0.0,0.0,0.0,0.0,0.0,0.0,0.0,0.0,0.0,0.0,0.0,0.0,0.0,0.0,0.0,0.0,0.0,0.0,0.0,0.0,0.0,0.0,0.0,0.0,0.0,0.0,0.0,0.0,0.0,0.0,0.0,0.0,0.0,0.0,0.0,0.0,0.0,0.0,0.0,0.0,0.0,0.0,0.0,0.0,0.0,0.0,0.0,0.0,0.0,0.0,0.0,0.0,0.0,0.0,0.0,0.0,0.0,0.0,0.0,0.0,0.0,0.0,0.0,0.0,0.0,0.0,0.0,0.0,0.0,0.0,0.0,0.0,0.0,0.0,0.0,0.0,0.0,0.0,0.0,0.0,0.0,0.0,0.0,0.0,0.0,0.0,0.0,0.0,0.0,0.0,0.0,0.0,0.0,0.0,0.0,0.0,0.0,0.0,0.0,0.0,0.0,0.0,0.0,0.0,0.0,0.0,0.0,0.0,0.0,0.0,0.0,0.0,0.0,0.0,0.0,0.0,0.0,0.0,0.0,0.0,0.0,0.0,0.0,0.0,0.0,0.0,0.0,0.0,0.0,0.0,0.0,0.0,0.0,0.0,0.0,0.0,0.0,0.0,0.0,0.0,0.0,0.0,0.0,0.0,0.0,0.0,0.0,0.0,0.0,0.0,0.0,0.0,0.0,0.0,0.0,0.0,0.0,0.0,0.0,0.0,0.0,0.0,0.0,0.0,0.0,0.0,0.0,0.0,0.0,0.0,0.0,0.0,0.0,0.0,0.0,0.0,0.0,0.0,0.0,0.0,0.0,0.0,0.0,0.0,0.0,0.0,0.0,0.0,0.0,0.0,0.0,0.0,0.0,0.0,0.0,0.0,0.0,0.0,0.0,0.0,0.0,0.0,0.0,0.0,0.0,0.0,0.0,0.0,0.0,0.0,0.0,0.0,0.0,0.0,0.0,0.0,0.0,0.0,0.0,0.0,0.0,0.0,0.0,0.0,0.0,0.0,0.0,0.0,0.0,0.0,0.0,0.0,0.0,0.0,0.0,0.0,0.0,0.0,0.0,0.0,0.0,0.0,0.0,0.0,0.0,0.0,0.0,0.0,0.0,0.0,0.0,0.0,0.0,0.0,0.0,0.0,0.0,0.0,0.0,0.0,0.0,0.0,0.0,0.0,0.0,0.0,0.0,0.0,0.0,0.0,0.0,0.0,0.0,0.0,0.0,0.0,0.0,0.0,0.0,0.0,0.0,0.0,0.0,0.0,0.0,0.0,0.0,0.0,0.0,0.0,0.0,0.0,0.0,0.0,0.0,0.0,0.0,0.0,0.0,0.0,0.0,0.0,0.0,0.0,0.0,0.0,0.0,0.0,0.0,0.0,0.0,0.0,0.0,0.0,0.0,0.0,0.0,0.0,0.0,0.0,0.0,0.0,0.0,0.0,0.0,0.0,0.0,0.0,0.0,0.0,0.0,0.0,0.0,0.0,0.0,0.0,0.0,0.0,0.0,0.0,0.0,0.0,0.0,0.0,0.0,0.0,0.0,0.0,0.0,0.0,0.0,0.0,0.0,0.0,0.0,0.0,0.0,0.0,0.0,0.0,0.0,0.0,0.0,0.0,0.0,0.0,0.0,0.0,0.0,0.0,0.0,0.0,0.0,0.0,0.0,0.0,0.0,0.0,0.0,0.0,0.0,0.0,0.0,0.0,0.0,0.0,0.0,0.0,0.0,0.0,0.0,0.0,0.0,0.0,0.0,0.0,0.0,0.0,0.0,0.0,0.0,0.0,0.0,0.0,0.0,0.0,0.0,0.0,0.0,0.0,0.0,0.0,0.0,0.0,0.0,0.0,0.0,0.0,0.0,0.0,0.0,0.0,0.0,0.0,0.0,0.0,0.0,0.0,0.0,0.0,0.0,0.0,0.0,0.0,0.0,0.0,0.0,0.0,0.0,0.0,0.0,0.0,0.0,0.0,0.0,0.0,0.0,0.0,0.0,0.0,0.0,0.0,0.0,0.0,0.0,0.0,0.0,0.0,0.0,0.0,0.0,0.0,0.0,0.0,0.0,0.0,0.0,0.0,0.0,0.0,0.0,0.0,0.0,0.0,0.0,0.0,0.0,0.0,0.0,0.0,0.0,0.0,0.0,0.0,0.0,0.0,0.0,0.0,0.0,0.0,0.0,0.0,0.0,0.0,0.0,0.0,0.0,0.0,0.0,0.0,0.0,0.0,0.0,0.0,0.0,0.0,0.0,0.0,0.0,0.0,0.0,0.0,0.0,0.0,0.0,0.0,0.0,0.0,0.0,0.0,0.0,0.0,0.0,0.0,0.0,0.0,0.0,0.0,0.0,0.0,0.0,0.0,0.0,0.0,0.0,0.0,0.0,0.0,0.0,0.0,0.0,0.0,0.0,0.0,0.0,0.0,0.0,0.0,0.0,0.0,-1.8718,0.0,0.0,0.0,0.0,0.0,0.0,0.0,0.0,0.0,0.0,0.0,0.0,0.0,0.0,0.0,0.0,0.0,0.0,0.0,0.0,0.0,0.0,0.0,0.0,0.0,0.0,0.0,0.0,0.0,0.0,0.0,0.0,0.0,0.0,0.0,0.0,0.0,0.0,0.0,0.0,0.0,0.0,0.0,0.0,0.0,0.0,0.0,0.0,0.0,0.0,0.0,0.0,0.0,0.0,0.0,0.0,0.0,0.0,0.0,0.0,0.0,0.0,0.0,0.0,0.0,0.0,0.0,0.0,0.0,0.0,0.0,0.0,0.0,0.0,0.0,0.0,0.0,0.0,0.0,0.0,0.0,0.0,0.0,0.0,0.0,0.0,0.0,0.0,0.0,0.0,0.0,0.0,0.0,0.0,0.0,0.0,0.0,0.0,0.0,0.0,0.0,0.0,0.0,0.0,0.0,0.0,0.0,0.0,0.0,0.0,0.0,0.0,0.0,0.0,0.0,0.0,-2.0124,0.0,0.0,0.0,0.0,0.0,0.0,0.0,0.0,0.0,0.0,0.0,0.0,0.0,0.0,0.0,0.0,0.0,0.0,0.0,0.0,0.0,0.0,0.0,0.0,0.0,0.0,0.0,0.0,0.0,0.0,0.0,0.0,0.0,0.0,0.0,0.0,0.0,0.0,0.0,0.0,0.0,0.0,0.0,0.0,0.0,0.0,0.0,0.0,0.0,0.0,0.0,0.0,0.0,0.0,0.0,0.0,0.0,0.0,0.0,0.0,0.0,0.0,0.0,0.0,0.0,0.0,0.0,0.0,0.0,0.0,0.0,0.0,0.0,0.0,0.0,0.0,0.0,0.0,0.0,0.0,0.0,0.0,0.0,0.0,0.0,0.0,0.0,0.0,0.0,0.0,0.0,0.0,0.0,0.0,0.0,0.0,0.0,0.0,0.0,0.0,0.0,0.0,0.0,0.0,0.0,0.0,0.0,0.0,-2.0004,-2.0495,-2.0981,-2.1706,-2.1665,-2.0953,-2.037,-2.0177,-2.0177,0.0,0.0,0.0,0.0,0.0,0.0,0.0,0.0,0.0,0.0,0.0,0.0,0.0,0.0,0.0,0.0,0.0,0.0,0.0,0.0,0.0,0.0,0.0,0.0,0.0,0.0,0.0,0.0,0.0,0.0,0.0,0.0,0.0,0.0,0.0,0.0,0.0,0.0,0.0,-1.357,-1.3981,-1.4257,-1.4286,0.0,0.0,0.0,0.0,0.0,0.0,0.0,0.0,0.0,0.0,0.0,0.0,0.0,0.0,0.0,0.0,0.0,0.0,0.0,0.0,0.0,0.0,0.0,0.0,0.0,0.0,0.0,0.0,0.0,0.0,0.0,0.0,0.0,0.0,0.0,0.0,0.0,0.0,0.0,0.0,0.0,0.0,0.0,0.0,-1.1052,-1.3191,0.0,0.0,0.0,0.0,0.0,0.0,0.0,0.0,0.0,0.0,0.0,0.0,0.0,-1.9261,-2.0257,-2.0273,-2.0874,-2.1993,-2.1629,-2.1702,-2.2105,-2.2975,-2.2894,-2.2081,-2.1992,0.0,-1.9818,-2.0158,0.0,0.0,0.0,0.0,0.0,0.0,0.0,0.0,0.0,0.0,0.0,0.0,0.0,0.0,0.0,0.0,0.0,0.0,0.0,0.0,0.0,0.0,0.0,0.0,0.0,0.0,0.0,0.0,0.0,0.0,0.0,0.0,0.0,0.0,0.0,0.0,-1.2742,-1.364,-1.444,-1.4737,-1.4828,-1.4818,-1.4668,-1.4164,-1.342,-1.3684,0.0,0.0,0.0,0.0,0.0,0.0,0.0,0.0,0.0,0.0,0.0,0.0,0.0,0.0,0.0,0.0,0.0,0.0,0.0,0.0,0.0,0.0,0.0,0.0,0.0,0.0,0.0,0.0,0.0,0.0,0.0,0.0,0.0,0.0,0.0,0.0,0.0,0.0,0.0,-1.3097,-1.3392,-1.3386,-1.4221,-1.5129,0.0,0.0,0.0,0.0,0.0,0.0,0.0,0.0,0.0,-1.9579,-1.9835,-2.0334,-2.1095,-2.1588,-2.228,-2.3142,-2.2979,-2.324,-2.3836,-2.4744,-2.4911,-2.45,-2.3473,-2.2387,-2.133,-2.0377,-2.0102,-2.0314,0.0,0.0,0.0,0.0,-2.0991,-2.0959,0.0,0.0,0.0,0.0,0.0,0.0,0.0,0.0,0.0,0.0,0.0,0.0,0.0,0.0,0.0,0.0,0.0,0.0,0.0,0.0,0.0,0.0,0.0,0.0,0.0,0.0,0.0,0.0,-1.324,-1.4071,-1.5111,-1.5111,-1.5173,-1.5223,-1.5223,-1.4666,-1.3717,-1.3717,-1.3377,0.0,0.0,0.0,0.0,0.0,0.0,0.0,0.0,0.0,0.0,0.0,0.0,0.0,0.0,0.0,0.0,0.0,0.0,0.0,0.0,0.0,0.0,0.0,0.0,0.0,0.0,0.0,0.0,0.0,0.0,0.0,0.0,0.0,0.0,0.0,0.0,0.0,0.0,-1.4309,-1.4492,-1.3815,-1.4856,-1.582,0.0,0.0,0.0,0.0,0.0,0.0,-1.8807,-1.9359,-2.01,-2.1054,-2.1479,-2.1933,-2.2439,-2.344,-2.4272,-2.4804,-2.4797,-2.5105,-2.5697,-2.6312,-2.6512,-2.6245,-2.5123,-2.4101,-2.3026,-2.0912,-2.0281,-2.063,-2.0461,-2.0702,-2.1151,-2.0978,-2.0915,-2.0881,0.0,0.0,0.0,0.0,0.0,0.0,0.0,0.0,0.0,0.0,0.0,0.0,0.0,0.0,0.0,0.0,0.0,0.0,0.0,0.0,0.0,0.0,0.0,0.0,0.0,0.0,0.0,-1.3455,-1.3455,-1.3936,-1.4802,-1.4802,-1.5017,-1.54,-1.54,-1.4704,-1.3527,-1.3527,-1.3292,-1.2881,0.0,0.0,0.0,0.0,0.0,0.0,0.0,0.0,0.0,0.0,0.0,0.0,0.0,0.0,0.0,0.0,0.0,0.0,0.0,0.0,0.0,0.0,0.0,0.0,0.0,0.0,0.0,0.0,0.0,0.0,0.0,0.0,0.0,0.0,0.0,0.0,0.0,0.0,0.0,-1.525,-1.5572,0.0,0.0,0.0,0.0,-1.8078,-1.9095,-1.9936,-2.0567,-2.1066,-2.1631,-2.2209,-2.3501,-2.4443,-2.5024,-2.639,-2.7453,-2.8124,-2.7512,-2.7291,-2.7453,-2.7506,-2.7098,-2.6344,-2.707,-2.63,-2.4313,-2.1939,-2.1208,-2.1569,-2.094,-2.1075,-2.1594,-2.0963,-2.0738,-2.07,0.0,0.0,0.0,0.0,0.0,0.0,0.0,0.0,0.0,0.0,0.0,0.0,0.0,0.0,0.0,0.0,0.0,0.0,0.0,0.0,0.0,0.0,0.0,0.0,0.0,0.0,-1.3921,-1.5152,-1.4865,-1.5725,-1.7578,-1.7002,-1.6797,-1.6951,-1.6951,-1.6296,-1.5117,-1.4561,-1.4082,-1.3662,-1.3389,-1.2598,0.0,0.0,0.0,0.0,0.0,0.0,0.0,0.0,0.0,0.0,0.0,0.0,0.0,0.0,0.0,0.0,0.0,0.0,0.0,0.0,0.0,0.0,0.0,0.0,0.0,0.0,0.0,0.0,0.0,0.0,0.0,0.0,0.0,0.0,0.0,0.0,0.0,-1.7168,-1.8227,0.0,-1.9183,-1.9698,-2.0112,-2.03,-2.1004,-2.1656,-2.2221,-2.3138,-2.3879,-2.4406,-2.5753,-2.6588,-2.6799,-2.8413,-2.9326,-2.9636,-2.9925,-3.0067,-3.0093,-2.9529,-2.8824,-2.797,-2.7725,-2.6939,-2.5809,-2.4807,-2.3578,-2.2308,-2.2069,-2.1859,-2.1665,-2.144,-2.1335,-2.1291,0.0,0.0,0.0,0.0,0.0,0.0,0.0,0.0,0.0,0.0,0.0,0.0,0.0,0.0,0.0,0.0,0.0,0.0,0.0,0.0,0.0,0.0,0.0,0.0,0.0,-1.3298,-1.4616,-1.6531,-1.6222,-1.7231,-1.9407,-1.8862,-1.8552,-1.8553,-1.8553,-1.7951,-1.6885,-1.6172,-1.5283,-1.4262,-1.3623,-1.2638,-1.1447,0.0,0.0,0.0,0.0,0.0,0.0,0.0,0.0,0.0,0.0,0.0,0.0,0.0,0.0,0.0,0.0,0.0,0.0,0.0,0.0,0.0,0.0,0.0,0.0,0.0,0.0,0.0,0.0,0.0,0.0,0.0,0.0,0.0,0.0,0.0,-1.8618,-1.8995,-2.0326,-2.1217,-2.1217,-2.1895,-2.241,-2.2598,-2.3113,-2.3753,-2.4494,-2.5548,-2.6396,-2.6867,-2.8425,-2.9125,-2.8906,-3.0325,-3.0922,-3.0703,-3.1258,-3.1283,-3.0845,-3.0117,-2.9312,-2.8441,-2.785,-2.732,-2.695,-2.6793,-2.5679,-2.3954,-2.3505,-2.3071,-2.2652,-2.2413,-2.2203,-2.1934,0.0,0.0,0.0,0.0,0.0,0.0,0.0,0.0,0.0,0.0,0.0,0.0,0.0,0.0,0.0,0.0,0.0,0.0,0.0,0.0,0.0,0.0,0.0,0.0,0.0,0.0,0.0,-1.7547,-1.7509,-1.8398,-2.0205,-2.0193,-2.0156,-2.0139,-2.0139,-1.954,-1.8633,-1.8223,-1.6826,-1.4788,-1.3635,-1.3059,-1.267,0.0,0.0,0.0,0.0,0.0,0.0,0.0,0.0,0.0,0.0,0.0,0.0,0.0,0.0,0.0,0.0,0.0,0.0,0.0,0.0,0.0,0.0,0.0,0.0,0.0,0.0,0.0,0.0,0.0,0.0,0.0,0.0,0.0,-1.8229,-1.8744,-1.9547,-2.0693,-2.1757,-2.2447,-2.246,-2.3477,-2.4343,-2.4883,-2.5385,-2.6151,-2.7314,-2.8248,-2.9035,-2.9508,-3.1264,-3.1887,-3.1224,-3.2018,-3.2153,-3.1482,-3.1482,-3.0851,-2.9594,-2.9178,-2.8464,-2.7655,-2.7655,-2.764,-2.7625,-2.7625,-2.72,-2.6497,-2.5196,-2.4627,-2.4522,-2.3879,-2.3236,-2.2634,0.0,0.0,0.0,0.0,0.0,0.0,0.0,0.0,0.0,0.0,0.0,0.0,0.0,0.0,0.0,0.0,0.0,0.0,0.0,0.0,0.0,0.0,0.0,0.0,0.0,0.0,0.0,0.0,-1.9991,-2.0808,-2.2574,-2.1907,-2.1261,-2.0635,-2.0635,-2.0082,-1.9102,-1.8984,-1.8232,-1.6938,-1.4763,-1.3252,-1.2155,0.0,0.0,0.0,0.0,0.0,0.0,0.0,0.0,0.0,0.0,0.0,0.0,0.0,0.0,0.0,0.0,0.0,0.0,0.0,0.0,0.0,0.0,0.0,0.0,0.0,0.0,0.0,0.0,0.0,0.0,0.0,0.0,-1.8807,-1.8807,-2.0313,-2.1832,-2.2949,-2.4406,-2.5473,-2.5875,-2.6553,-2.7042,-2.7193,-2.7331,-2.7817,-2.8864,-2.9566,-3.0151,-3.0609,-3.1608,-3.1824,-3.1224,-3.1575,-3.1661,-3.1482,-3.1482,-3.1091,-3.0253,-3.0123,-2.9421,-2.8323,-2.8323,-2.8038,-2.7625,-2.7625,-2.7505,-2.7215,-2.6378,-2.5749,-2.5255,-2.4597,-2.364,-2.2694,0.0,0.0,0.0,0.0,0.0,0.0,0.0,0.0,0.0,0.0,0.0,0.0,0.0,0.0,0.0,0.0,0.0,0.0,0.0,0.0,0.0,0.0,0.0,0.0,0.0,0.0,0.0,0.0,0.0,-2.2751,-2.4371,-2.4118,-2.3351,-2.2204,-2.2483,-2.1659,-2.0088,-1.9902,-1.9434,-1.8601,-1.6253,-1.4613,-1.3346,-1.1516,-1.0519,-1.0059,-0.9425,-0.9092,-0.8985,-0.8985,0.0,0.0,0.0,0.0,0.0,0.0,0.0,0.0,0.0,0.0,0.0,0.0,0.0,0.0,0.0,0.0,0.0,0.0,0.0,0.0,0.0,0.0,0.0,0.0,-1.9936,-2.0861,-2.1393,-2.256,-2.3866,-2.5209,-2.6628,-2.762,-2.7946,-2.8816,-2.9417,-2.9417,-2.9535,-2.9998,-3.0778,-3.132,-3.1709,-3.1886,-3.2948,-3.2928,-3.1775,-3.2406,-3.2347,-3.1482,-3.175,-3.1435,-3.0507,-3.0507,-2.9953,0.0,-2.8727,-2.8368,-2.7979,-2.7745,-2.7625,0.0,0.0,0.0,0.0,0.0,-2.4148,-2.346,0.0,0.0,0.0,0.0,0.0,0.0,0.0,0.0,0.0,0.0,0.0,0.0,0.0,0.0,0.0,0.0,0.0,0.0,0.0,0.0,0.0,0.0,0.0,0.0,0.0,0.0,0.0,0.0,0.0,0.0,0.0,-2.6264,-2.5637,-2.4137,-2.457,-2.3519,-2.1289,-2.0879,-2.043,-1.9808,-1.7947,-1.6578,-1.5322,-1.2594,-1.1783,-1.1805,-1.0276,-0.9566,-0.9276,-0.925,0.0,0.0,0.0,0.0,0.0,0.0,0.0,0.0,0.0,0.0,0.0,0.0,0.0,0.0,0.0,0.0,0.0,0.0,0.0,0.0,0.0,0.0,0.0,0.0,-2.2033,-2.3828,-2.5021,-2.5247,-2.5824,-2.7293,-2.8335,-2.895,-2.9026,-3.0248,-3.1106,-3.118,-3.1544,-3.2041,-3.2707,0.0,0.0,0.0,0.0,-3.4502,-3.2647,-3.3709,-3.338,-3.1601,-3.2153,-3.1734,-3.0507,-3.0507,-3.0163,-2.9549,-2.8966,-2.8712,-2.8667,-2.8053,-2.7754,-2.773,-2.7655,-2.7171,-2.6452,-2.527,-2.4701,-2.4507,0.0,0.0,0.0,0.0,0.0,0.0,0.0,0.0,0.0,0.0,0.0,0.0,0.0,0.0,0.0,0.0,0.0,0.0,0.0,0.0,0.0,0.0,0.0,0.0,0.0,0.0,0.0,0.0,0.0,0.0,0.0,0.0,-2.5383,-2.3515,-2.3599,-2.2909,-2.1758,-2.167,-2.1172,-2.042,-2.0013,-1.8394,-1.5887,-1.3252,-1.214,-1.1843,-1.0511,-0.9993,-0.9913,-0.9679,-0.9023,-0.8235,-0.8155,0.0,0.0,0.0,0.0,0.0,0.0,0.0,0.0,0.0,0.0,0.0,0.0,0.0,0.0,0.0,0.0,0.0,0.0,0.0,0.0,-2.2862,-2.4268,-2.5674,-2.7243,-2.7846,-2.8247,-2.8574,-2.88,-2.9114,-2.9578,-2.9871,-3.0419,-3.1106,-3.1282,-3.2055,-3.3656,-3.3762,0.0,-3.4218,-3.4528,-3.4233,-3.332,-3.3036,-3.2706,-3.2317,0.0,0.0,-3.0507,-3.0507,-3.0163,-2.9564,-2.9445,-2.94,-2.9385,-2.925,-2.8876,-2.8353,-2.7784,-2.7171,-2.6557,-2.6303,-2.554,-2.4642,0.0,0.0,0.0,0.0,0.0,0.0,0.0,0.0,0.0,0.0,0.0,0.0,0.0,0.0,0.0,0.0,0.0,0.0,0.0,0.0,0.0,0.0,0.0,0.0,0.0,0.0,0.0,0.0,0.0,0.0,0.0,0.0,0.0,-2.4475,-2.4805,-2.4033,-2.25,-2.2295,-2.1943,-2.1484,-2.083,-1.9626,-1.7854,-1.553,-1.4247,-1.3523,-1.1836,-1.0892,-1.0294,-1.0,-0.9499,-0.9053,-0.8985,-0.8551,-0.8131,0.0,0.0,0.0,0.0,0.0,0.0,0.0,0.0,0.0,0.0,0.0,0.0,0.0,0.0,-1.7915,0.0,0.0,-2.3288,-2.4958,-2.6138,-2.7243,-2.836,-2.9001,-2.9365,-2.9365,-2.9365,-2.9682,-3.0469,-3.0908,-3.1623,-3.2522,-3.3045,-3.3768,-3.4691,-3.4758,-3.4676,-3.4502,-3.4472,-3.4008,-3.3021,-3.3335,-3.3155,-3.2512,-3.2841,-3.2647,-3.1988,-3.1659,-3.1345,-3.1016,-3.0342,-3.0043,-2.9998,-2.9469,-2.9004,-2.8532,-2.7844,-2.743,-2.7036,-2.6707,-2.6183,-2.5615,0.0,0.0,0.0,0.0,0.0,0.0,0.0,0.0,0.0,0.0,0.0,0.0,0.0,0.0,0.0,0.0,0.0,0.0,0.0,0.0,0.0,0.0,0.0,0.0,0.0,0.0,0.0,0.0,0.0,0.0,0.0,0.0,0.0,0.0,-2.5633,-2.4808,-2.3115,-2.2783,-2.2588,-2.2412,-2.1279,-2.0566,-1.9944,-1.7701,-1.6254,-1.4993,-1.2867,-1.1439,-1.0571,-1.0154,-0.9755,-0.9434,-0.9433,-0.9199,-0.8942,-0.889,-0.8877,0.0,0.0,0.0,0.0,0.0,0.0,0.0,0.0,0.0,-1.5022,-1.6607,-1.8392,-2.022,-2.1926,-2.3928,-2.5661,-2.6753,-2.7783,-2.8586,-2.9038,-2.9503,-2.9754,-2.9641,-2.9858,-3.0343,-3.1106,-3.2033,-3.2961,-3.3945,-3.4758,-3.5279,-3.5504,-3.5385,-3.4996,-3.4307,-3.4412,-3.3903,-3.2721,-3.3888,-3.3948,-3.2901,-3.3844,-3.4008,-3.3469,-3.2811,-3.2512,-3.2437,-3.1225,-3.0702,-3.0627,-2.9753,-2.9229,-2.8906,-2.8338,-2.8053,-2.791,-2.7081,-2.6692,-2.6527,0.0,0.0,0.0,0.0,0.0,0.0,0.0,0.0,0.0,0.0,0.0,0.0,0.0,0.0,0.0,0.0,0.0,0.0,0.0,0.0,0.0,0.0,0.0,0.0,0.0,0.0,0.0,0.0,0.0,0.0,0.0,0.0,0.0,0.0,0.0,-2.3299,-2.3135,-2.3086,-2.2852,-2.2471,-2.1953,-2.1475,-2.074,-1.8313,-1.6246,-1.444,-1.2064,-1.0931,-1.0537,-0.992,-0.922,-0.8498,-0.8393,-0.8235,-0.8046,-0.7883,0.0,-0.8804,-0.8804,-0.9211,-0.9985,-1.1121,-1.2139,-1.3259,0.0,0.0,-1.6874,-1.8385,-1.9995,-2.1838,-2.3958,-2.5815,-2.7369,-2.8473,-2.9189,-2.9628,-2.9691,-2.9754,-2.9603,-2.9089,-3.0235,-3.1106,-3.118,-3.2033,-3.2961,-3.3945,-3.4095,-3.4543,-3.5424,-3.4921,-3.4277,-3.3619,-3.4173,-3.4128,-3.3395,-3.4113,-3.4397,-3.4247,-3.3814,-3.3559,-3.3469,-3.2811,-3.2512,-3.2482,-3.1734,-3.1362,-3.1347,-3.1285,-3.0851,-3.0268,-2.9978,-2.9689,-2.9205,-2.7934,-2.7096,-2.6662,0.0,0.0,0.0,0.0,0.0,0.0,0.0,0.0,0.0,0.0,0.0,0.0,0.0,0.0,0.0,0.0,0.0,0.0,0.0,0.0,0.0,0.0,0.0,0.0,0.0,0.0,0.0,0.0,0.0,0.0,0.0,0.0,0.0,0.0,0.0,0.0,-2.3135,-2.3135,-2.2891,-2.248,-2.206,-2.1318,-2.0149,-1.7415,-1.5429,-1.3982,-1.221,-1.1038,0.0,0.0,-0.944,-0.9124,-0.9068,-0.8858,-0.8645,-0.8587,-0.8663,0.0,-0.9256,-0.9938,-1.0895,0.0,-1.3705,-1.5046,-1.6529,-1.7598,-1.8547,-1.9697,-2.1916,-2.3977,-2.5131,-2.7184,-2.89,0.0,-2.9641,-2.9792,-2.9792,-2.9503,-2.9089,-2.8511,-2.96,-3.0553,-3.0905,-3.1763,-3.272,-3.3627,-3.4044,-3.446,-3.4906,-3.5011,-3.4951,-3.4681,-3.4547,-3.4352,-3.4068,-3.4337,-3.4472,-3.4472,-3.4607,-3.4457,-3.4053,-3.3784,-3.3245,-3.2482,-3.1824,-3.1482,-3.1524,-3.1516,-3.1084,-3.0477,-3.0263,-2.9933,-2.946,-2.8517,-2.7993,-2.7739,0.0,0.0,0.0,0.0,0.0,0.0,0.0,0.0,0.0,0.0,0.0,0.0,0.0,0.0,0.0,0.0,0.0,0.0,0.0,0.0,0.0,0.0,0.0,0.0,0.0,0.0,0.0,0.0,0.0,0.0,0.0,0.0,0.0,0.0,0.0,0.0,0.0,-2.3018,-2.2793,-2.2451,-2.1787,-2.081,-1.9432,-1.6457,-1.4652,-1.3559,-1.192,-1.0703,0.0,0.0,-0.9446,-0.9446,-0.9446,-0.9292,-0.9064,-0.9064,-0.9072,-0.932,-1.0364,0.0,0.0,-1.4258,-1.5705,-1.7015,-1.8446,-1.9385,-2.0434,-2.1781,-2.3781,-2.5554,-2.6459,-2.8106,-2.9377,-2.9528,-2.9553,-2.9616,-2.9767,-2.9026,-2.8323,-2.7921,-2.8625,-2.9256,-2.9762,-3.1247,-3.2493,-3.3154,-3.4008,-3.4472,-3.4472,-3.4951,-3.522,-3.522,-3.4741,-3.4472,-3.4472,-3.4666,-3.4756,-3.4756,-3.5265,-3.525,-3.4756,-3.4562,-3.3858,-3.2751,-3.2093,-3.1809,-3.1779,-3.1603,-3.1216,-3.0761,-3.0603,-3.0378,-3.0043,-2.937,-2.8906,-2.8562,0.0,0.0,0.0,0.0,0.0,0.0,0.0,0.0,0.0,0.0,0.0,0.0,0.0,0.0,0.0,0.0,0.0,0.0,0.0,0.0,0.0,0.0,0.0,0.0,0.0,0.0,0.0,0.0,0.0,0.0,0.0,0.0,0.0,0.0,0.0,0.0,0.0,0.0,-2.2519,-2.2402,-2.1123,-2.0088,-1.8967,-1.5757,-1.4258,-1.3438,-1.0726,0.0,0.0,0.0,-0.8831,-0.8831,-0.8831,-0.8831,0.0,-0.8824,-0.9271,0.0,0.0,0.0,-1.4729,-1.6462,-1.8062,-1.9434,-2.0293,-2.1172,-2.2563,-2.5084,-2.5596,-2.6256,-2.8447,-2.8437,-2.8335,-2.8863,-2.895,-2.9151,-2.9716,-2.8373,-2.7318,-2.7306,-2.7309,-2.729,0.0,-3.0468,-3.2482,-3.2542,-3.3739,-3.4472,-3.4472,-3.4502,-3.4502,-3.4502,-3.4487,-3.4472,-3.4472,-3.513,-3.5474,-3.5474,-3.5489,-3.5489,-3.5444,-3.4786,-3.4098,-3.3425,-3.2766,-3.2482,-3.2437,-3.1779,-3.1509,-3.1437,-3.148,-3.1422,-3.1332,-3.0702,-2.9654,-2.8682,0.0,0.0,0.0,0.0,0.0,0.0,0.0,0.0,0.0,0.0,0.0,0.0,0.0,0.0,0.0,0.0,0.0,0.0,0.0,0.0,0.0,0.0,0.0,0.0,0.0,0.0,0.0,0.0,0.0,0.0,0.0,0.0,0.0,0.0,0.0,0.0,0.0,0.0,0.0,-2.1103,-1.9805,-1.8945,-1.8144,-1.5184,-1.3749,-1.3085,0.0,0.0,0.0,0.0,0.0,0.0,-0.8804,0.0,0.0,-0.9309,-1.0223,-1.1461,-1.336,0.0,-1.6921,-1.8543,-1.9994,-2.1162,-2.1728,-2.2305,-2.2918,-2.384,-2.4004,-2.4179,-2.492,-2.5524,-2.6226,-2.7143,-2.7908,-2.8574,-2.9139,-2.8737,-2.7833,-2.6339,-2.7391,0.0,0.0,0.0,0.0,-3.115,-3.2422,-3.3365,-3.3799,-3.4681,-3.516,-3.516,-3.516,-3.516,-3.516,-3.5385,-3.5504,-3.5504,-3.504,-3.5055,-3.5474,-3.4337,-3.3948,-3.4083,-3.2991,-3.2766,-3.311,-3.2452,-3.2183,-3.2183,-3.2183,-3.1913,-3.1452,-3.127,-3.0627,-2.9834,0.0,0.0,0.0,0.0,0.0,0.0,0.0,0.0,0.0,0.0,0.0,0.0,0.0,0.0,0.0,0.0,0.0,0.0,0.0,0.0,0.0,0.0,0.0,0.0,0.0,0.0,0.0,0.0,0.0,0.0,0.0,0.0,0.0,0.0,0.0,0.0,0.0,0.0,0.0,-1.9326,-1.8184,-1.7373,-1.6617,-1.4369,-1.3305,0.0,0.0,0.0,0.0,0.0,0.0,0.0,0.0,-0.9439,-0.994,-1.0961,-1.2028,-1.339,-1.5541,-1.7401,-1.9031,-2.0508,-2.1592,-2.2402,-2.2676,-2.2715,-2.277,-2.3039,-2.2713,-2.2464,-2.2757,-2.3281,-2.3991,-2.5096,-2.6038,-2.7042,-2.8185,-2.7996,-2.7561,-2.7033,-2.7943,-2.8124,0.0,0.0,0.0,-3.0163,-3.1854,-3.3051,-3.3469,-3.4771,-3.5504,-3.5504,-3.5504,-3.5504,-3.5504,-3.5504,-3.5504,-3.5504,-3.5055,-3.507,-3.5474,-3.4607,-3.4442,-3.4786,-3.3679,-3.332,-3.344,-3.2781,-3.2512,-3.2512,-3.2512,-3.2392,-3.2213,-3.1973,-3.1599,-3.1135,0.0,0.0,0.0,0.0,0.0,0.0,0.0,0.0,0.0,0.0,0.0,0.0,0.0,0.0,0.0,0.0,0.0,0.0,0.0,0.0,0.0,0.0,0.0,0.0,-1.5342,-1.5905,-1.6609,-1.7285,0.0,0.0,0.0,0.0,0.0,0.0,0.0,0.0,0.0,0.0,0.0,-1.7236,-1.6328,0.0,-1.4671,-1.3533,0.0,0.0,0.0,0.0,0.0,0.0,0.0,0.0,0.0,-1.068,-1.1939,-1.3435,-1.4552,-1.5844,-1.8666,-2.001,-2.0977,-2.2256,-2.2842,-2.3096,-2.3047,-2.2393,-2.198,-2.2787,-2.1779,-2.1062,0.0,0.0,-2.1782,-2.2949,-2.369,-2.4883,-2.7055,-2.6477,-2.6693,0.0,0.0,0.0,0.0,0.0,0.0,-2.9774,0.0,-3.3469,-3.3544,-3.4801,-3.5504,-3.5504,-3.5504,-3.5504,-3.5504,-3.5504,-3.5504,-3.5504,-3.5504,-3.5504,-3.5504,-3.5504,-3.5504,-3.5474,-3.4771,-3.4143,-3.3544,-3.2886,-3.2617,-3.2617,-3.2617,-3.2976,-3.3425,-3.2766,-3.2512,-3.2422,0.0,0.0,0.0,0.0,0.0,0.0,0.0,0.0,0.0,0.0,0.0,0.0,0.0,0.0,0.0,0.0,0.0,0.0,0.0,0.0,0.0,0.0,0.0,0.0,0.0,-1.4916,-1.5409,-1.5918,0.0,0.0,0.0,0.0,0.0,0.0,0.0,0.0,0.0,0.0,0.0,-1.6299,0.0,-1.4697,-1.4668,0.0,0.0,0.0,0.0,0.0,0.0,0.0,0.0,0.0,0.0,-1.2372,-1.3614,-1.4852,-1.6269,-1.7993,-2.0168,-2.1367,-2.2246,-2.3223,-2.3066,-2.25,-2.1865,-2.1045,-2.0422,-2.0465,-1.9276,-1.8431,0.0,0.0,0.0,-2.2824,-2.4657,0.0,-2.826,-2.8637,0.0,-2.891,0.0,-3.0573,-3.0153,-3.1708,0.0,0.0,-3.2392,-3.3185,-3.4173,-3.504,-3.5504,-3.5504,-3.5504,-3.5504,-3.5504,-3.5504,-3.5504,-3.5504,-3.5504,-3.5504,-3.5504,-3.5504,-3.5504,-3.5474,-3.4771,-3.4681,-3.4936,-3.4262,-3.3978,-3.3978,-3.3978,-3.3784,-3.3425,-3.2766,-3.2512,-3.2497,0.0,0.0,0.0,0.0,0.0,0.0,0.0,0.0,0.0,0.0,0.0,0.0,0.0,0.0,0.0,0.0,0.0,0.0,0.0,0.0,0.0,0.0,0.0,0.0,0.0,0.0,0.0,0.0,0.0,0.0,0.0,0.0,0.0,0.0,0.0,0.0,0.0,0.0,0.0,0.0,0.0,0.0,0.0,0.0,0.0,0.0,0.0,0.0,0.0,0.0,0.0,-1.3208,-1.3541,-1.4756,-1.6221,-1.722,0.0,-2.0184,-2.1603,-2.2559,-2.3184,-2.3672,-2.3008,-2.2012,-2.1143,-2.0177,-1.931,-1.8725,-1.7812,0.0,0.0,0.0,0.0,0.0,0.0,0.0,-2.7193,-2.8386,-2.9372,0.0,-3.1404,0.0,-3.2167,-3.3223,-3.3769,0.0,-3.338,-3.3694,-3.4442,-3.513,-3.5504,-3.5504,-3.5504,-3.5504,-3.5504,-3.5504,-3.5504,-3.5504,-3.5504,-3.5504,-3.5504,-3.5504,-3.5504,-3.5489,0.0,-3.4981,-3.5026,-3.4637,-3.4472,-3.4472,-3.4472,-3.4442,-3.4292,-3.3619,-3.338,-3.329,0.0,0.0,0.0,0.0,0.0,0.0,0.0,0.0,0.0,0.0,0.0,0.0,0.0,0.0,0.0,0.0,0.0,0.0,0.0,0.0,0.0,0.0,0.0,0.0,0.0,0.0,0.0,0.0,0.0,0.0,0.0,0.0,0.0,0.0,0.0,0.0,0.0,0.0,0.0,0.0,0.0,0.0,0.0,0.0,0.0,0.0,0.0,0.0,0.0,0.0,-1.4773,-1.4884,-1.5817,-1.7396,-1.9141,-1.9941,-2.1064,-2.2227,-2.3008,-2.3496,-2.3789,-2.3789,-2.2695,-2.1396,-2.0663,-1.9425,-1.8207,-1.7334,0.0,-1.6693,-1.6511,-1.7049,-1.7903,-1.9145,0.0,-2.3238,-2.5598,-2.718,-2.9194,-3.2099,-3.2522,-3.3099,-3.4303,-3.4528,-3.4607,-3.4607,-3.4607,-3.4607,-3.4607,-3.5175,-3.5504,-3.5504,-3.5504,-3.5504,-3.5504,-3.5504,-3.5504,-3.5504,-3.5504,-3.5504,-3.5504,-3.5504,-3.5504,-3.5504,0.0,0.0,-3.4607,-3.4607,-3.4607,-3.4607,-3.4607,-3.4981,-3.5429,-3.4726,-3.4472,-3.4307,0.0,0.0,0.0,0.0,0.0,0.0,0.0,0.0,0.0,0.0,0.0,0.0,0.0,0.0,0.0,0.0,0.0,0.0,0.0,0.0,0.0,0.0,0.0,0.0,0.0,0.0,0.0,0.0,0.0,0.0,0.0,0.0,0.0,0.0,0.0,0.0,0.0,0.0,0.0,0.0,0.0,0.0,0.0,0.0,0.0,0.0,0.0,0.0,0.0,0.0,-1.571,-1.6519,-1.7707,-1.9296,-2.0879,-2.1396,-2.2197,-2.3037,-2.3535,-2.373,-2.3789,-2.3789,-2.2012,-2.018,-1.989,-1.7965,0.0,0.0,0.0,-1.5948,-1.6417,-1.7363,0.0,-2.074,0.0,0.0,0.0,0.0,-2.8928,0.0,0.0,0.0,0.0,0.0,0.0,0.0,0.0,-3.5325,-3.5325,-3.5444,-3.5504,-3.5504,-3.5504,-3.5504,-3.5504,-3.5504,-3.5504,-3.5504,-3.5504,-3.5504,-3.5504,-3.5504,-3.5504,-3.5504,-3.5504,0.0,-3.5325,-3.5325,-3.5325,-3.5325,-3.5325,-3.54,-3.5429,-3.4726,-3.4472,-3.4442,0.0,0.0,0.0,0.0,0.0,0.0,0.0,0.0,0.0,0.0,-0.848,0.0,0.0,0.0,0.0,0.0,0.0,0.0,0.0,0.0,0.0,0.0,0.0,0.0,0.0,0.0,0.0,0.0,0.0,0.0,0.0,0.0,0.0,0.0,0.0,0.0,0.0,0.0,0.0,0.0,0.0,0.0,0.0,0.0,0.0,0.0,0.0,0.0,0.0,0.0,-1.5508,-1.6387,-1.8359,-2.001,-2.1318,-2.1758,-2.248,-2.3232,-2.3672,-2.4217,-2.4591,-2.427,-2.259,-2.0684,-1.9863,0.0,0.0,0.0,-1.6013,-1.6151,-1.6436,0.0,0.0,0.0,0.0,0.0,0.0,0.0,0.0,0.0,0.0,0.0,0.0,0.0,0.0,0.0,0.0,-3.5504,-3.5504,-3.5504,-3.5504,-3.5504,-3.5504,-3.5504,-3.5504,-3.5504,-3.5504,-3.5504,-3.5504,-3.5504,-3.5504,-3.5504,-3.5504,-3.5504,-3.5504,0.0,-3.5504,-3.5504,-3.5504,-3.5504,-3.5504,-3.5504,-3.5459,-3.513,-3.5011,-3.4966,0.0,0.0,0.0,0.0,0.0,0.0,0.0,-0.8593,-0.8804,-0.8804,-0.8804,-0.8804,-0.8804,-0.8804,0.0,0.0,0.0,0.0,0.0,0.0,0.0,0.0,0.0,0.0,0.0,0.0,0.0,0.0,0.0,0.0,0.0,0.0,0.0,0.0,0.0,0.0,0.0,0.0,0.0,0.0,0.0,0.0,0.0,0.0,0.0,0.0,0.0,0.0,0.0,0.0,-1.4863,-1.5527,-1.7754,-1.9541,-2.0918,-2.1445,-2.2424,-2.3424,-2.387,-2.4913,-2.5592,-2.4851,-2.3102,-2.1308,-1.9986,-1.8127,0.0,0.0,-1.6194,-1.6522,-1.6522,0.0,0.0,0.0,0.0,0.0,0.0,0.0,0.0,0.0,0.0,0.0,0.0,0.0,0.0,0.0,0.0,0.0,-3.5504,-3.5504,-3.5504,-3.5504,-3.5504,-3.5504,-3.5504,-3.5504,-3.5504,-3.5504,-3.5504,-3.5504,-3.5504,-3.5504,-3.5504,-3.5504,-3.5504,0.0,0.0,-3.5504,-3.5504,-3.5504,-3.5504,-3.5504,-3.5504,-3.5504,-3.5619,-3.5642,0.0,0.0,0.0,0.0,0.0,0.0,0.0,-0.7937,-0.8804,-0.8804,-0.8804,-0.8804,-0.8804,-0.8804,0.0,0.0,0.0,0.0,0.0,0.0,0.0,0.0,0.0,0.0,0.0,0.0,0.0,0.0,0.0,0.0,0.0,0.0,0.0,0.0,0.0,0.0,0.0,0.0,0.0,0.0,0.0,0.0,0.0,0.0,0.0,0.0,0.0,0.0,0.0,0.0,0.0,-1.4379,-1.5449,-1.7471,-1.9629,-2.0449,0.0,0.0,-2.4565,-2.584,-2.6612,-2.5145,-2.2755,-2.0583,-1.9955,0.0,0.0,-1.6306,-1.6479,-1.6522,-1.6522,-1.696,0.0,0.0,0.0,0.0,0.0,0.0,0.0,0.0,0.0,0.0,0.0,0.0,0.0,0.0,0.0,0.0,-3.5504,-3.5504,-3.5504,-3.5504,-3.5504,-3.5504,-3.5504,-3.5504,-3.5504,-3.5504,-3.5504,-3.5504,-3.5504,-3.5504,-3.5504,-3.5504,-3.5504,0.0,0.0,-3.5504,-3.5504,-3.5504,-3.5504,-3.5504,-3.5504,-3.5504,-3.5943,-3.6492,0.0,0.0,0.0,0.0,0.0,0.0,0.0,-0.8156,-0.8804,-0.8804,-0.8804,-0.8804,-0.8804,-0.8804,0.0,0.0,0.0,0.0,0.0,0.0,0.0,0.0,0.0,0.0,0.0,0.0,0.0,0.0,0.0,0.0,0.0,0.0,0.0,0.0,0.0,0.0,0.0,0.0,0.0,0.0,0.0,0.0,0.0,0.0,0.0,0.0,0.0,0.0,0.0,0.0,0.0,0.0,-1.4205,-1.5259,0.0,0.0,-2.0876,-2.2857,-2.3975,-2.5779,-2.6908,-2.5616,-2.3438,-2.1427,-2.0536,0.0,0.0,-1.6466,-1.6522,-1.6595,-1.6909,-1.7146,-1.754,0.0,0.0,0.0,0.0,0.0,0.0,0.0,0.0,0.0,0.0,0.0,0.0,0.0,0.0,0.0,-3.5504,-3.5504,-3.5504,-3.5504,-3.5504,-3.5504,-3.5504,-3.5504,-3.5504,-3.5504,-3.5504,-3.5504,-3.5504,-3.5504,-3.5504,-3.5504,-3.5504,0.0,0.0,-3.5504,-3.5504,-3.5504,-3.5504,-3.5504,-3.5504,-3.5504,-3.5943,-3.6615,0.0,0.0,0.0,0.0,0.0,0.0,-0.7289,-0.8209,-0.8804,-0.8804,-0.8804,-0.8857,-0.9061,-0.9106,-0.9159,-0.9361,0.0,0.0,0.0,0.0,0.0,0.0,0.0,0.0,0.0,0.0,0.0,0.0,0.0,0.0,0.0,0.0,0.0,0.0,0.0,0.0,0.0,0.0,0.0,0.0,0.0,0.0,0.0,0.0,0.0,0.0,0.0,0.0,0.0,0.0,0.0,0.0,0.0,0.0,0.0,0.0,-1.9597,-2.1511,-2.3039,-2.5031,-2.6263,-2.4963,-2.3205,-2.1493,0.0,0.0,0.0,-1.6522,-1.6637,-1.6837,-1.7229,-1.7544,-1.7907,0.0,0.0,-1.8979,0.0,0.0,0.0,0.0,0.0,0.0,0.0,0.0,0.0,0.0,0.0,0.0,0.0,-3.5504,-3.5415,-3.5205,-3.54,-3.54,-3.5205,-3.54,-3.5504,-3.5504,-3.5504,-3.5504,-3.5504,-3.5504,-3.5504,-3.5504,0.0,0.0,0.0,-3.5504,-3.5504,-3.5504,-3.5504,-3.5604,-3.5846,-3.5846,-3.6461,-3.7291,0.0,0.0,0.0,0.0,0.0,0.0,0.0,-0.783,-0.8804,-0.8804,-0.8804,-0.9061,-0.971,-0.9762,-1.0064,-1.0712,0.0,0.0,0.0,0.0,0.0,0.0,0.0,0.0,0.0,0.0,0.0,0.0,0.0,0.0,0.0,0.0,0.0,0.0,0.0,0.0,0.0,0.0,0.0,0.0,0.0,0.0,0.0,0.0,0.0,0.0,0.0,0.0,0.0,0.0,0.0,0.0,0.0,0.0,0.0,0.0,-1.8628,-2.0437,-2.1905,-2.3535,-2.4392,-2.2774,-2.1518,-2.0303,0.0,0.0,-1.6522,-1.6522,-1.6909,-1.7312,-1.7312,-1.8185,-1.8893,-1.8893,-1.9332,0.0,-1.9717,0.0,0.0,0.0,0.0,0.0,0.0,0.0,0.0,0.0,0.0,0.0,0.0,-3.5504,-3.519,-3.4502,-3.5145,-3.5175,-3.4502,-3.516,-3.5504,-3.5504,-3.5504,-3.5504,-3.5504,-3.5504,-3.5504,0.0,0.0,0.0,0.0,-3.5504,-3.5504,-3.5504,-3.5504,-3.5943,-3.6615,-3.6615,-3.7584,-3.8854,0.0,0.0,0.0,0.0,0.0,0.0,0.0,-0.783,-0.8804,-0.8804,-0.8804,-0.9061,-0.9718,-0.9814,-1.0064,-1.0762,0.0,0.0,0.0,0.0,0.0,0.0,0.0,0.0,0.0,0.0,0.0,0.0,0.0,0.0,0.0,0.0,0.0,0.0,0.0,0.0,0.0,0.0,0.0,0.0,0.0,0.0,0.0,0.0,0.0,0.0,0.0,0.0,0.0,0.0,0.0,0.0,0.0,0.0,0.0,0.0,0.0,0.0,-2.0848,-2.2138,-2.2887,-2.1983,-2.0639,-1.9309,-1.8405,0.0,-1.6595,-1.6951,-1.7188,-1.7504,-1.8263,-1.865,-1.9165,-1.9988,-2.0266,-2.0542,0.0,0.0,0.0,0.0,0.0,0.0,0.0,0.0,0.0,0.0,0.0,0.0,0.0,-3.5055,-3.4921,-3.5175,-3.4936,-3.4696,-3.4472,-3.4696,-3.4801,-3.4801,-3.528,-3.5504,-3.5504,-3.5504,0.0,0.0,0.0,0.0,0.0,-3.5504,-3.5504,-3.5504,-3.5504,-3.5943,-3.6615,-3.6615,-3.7584,-3.8908,0.0,0.0,0.0,0.0,0.0,0.0,0.0,-0.783,-0.8804,-0.8804,-0.8804,-0.9159,-1.0064,-1.0167,-1.0576,-1.1484,0.0,0.0,0.0,0.0,0.0,0.0,0.0,0.0,0.0,0.0,0.0,0.0,0.0,0.0,0.0,0.0,0.0,0.0,0.0,0.0,0.0,0.0,0.0,0.0,0.0,0.0,-1.2656,0.0,0.0,0.0,0.0,0.0,0.0,0.0,0.0,0.0,0.0,0.0,0.0,0.0,-1.7214,0.0,0.0,-2.0075,-2.0627,-2.0075,-1.9171,0.0,0.0,0.0,-1.6909,-1.7229,-1.7626,-1.8106,-1.8779,-1.908,-1.9465,-2.0206,-2.0543,-2.0765,-2.0902,0.0,0.0,0.0,0.0,0.0,0.0,0.0,0.0,0.0,0.0,0.0,0.0,-3.4711,-3.4562,-3.4741,-3.4322,-3.3978,-3.3739,-3.4233,-3.4472,-3.4487,-3.5175,-3.5504,-3.5504,-3.5504,0.0,0.0,0.0,0.0,0.0,-3.5894,-3.5894,-3.5958,-3.6258,-3.6814,-3.7467,-3.7467,-3.8286,-3.9368,0.0,0.0,0.0,0.0,0.0,0.0,0.0,0.0,0.0,0.0,-0.8857,-0.9361,-1.0661,-1.0864,0.0,0.0,0.0,0.0,0.0,0.0,0.0,0.0,0.0,0.0,0.0,0.0,0.0,-1.2881,-1.2881,-1.2881,-1.2881,0.0,0.0,0.0,0.0,0.0,0.0,0.0,0.0,0.0,0.0,0.0,0.0,0.0,0.0,0.0,0.0,0.0,0.0,0.0,0.0,0.0,0.0,0.0,0.0,0.0,0.0,0.0,0.0,0.0,0.0,0.0,0.0,0.0,0.0,0.0,0.0,-1.7394,-1.8224,-1.8893,-1.8968,-1.9369,-1.9741,-1.975,-2.0378,-2.065,0.0,0.0,0.0,0.0,0.0,0.0,0.0,0.0,0.0,0.0,0.0,0.0,0.0,-3.4427,-3.4098,-3.344,-3.338,-3.3095,-3.2587,-3.3799,-3.4427,-3.4487,-3.5175,-3.5504,-3.5504,-3.5554,0.0,0.0,0.0,0.0,0.0,-3.6676,-3.6676,-3.6737,-3.7515,-3.8246,-3.8908,-3.8908,-3.9437,-4.007,0.0,0.0,0.0,0.0,0.0,0.0,0.0,0.0,0.0,0.0,0.0,-0.9865,-1.072,-1.1266,0.0,0.0,0.0,0.0,0.0,0.0,0.0,0.0,0.0,0.0,0.0,0.0,0.0,-1.2881,-1.2881,-1.2881,-1.2881,-1.2881,0.0,0.0,0.0,0.0,0.0,0.0,0.0,0.0,0.0,0.0,0.0,0.0,0.0,0.0,-1.3066,-1.375,0.0,0.0,0.0,0.0,0.0,0.0,0.0,0.0,-1.6522,-1.6547,-1.6685,0.0,-1.6886,-1.6748,-1.6722,0.0,0.0,0.0,0.0,0.0,0.0,0.0,0.0,-1.9603,-1.9854,-2.0378,-2.1455,-2.2342,-2.2664,0.0,0.0,0.0,0.0,0.0,0.0,0.0,0.0,0.0,0.0,0.0,0.0,-3.3993,-3.3425,-3.2766,-3.2258,-3.2407,-3.326,-3.3574,-3.3978,-3.4487,-3.5175,-3.5504,-3.5504,-3.6054,0.0,0.0,0.0,0.0,-3.7515,-3.7515,-3.7515,-3.7515,-3.7764,-3.8246,-3.8908,-3.8908,-3.9437,-4.007,0.0,0.0,0.0,0.0,0.0,0.0,0.0,0.0,0.0,0.0,0.0,0.0,0.0,0.0,0.0,0.0,0.0,0.0,0.0,0.0,0.0,0.0,0.0,0.0,0.0,0.0,0.0,0.0,0.0,-1.2881,0.0,0.0,0.0,0.0,0.0,0.0,0.0,0.0,0.0,0.0,-1.2441,0.0,0.0,0.0,0.0,0.0,-1.3401,-1.4214,0.0,-1.5504,-1.5776,-1.6051,0.0,0.0,0.0,0.0,-1.6522,-1.6552,-1.6795,-1.6879,-1.6795,-1.6552,-1.668,-1.6951,0.0,0.0,0.0,0.0,0.0,0.0,0.0,0.0,0.0,-2.0602,-2.1292,0.0,0.0,0.0,0.0,0.0,0.0,0.0,0.0,0.0,0.0,0.0,0.0,0.0,0.0,-3.341,-3.2736,-3.2078,-3.1719,-3.1884,-3.2587,-3.2901,-3.338,-3.4038,-3.4711,-3.519,-3.5504,-3.6275,-3.6783,0.0,0.0,0.0,-3.8302,-3.8302,-3.8302,-3.8358,-3.8707,-3.9102,-3.9437,-3.9437,-3.9731,-4.007,0.0,0.0,0.0,0.0,0.0,0.0,0.0,0.0,0.0,0.0,0.0,0.0,0.0,0.0,0.0,0.0,0.0,0.0,0.0,0.0,0.0,0.0,0.0,0.0,0.0,0.0,0.0,0.0,0.0,0.0,0.0,0.0,-1.2881,0.0,0.0,0.0,0.0,0.0,0.0,0.0,-1.2243,0.0,0.0,0.0,0.0,0.0,0.0,0.0,0.0,-1.5738,-1.6095,-1.6522,-1.6522,0.0,0.0,0.0,0.0,0.0,-1.7076,-1.7312,-1.7312,-1.6879,-1.7034,-1.7353,0.0,0.0,0.0,0.0,0.0,0.0,0.0,0.0,0.0,0.0,0.0,0.0,0.0,0.0,0.0,0.0,0.0,0.0,0.0,0.0,0.0,0.0,0.0,0.0,0.0,-3.2826,-3.2213,-3.1497,-3.1482,-3.1482,-3.1482,-3.2183,-3.2841,-3.3499,-3.4068,-3.4745,-3.5518,-3.6292,-3.7109,0.0,0.0,0.0,-3.9086,-3.9086,-3.9086,-3.9139,-3.9833,-4.007,-4.007,-4.007,-4.007,-4.007,0.0,0.0,0.0,0.0,0.0,0.0,0.0,0.0,0.0,0.0,0.0,0.0,0.0,0.0,0.0,0.0,0.0,0.0,0.0,0.0,0.0,0.0,0.0,0.0,0.0,0.0,0.0,0.0,0.0,0.0,-1.3637,-1.3152,-1.2881,-1.2929,0.0,0.0,-1.292,-1.3396,-1.3622,-1.3643,-1.3595,0.0,0.0,0.0,0.0,0.0,0.0,0.0,0.0,-1.6193,-1.6423,-1.6522,-1.6522,0.0,0.0,0.0,0.0,0.0,-1.671,-1.7312,-1.7947,-1.7867,-1.7585,-1.7544,0.0,0.0,0.0,0.0,0.0,0.0,0.0,0.0,0.0,0.0,0.0,0.0,0.0,0.0,0.0,0.0,0.0,0.0,0.0,0.0,0.0,0.0,0.0,0.0,0.0,-3.2572,-3.2213,-3.1497,-3.1482,-3.1482,-3.1482,-3.2183,-3.2841,-3.3499,-3.3589,-3.4318,-3.5582,-3.6437,-3.7496,0.0,0.0,-3.9782,-3.9901,-3.9901,-3.9901,-3.9952,-4.007,-4.007,-4.007,-4.007,-4.007,-4.007,0.0,0.0,0.0,0.0,0.0,0.0,0.0,0.0,0.0,0.0,0.0,0.0,0.0,0.0,0.0,0.0,0.0,0.0,0.0,0.0,0.0,0.0,0.0,0.0,0.0,0.0,0.0,0.0,0.0,-1.3552,-1.3768,-1.3505,-1.3372,-1.342,0.0,-1.3826,-1.3884,-1.4154,-1.4283,-1.4286,0.0,0.0,0.0,0.0,0.0,0.0,0.0,0.0,0.0,0.0,-1.6522,-1.6522,-1.6522,0.0,0.0,0.0,0.0,0.0,-1.7353,-1.7706,-1.8185,-1.8458,-1.7907,-1.7504,0.0,0.0,0.0,0.0,0.0,0.0,0.0,0.0,0.0,0.0,0.0,0.0,0.0,0.0,0.0,0.0,0.0,0.0,0.0,0.0,0.0,0.0,0.0,0.0,0.0,0.0,-3.1285,-3.0986,-3.0971,-3.115,-3.1482,-3.1839,-3.2317,-3.2961,-3.2961,-3.3682,-3.505,-3.626,-3.7355,-3.8364,0.0,-4.007,-4.007,-4.007,-4.007,-4.007,-4.007,-4.007,-4.007,-4.007,-4.007,-4.007,0.0,0.0,0.0,0.0,0.0,0.0,0.0,0.0,0.0,0.0,0.0,0.0,0.0,0.0,0.0,0.0,0.0,0.0,0.0,0.0,0.0,0.0,0.0,0.0,0.0,0.0,-1.4003,-1.4003,-1.4003,-1.4003,-1.4003,-1.4318,-1.4272,0.0,0.0,-1.4422,-1.4698,-1.4835,-1.4926,-1.488,0.0,0.0,0.0,0.0,0.0,0.0,0.0,0.0,0.0,0.0,0.0,0.0,0.0,0.0,0.0,-1.668,-1.7146,-1.7706,-1.7867,-1.8106,-1.838,0.0,0.0,0.0,0.0,0.0,0.0,0.0,0.0,0.0,0.0,0.0,0.0,0.0,0.0,0.0,0.0,0.0,0.0,0.0,0.0,0.0,0.0,0.0,0.0,0.0,0.0,0.0,0.0,0.0,-3.0357,-3.0507,-3.0507,-3.0836,-3.1467,-3.1482,-3.1735,-3.2287,-3.2449,-3.3203,-3.4581,-3.6087,-3.7285,-3.8181,-3.9514,-4.007,-4.007,-4.007,-4.007,-4.007,-4.007,-4.007,-4.007,-4.007,-4.007,-4.007,0.0,0.0,0.0,0.0,0.0,0.0,0.0,0.0,0.0,0.0,0.0,0.0,0.0,0.0,0.0,0.0,0.0,0.0,0.0,0.0,0.0,0.0,0.0,0.0,0.0,-1.4663,-1.4652,-1.4652,-1.4652,-1.4652,-1.4663,-1.5788,-1.57,-1.4652,0.0,0.0,-1.4744,-1.5276,-1.5543,-1.554,-1.5561,0.0,0.0,0.0,0.0,0.0,0.0,0.0,0.0,0.0,0.0,0.0,0.0,0.0,-1.7229,-1.7229,-1.7987,-1.8574,-1.7626,-1.8066,-1.8727,-1.8263,0.0,0.0,0.0,0.0,0.0,0.0,0.0,0.0,0.0,0.0,0.0,0.0,0.0,0.0,0.0,0.0,0.0,0.0,0.0,0.0,0.0,0.0,0.0,0.0,0.0,0.0,0.0,0.0,0.0,-3.0477,-3.0507,-3.0836,-3.1467,-3.1482,-3.1497,-3.1599,-3.2293,-3.3333,-3.475,-3.6163,-3.7586,-3.8973,-3.9749,-4.007,-4.007,-4.007,-4.007,-4.007,-4.007,-4.007,-4.007,-4.007,-4.007,-4.007,0.0,0.0,0.0,0.0,0.0,0.0,0.0,0.0,0.0,0.0,0.0,0.0,0.0,0.0,0.0,0.0,0.0,0.0,0.0,0.0,0.0,0.0,0.0,-1.5832,-1.5832,-1.5466,-1.5276,-1.5276,-1.5276,-1.5276,-1.5276,-1.5732,0.0,0.0,0.0,0.0,-1.5832,-1.6051,-1.6151,-1.617,-1.6198,-1.6007,0.0,0.0,0.0,0.0,0.0,0.0,0.0,0.0,-1.7018,-1.7105,0.0,0.0,-1.7787,-1.7787,-1.8341,-1.8817,-1.8419,-1.8574,-1.8855,-1.865,0.0,0.0,0.0,0.0,0.0,0.0,0.0,0.0,0.0,0.0,0.0,0.0,0.0,0.0,0.0,0.0,0.0,0.0,0.0,0.0,0.0,0.0,0.0,0.0,0.0,0.0,0.0,0.0,0.0,-2.9909,-2.9924,-3.0447,-3.1467,-3.1482,-3.1739,-3.216,-3.2007,-3.2655,-3.4082,-3.5522,-3.6966,-3.8379,-3.9563,-4.007,-4.007,-4.007,-4.007,-4.007,-4.007,-4.007,-4.007,-4.007,-4.007,-4.007,0.0,0.0,0.0,0.0,0.0,0.0,0.0,0.0,0.0,0.0,0.0,0.0,0.0,0.0,0.0,0.0,0.0,0.0,0.0,0.0,0.0,0.0,0.0,-1.6293,-1.6522,-1.6095,-1.5864,-1.5864,-1.5864,-1.5864,-1.5864,0.0,0.0,0.0,0.0,0.0,0.0,-1.6522,-1.6522,-1.6522,-1.6522,-1.6296,0.0,0.0,0.0,0.0,0.0,0.0,0.0,0.0,0.0,0.0,0.0,0.0,0.0,0.0,-1.8612,-1.8855,-1.8688,-1.8765,-1.8855,0.0,0.0,0.0,0.0,0.0,0.0,0.0,0.0,0.0,0.0,0.0,0.0,0.0,0.0,0.0,0.0,0.0,0.0,0.0,0.0,0.0,0.0,0.0,0.0,0.0,0.0,0.0,0.0,0.0,0.0,0.0,-2.9265,-2.9894,-3.1195,-3.121,-3.1626,-3.2586,-3.2064,-3.2555,-3.3986,-3.5684,-3.7003,-3.799,-3.9445,-4.007,-4.007,-4.007,-4.007,-4.007,-4.007,-4.007,-4.007,-4.007,-4.007,-4.007,0.0,0.0,0.0,0.0,0.0,0.0,0.0,0.0,0.0,0.0,0.0,0.0,0.0,0.0,0.0,0.0,0.0,0.0,0.0,0.0,0.0,0.0,0.0,-1.5908,-1.6479,-1.6522,-1.6522,-1.6522,-1.6522,-1.6522,-1.6522,-1.6522,0.0,0.0,0.0,0.0,0.0,0.0,-1.6522,-1.6522,-1.6522,-1.6522,-1.6459,0.0,0.0,0.0,0.0,0.0,0.0,0.0,-1.7647,0.0,0.0,0.0,0.0,0.0,-1.8893,-1.8779,-1.8263,-1.8496,0.0,0.0,0.0,0.0,0.0,0.0,0.0,0.0,0.0,0.0,0.0,0.0,0.0,0.0,0.0,0.0,0.0,0.0,0.0,0.0,0.0,0.0,0.0,0.0,0.0,0.0,0.0,0.0,0.0,0.0,0.0,0.0,-2.8607,-2.9205,-3.0477,-3.0492,-3.1213,-3.2586,-3.2571,-3.3287,-3.4673,-3.6877,-3.7905,-3.799,-3.9445,-4.007,-4.007,-4.007,-4.007,-4.007,-4.007,-4.007,-4.007,-4.007,-4.007,-4.007,0.0,0.0,0.0,0.0,0.0,0.0,0.0,0.0,0.0,0.0,0.0,0.0,0.0,0.0,0.0,0.0,0.0,0.0,0.0,0.0,0.0,0.0,0.0,0.0,0.0,0.0,-1.6522,-1.6522,-1.6522,-1.6522,0.0,0.0,0.0,-1.6522,0.0,0.0,0.0,0.0,-1.6522,-1.6522,-1.6522,-1.6522,-1.6497,0.0,0.0,0.0,0.0,0.0,0.0,0.0,0.0,0.0,0.0,0.0,0.0,-1.9442,-1.9442,-1.9442,-1.9281,0.0,0.0,0.0,0.0,0.0,0.0,0.0,0.0,0.0,0.0,0.0,0.0,0.0,0.0,0.0,0.0,0.0,0.0,0.0,0.0,0.0,0.0,0.0,0.0,0.0,0.0,0.0,0.0,0.0,0.0,0.0,0.0,0.0,-2.8607,-2.9011,-2.9849,-2.9864,-3.0785,-3.2609,-3.2051,-3.282,-3.4673,-3.6356,-3.7434,-3.799,-3.9445,-4.007,-4.007,-4.007,-4.007,-4.007,-4.007,-4.007,-4.007,-4.007,-4.007,-4.007,0.0,0.0,0.0,0.0,0.0,0.0,0.0,0.0,0.0,0.0,0.0,0.0,0.0,0.0,0.0,0.0,0.0,0.0,0.0,0.0,0.0,0.0,0.0,0.0,0.0,-1.6522,-1.6522,0.0,0.0,0.0,0.0,0.0,0.0,-1.6522,0.0,-1.6522,0.0,0.0,-1.6522,-1.6522,-1.6522,-1.6522,-1.6522,0.0,0.0,0.0,0.0,0.0,0.0,0.0,0.0,0.0,0.0,0.0,0.0,-1.9442,-1.9244,-1.9043,-1.9043,0.0,0.0,0.0,0.0,0.0,0.0,0.0,0.0,0.0,0.0,0.0,0.0,0.0,0.0,0.0,0.0,0.0,0.0,0.0,0.0,0.0,0.0,0.0,0.0,0.0,0.0,0.0,0.0,0.0,0.0,0.0,0.0,0.0,-2.8053,-2.8502,-2.919,-2.919,-3.0186,-3.2159,-3.1726,-3.2592,-3.4588,-3.5771,-3.6762,-3.755,-3.9005,-3.9817,-4.007,-4.007,-4.007,-4.007,-4.007,-4.007,-4.007,-4.007,-4.007,-4.007,0.0,0.0,0.0,0.0,0.0,0.0,0.0,0.0,0.0,0.0,0.0,0.0,0.0,0.0,0.0,0.0,0.0,0.0,0.0,0.0,0.0,0.0,0.0,0.0,0.0,0.0,0.0,0.0,0.0,0.0,0.0,0.0,-1.6552,-1.6522,0.0,-1.6552,0.0,-1.6522,-1.6522,-1.6522,-1.6522,-1.6522,-1.6522,-1.6522,0.0,0.0,0.0,0.0,0.0,0.0,0.0,0.0,0.0,0.0,0.0,-1.9132,-1.8574,-1.8185,0.0,0.0,0.0,0.0,0.0,0.0,0.0,0.0,0.0,0.0,0.0,0.0,0.0,0.0,0.0,0.0,0.0,0.0,0.0,0.0,0.0,0.0,0.0,0.0,0.0,0.0,0.0,0.0,0.0,0.0,0.0,0.0,0.0,-2.6497,-2.7141,-2.7784,-2.8412,-2.8472,-2.948,0.0,-3.1358,-3.2436,-3.4523,-3.5267,-3.6079,-3.6958,-3.8379,-3.9377,-3.9986,-4.0054,-4.007,-4.007,-4.007,-4.007,-4.007,-4.007,-4.007,-4.007,0.0,0.0,0.0,0.0,0.0,0.0,0.0,0.0,0.0,0.0,0.0,0.0,0.0,0.0,0.0,0.0,0.0,0.0,0.0,0.0,0.0,0.0,0.0,0.0,0.0,0.0,0.0,0.0,0.0,0.0,0.0,0.0,0.0,-1.6522,0.0,-1.6879,-1.6522,-1.6522,-1.6522,-1.6522,-1.6522,-1.6522,-1.6522,-1.6522,-1.6522,0.0,0.0,0.0,0.0,0.0,0.0,0.0,-1.953,-1.969,-1.969,-1.9566,-1.9169,-1.8817,0.0,0.0,0.0,0.0,0.0,0.0,0.0,0.0,0.0,0.0,0.0,0.0,0.0,0.0,0.0,0.0,0.0,0.0,0.0,0.0,0.0,0.0,0.0,0.0,0.0,0.0,0.0,0.0,0.0,0.0,0.0,0.0,0.0,-2.5824,-2.6452,-2.6871,-2.7021,-2.753,-2.8774,0.0,-3.011,-3.1487,-3.4523,-3.5267,-3.6366,-3.7719,-3.8599,-3.9089,-3.9276,-3.9834,-4.007,-4.007,-4.007,-4.007,-4.007,-4.007,-4.007,-4.007,0.0,0.0,0.0,0.0,0.0,0.0,0.0,0.0,0.0,0.0,0.0,0.0,0.0,0.0,0.0,0.0,0.0,0.0,0.0,0.0,0.0,0.0,0.0,0.0,0.0,0.0,0.0,0.0,0.0,0.0,0.0,0.0,0.0,-1.6522,0.0,-1.6993,-1.6522,-1.6522,-1.6522,-1.6522,-1.6522,-1.6522,-1.6522,-1.6522,-1.6522,-1.6522,-1.6795,0.0,0.0,0.0,0.0,0.0,0.0,0.0,-1.9639,-1.9406,-1.9132,-1.8968,0.0,0.0,0.0,0.0,0.0,0.0,0.0,0.0,0.0,0.0,0.0,0.0,0.0,0.0,0.0,0.0,0.0,0.0,0.0,0.0,0.0,0.0,0.0,0.0,0.0,0.0,0.0,0.0,0.0,0.0,0.0,-2.4956,-2.5136,-2.5136,-2.5779,-2.6123,-2.6123,-2.6452,-2.7578,-2.9496,-2.9099,-3.0533,-3.3491,-3.4945,-3.6265,-3.7381,-3.777,-3.8328,-3.9022,-3.9394,-3.9766,-4.007,-4.007,-4.007,-4.007,-4.007,-4.007,-4.007,0.0,0.0,0.0,0.0,0.0,0.0,0.0,0.0,0.0,0.0,0.0,0.0,0.0,0.0,0.0,0.0,0.0,0.0,0.0,0.0,0.0,0.0,0.0,0.0,0.0,0.0,0.0,0.0,0.0,0.0,0.0,0.0,0.0,-1.668,0.0,0.0,-1.6522,-1.6522,-1.6522,-1.6522,-1.6522,-1.6522,-1.6522,-1.6522,-1.6522,-1.6552,-1.6993,-1.7229,-1.7463,-1.8419,0.0,0.0,0.0,0.0,-1.9603,-1.9169,-1.8968,-1.893,0.0,0.0,0.0,0.0,0.0,0.0,0.0,0.0,0.0,0.0,0.0,0.0,0.0,0.0,0.0,0.0,0.0,0.0,0.0,0.0,0.0,0.0,0.0,0.0,0.0,0.0,0.0,0.0,0.0,0.0,-2.3595,-2.4148,-2.4448,-2.4448,-2.5091,-2.5435,-2.5435,-2.5555,-2.6474,-2.8228,-2.8682,-3.0062,-3.2381,-3.4455,-3.5774,-3.64,-3.6654,-3.7483,-3.8616,-3.8751,-3.9225,-3.9884,-3.9884,-3.9969,-4.007,-4.007,-4.007,-4.007,0.0,0.0,0.0,0.0,0.0,0.0,0.0,0.0,0.0,0.0,0.0,0.0,0.0,0.0,0.0,0.0,0.0,0.0,-1.6133,0.0,0.0,-1.6522,-1.6951,0.0,0.0,0.0,0.0,0.0,0.0,0.0,0.0,0.0,0.0,-1.7229,0.0,0.0,0.0,-1.6522,-1.6522,-1.6522,-1.6522,-1.6522,-1.6522,-1.6522,-1.6522,-1.6522,-1.6595,-1.6909,-1.7394,-1.7987,-1.8535,0.0,0.0,0.0,-1.969,-1.9603,-1.9244,0.0,0.0,0.0,0.0,0.0,0.0,0.0,0.0,0.0,0.0,0.0,0.0,0.0,0.0,0.0,0.0,0.0,0.0,0.0,0.0,0.0,0.0,0.0,0.0,0.0,0.0,0.0,0.0,0.0,0.0,0.0,-2.3595,-2.3684,-2.3729,-2.3729,-2.4403,-2.4716,-2.4716,-2.533,-2.6198,-2.748,-2.9755,-3.1341,-3.2364,-3.3914,-3.4709,-3.4878,-3.6197,-3.6891,-3.7127,-3.7787,-3.8481,-3.914,-3.914,-3.9529,-4.007,-4.007,-4.007,-4.007,0.0,0.0,0.0,0.0,0.0,0.0,0.0,0.0,0.0,0.0,0.0,0.0,0.0,0.0,0.0,-1.4652,-1.5017,-1.5708,-1.6828,-1.745,-1.7504,-1.6951,-1.7463,-1.7626,0.0,0.0,0.0,0.0,0.0,0.0,0.0,-1.838,-1.7987,0.0,0.0,0.0,0.0,0.0,0.0,-1.6522,-1.6522,-1.6522,-1.6522,-1.6522,-1.6522,-1.6522,-1.6522,-1.7034,-1.7747,-1.7666,-1.8419,-1.9332,-1.9281,0.0,0.0,0.0,-1.953,0.0,0.0,0.0,0.0,0.0,0.0,0.0,0.0,0.0,0.0,0.0,0.0,0.0,0.0,0.0,0.0,0.0,0.0,0.0,0.0,0.0,0.0,0.0,0.0,0.0,0.0,0.0,0.0,0.0,0.0,-2.3595,-2.3595,-2.3595,-2.3595,-2.3595,-2.3894,-2.4059,-2.4059,-2.4343,-2.5431,-2.7377,-2.9543,-3.097,-3.1698,-3.2763,-3.3711,-3.4556,-3.5656,-3.6366,-3.6806,-3.7144,-3.7719,-3.843,-3.8836,-3.9191,-3.9512,-3.9935,-4.007,-4.007,0.0,0.0,0.0,0.0,0.0,0.0,0.0,0.0,0.0,0.0,0.0,0.0,0.0,0.0,0.0,0.0,-1.541,-1.6102,-1.7229,-1.7947,-1.8066,-1.7544,-1.8027,-1.8145,-1.7706,0.0,0.0,0.0,0.0,0.0,-1.9479,-1.8688,-1.838,0.0,-1.865,0.0,0.0,0.0,0.0,0.0,-1.6522,-1.6522,-1.6522,-1.6522,-1.6522,-1.6522,-1.6522,-1.6993,-1.7666,-1.7544,-1.8302,-1.9281,-1.9132,-1.9369,0.0,0.0,0.0,0.0,0.0,0.0,0.0,0.0,0.0,0.0,0.0,0.0,0.0,0.0,0.0,0.0,0.0,0.0,0.0,0.0,0.0,0.0,0.0,0.0,0.0,0.0,0.0,0.0,0.0,0.0,0.0,0.0,0.0,-2.3595,-2.3595,-2.3595,-2.3595,-2.3595,-2.3595,-2.3595,-2.3595,-2.3879,-2.5103,-2.7348,-2.902,-3.0209,-3.0954,-3.1867,-3.2882,-3.3964,-3.4726,-3.5605,-3.6468,-3.6282,-3.6755,-3.7686,-3.843,-3.8819,-3.9089,-3.9817,-4.007,-4.007,0.0,0.0,0.0,0.0,0.0,0.0,0.0,0.0,0.0,0.0,0.0,0.0,0.0,-1.505,-1.5152,-1.6293,-1.5908,-1.6102,-1.7229,-1.8302,-1.8612,-1.8066,-1.8574,0.0,-1.8817,0.0,0.0,0.0,0.0,0.0,-1.893,-1.8893,-1.9132,-1.9566,-1.8574,-1.7827,-1.7312,0.0,0.0,0.0,0.0,0.0,0.0,0.0,0.0,0.0,0.0,0.0,-1.671,-1.7706,-1.8106,-1.838,-1.9369,-1.969,-1.969,0.0,0.0,0.0,0.0,0.0,0.0,0.0,0.0,0.0,0.0,0.0,0.0,0.0,0.0,0.0,0.0,0.0,0.0,0.0,0.0,0.0,0.0,0.0,0.0,0.0,0.0,0.0,0.0,0.0,0.0,0.0,0.0,-2.3595,-2.3595,-2.3595,-2.3595,-2.3595,-2.3595,-2.3595,-2.3595,-2.4632,-2.5799,-2.713,-2.8434,-2.9431,-3.0226,-3.163,-3.2364,-3.2483,-3.3186,-3.4336,-3.5622,-3.4912,-3.5487,-3.6907,-3.7669,-3.8379,-3.9089,-3.9817,-4.007,-4.007,0.0,0.0,0.0,0.0,0.0,0.0,0.0,0.0,0.0,0.0,0.0,0.0,0.0,-1.6287,-1.6532,-1.6993,-1.7436,-1.7906,-1.8302,-1.9006,-1.9169,-1.865,-1.9132,-1.9244,-1.8893,0.0,0.0,0.0,0.0,-1.9406,-1.9406,-1.9043,-1.9207,-1.969,-1.893,-1.8496,-1.8302,-1.7585,0.0,0.0,0.0,0.0,0.0,0.0,0.0,0.0,0.0,0.0,0.0,-1.7076,-1.7747,-1.8612,-1.865,-1.9169,-1.969,-1.969,-1.969,-1.969,-1.969,0.0,0.0,0.0,0.0,0.0,0.0,0.0,0.0,0.0,0.0,0.0,0.0,0.0,0.0,0.0,0.0,0.0,0.0,0.0,0.0,0.0,0.0,0.0,0.0,0.0,0.0,0.0,0.0,0.0,-2.3595,-2.3595,-2.3595,-2.3595,-2.3595,-2.3752,-2.4116,-2.4831,-2.5859,-2.7118,-2.788,-2.8907,-3.0125,-3.0649,-3.1393,-3.2313,-3.207,-3.3085,-3.4878,-3.4607,-3.5098,-3.6113,-3.6874,-3.7347,-3.7669,-3.8413,-3.8684,-3.8684,0.0,0.0,0.0,0.0,0.0,0.0,0.0,0.0,0.0,0.0,0.0,0.0,0.0,0.0,-1.7585,-1.7585,-1.838,-1.8893,-1.8893,-1.9406,-1.953,-1.9169,-1.953,-1.953,-1.9169,0.0,0.0,0.0,0.0,0.0,0.0,0.0,-1.9369,-1.969,-1.9132,-1.8893,0.0,0.0,0.0,-1.7229,0.0,0.0,-1.6522,0.0,0.0,0.0,0.0,0.0,0.0,0.0,0.0,0.0,-1.838,-1.8968,-1.969,-1.969,-1.969,-1.969,-1.969,0.0,0.0,0.0,0.0,0.0,0.0,0.0,0.0,0.0,0.0,0.0,0.0,0.0,0.0,0.0,0.0,0.0,0.0,0.0,0.0,0.0,0.0,0.0,0.0,0.0,0.0,0.0,0.0,0.0,-2.3595,-2.3595,-2.3681,-2.3879,-2.3879,-2.4184,-2.4934,-2.5297,-2.5971,-2.6959,-2.7513,-2.8349,-2.9347,-2.9617,-3.0395,-3.1512,-3.1038,-3.2087,-3.4134,-3.4134,-3.4573,-3.5351,-3.6383,-3.6772,-3.6874,-3.7635,-3.8075,-3.8278,0.0,0.0,0.0,0.0,0.0,0.0,0.0,0.0,0.0,0.0,0.0,0.0,0.0,0.0,0.0,-1.8145,-1.8612,-1.893,-1.893,-1.9406,-1.969,-1.969,-1.969,-1.969,-1.969,0.0,0.0,0.0,0.0,0.0,0.0,0.0,-1.969,0.0,-1.9169,-1.893,-1.8893,0.0,-1.7787,-1.7312,0.0,-1.6522,-1.6522,0.0,0.0,0.0,-1.6522,-1.6522,0.0,0.0,0.0,0.0,0.0,0.0,-1.969,-1.969,-1.969,-1.969,0.0,0.0,0.0,0.0,0.0,0.0,0.0,0.0,0.0,0.0,0.0,0.0,0.0,0.0,0.0,0.0,0.0,0.0,0.0,0.0,0.0,0.0,0.0,0.0,0.0,0.0,0.0,0.0,0.0,-2.3595,-2.3595,-2.3595,-2.3879,-2.4389,-2.443,-2.4934,-2.5997,-2.6013,-2.6227,-2.6708,-2.7435,-2.7772,-2.7806,-2.8602,-2.9364,-3.0108,-3.0108,-3.1343,-3.3339,-3.3372,-3.3812,-3.4641,-3.6129,-3.6721,-3.684,-3.7567,-3.8294,-3.8886,0.0,0.0,0.0,0.0,0.0,0.0,0.0,0.0,0.0,0.0,0.0,0.0,0.0,0.0,-1.8817,-1.9207,-1.9406,-1.9479,-1.9479,-1.9603,-1.969,-1.969,-1.969,-1.969,0.0,0.0,0.0,0.0,0.0,0.0,0.0,0.0,0.0,0.0,-1.953,-1.9479,-1.9406,-1.8066,0.0,0.0,-1.7034,-1.671,0.0,0.0,0.0,0.0,0.0,-1.6522,0.0,0.0,-1.7544,-1.8066,0.0,0.0,0.0,-1.969,-1.969,-1.969,-1.969,0.0,0.0,0.0,0.0,0.0,0.0,0.0,0.0,0.0,0.0,0.0,0.0,0.0,0.0,0.0,0.0,0.0,0.0,0.0,0.0,0.0,0.0,0.0,0.0,0.0,0.0,0.0,-2.3595,-2.3595,-2.3595,-2.3948,-2.4225,-2.4389,-2.4792,-2.5297,-2.5997,-2.6013,-2.6227,-2.6691,-2.6911,-2.7283,-2.7789,-2.8044,-2.8856,-3.0108,-3.0108,-3.0751,-3.185,-3.2374,-3.3339,-3.4523,-3.4962,-3.5453,-3.596,-3.618,-3.6383,-3.6552,0.0,0.0,0.0,0.0,0.0,0.0,0.0,0.0,0.0,0.0,0.0,0.0,0.0,0.0,0.0,-1.969,-1.969,-1.969,-1.969,-1.969,-1.969,-1.969,-1.969,-1.969,0.0,0.0,0.0,0.0,0.0,0.0,0.0,0.0,0.0,0.0,0.0,0.0,0.0,0.0,0.0,0.0,-1.7394,0.0,0.0,-1.671,-1.6522,0.0,0.0,0.0,-1.6909,-1.7463,-1.7987,0.0,0.0,0.0,0.0,0.0,0.0,-1.969,0.0,0.0,0.0,0.0,0.0,0.0,-1.969,-1.969,0.0,0.0,0.0,0.0,0.0,0.0,0.0,0.0,0.0,0.0,0.0,0.0,0.0,0.0,0.0,0.0,0.0,0.0,0.0,-2.3595,-2.3595,-2.3681,-2.3921,-2.4225,-2.4592,-2.5051,-2.5373,-2.5762,-2.6297,-2.6297,-2.6436,-2.6691,-2.6691,-2.6928,-2.7351,-2.7351,-2.818,-2.9634,-2.9634,-3.0226,-3.1224,-3.1647,-3.2696,-3.4066,-3.437,-3.4962,-3.5622,-3.5622,-3.5825,-3.6096,0.0,0.0,0.0,0.0,0.0,0.0,0.0,0.0,0.0,0.0,0.0,0.0,0.0,0.0,0.0,0.0,-1.9782,-1.9782,-1.9854,-1.9782,-1.9782,-1.9782,-1.9711,-1.969,0.0,0.0,0.0,0.0,0.0,0.0,0.0,0.0,0.0,0.0,0.0,0.0,0.0,0.0,0.0,-1.8893,-1.7747,-1.7353,0.0,0.0,-1.6522,0.0,-1.7118,-1.7312,-1.7394,-1.8055,-1.8729,0.0,0.0,0.0,0.0,0.0,-1.969,0.0,0.0,0.0,0.0,0.0,0.0,0.0,-1.9711,-1.9711,-1.9086,0.0,0.0,0.0,0.0,0.0,0.0,0.0,0.0,0.0,0.0,0.0,0.0,0.0,0.0,0.0,0.0,-2.3176,-2.3535,-2.3595,-2.3595,-2.3837,-2.4389,-2.4471,-2.4934,-2.5961,-2.6049,-2.6297,-2.6691,-2.6691,-2.6691,-2.6691,-2.6691,-2.6691,-2.6691,-2.6691,-2.7537,-2.9011,-2.9011,-2.982,-3.119,-3.119,-3.207,-3.3474,-3.4117,-3.4878,-3.5622,-3.5622,-3.6062,-3.6654,-1.7679,0.0,0.0,0.0,0.0,0.0,0.0,0.0,0.0,0.0,0.0,0.0,0.0,0.0,0.0,0.0,-2.0193,-2.0364,-2.0731,-2.0398,-2.0193,-2.0193,-1.9874,-1.969,-1.969,0.0,0.0,0.0,0.0,0.0,0.0,0.0,0.0,0.0,0.0,0.0,0.0,0.0,0.0,-1.9406,-1.7907,0.0,-1.7827,-1.6879,-1.6522,-1.6552,-1.7118,-1.7312,-1.7543,0.0,-2.0269,-2.1045,0.0,0.0,0.0,0.0,0.0,0.0,0.0,0.0,0.0,0.0,0.0,0.0,-1.9782,-1.9929,-1.9951,0.0,0.0,0.0,0.0,0.0,0.0,0.0,0.0,0.0,0.0,0.0,0.0,0.0,0.0,0.0,0.0,-2.2828,-2.3071,-2.3565,-2.3595,-2.3837,-2.4389,-2.4831,-2.5335,-2.5977,-2.6367,-2.6624,-2.6691,-2.6691,-2.6691,-2.6691,-2.6691,-2.6691,-2.6691,-2.6691,-2.7537,-2.9011,-2.9011,-2.982,-3.119,-3.119,-3.207,-3.3423,-3.3558,-3.4438,-3.5622,-3.5622,-3.5723,-3.5842,-1.8458,0.0,0.0,0.0,0.0,0.0,0.0,0.0,0.0,0.0,0.0,0.0,0.0,0.0,0.0,0.0,0.0,0.0,0.0,0.0,0.0,-2.0,-1.9818,-1.969,-1.969,-1.969,0.0,0.0,0.0,0.0,0.0,0.0,0.0,0.0,0.0,0.0,0.0,0.0,-1.9884,-2.0094,-1.8662,0.0,-1.8408,-1.7642,-1.7336,-1.7393,-1.792,-1.848,-1.9112,-2.0021,-2.0931,0.0,0.0,-2.1201,-2.1141,0.0,-2.0692,-2.0617,0.0,0.0,0.0,-1.9912,0.0,0.0,0.0,-2.033,-2.0223,0.0,0.0,0.0,0.0,0.0,0.0,0.0,0.0,0.0,0.0,0.0,0.0,0.0,0.0,0.0,0.0,-2.2488,-2.3047,-2.3945,-2.3991,-2.4348,-2.5144,-2.5449,-2.5835,-2.6332,-2.659,-2.6691,-2.6691,-2.6691,-2.6691,-2.6691,-2.6691,-2.6691,-2.6708,-2.708,-2.7892,-2.9045,-2.9381,-3.0176,-3.1224,-3.1596,-3.2391,-3.3406,-3.3406,-3.432,-3.5622,-3.5622,-3.5622,-3.5622,-1.9043,0.0,0.0,0.0,0.0,0.0,0.0,0.0,0.0,0.0,0.0,0.0,0.0,0.0,0.0,0.0,0.0,0.0,0.0,0.0,0.0,0.0,-1.9747,-1.969,-1.969,-1.969,0.0,0.0,0.0,0.0,0.0,0.0,0.0,0.0,0.0,0.0,0.0,0.0,0.0,-2.0639,0.0,-1.931,-1.9022,-1.8561,-1.8247,-1.8175,-1.8837,-1.9976,-2.1096,-2.1096,0.0,-2.2039,-2.1919,-2.1874,0.0,0.0,0.0,0.0,0.0,0.0,0.0,0.0,0.0,-2.1837,0.0,0.0,0.0,0.0,0.0,0.0,0.0,0.0,0.0,0.0,0.0,0.0,0.0,0.0,0.0,0.0,0.0,0.0,0.0,-2.243,-2.3361,-2.4343,-2.4511,-2.4989,-2.5961,-2.6013,-2.6227,-2.6691,-2.6691,-2.6691,-2.6691,-2.6691,-2.6691,-2.6691,-2.6691,-2.6691,-2.6708,-2.7334,-2.8095,-2.9008,-2.9634,-3.0395,-3.1241,-3.1833,-3.2594,-3.3423,-3.3558,-3.4438,-3.5622,-3.5622,-3.5622,-3.5622,-1.9603,-1.9639,0.0,0.0,0.0,0.0,0.0,0.0,0.0,0.0,0.0,0.0,0.0,0.0,0.0,0.0,0.0,0.0,-2.1413,0.0,0.0,0.0,0.0,0.0,-1.969,-1.969,-1.969,0.0,0.0,0.0,0.0,0.0,0.0,0.0,-1.969,0.0,0.0,0.0,-2.0647,0.0,-2.1183,-2.073,0.0,-1.9196,-1.8631,-1.8268,-1.939,-2.0933,-2.2458,0.0,-2.2862,-2.3295,0.0,-2.2604,-2.2458,0.0,0.0,0.0,0.0,0.0,0.0,0.0,-2.2047,0.0,0.0,0.0,0.0,0.0,0.0,0.0,0.0,0.0,0.0,0.0,0.0,0.0,0.0,0.0,0.0,0.0,0.0,0.0,0.0,0.0,-2.4067,-2.4384,-2.4816,-2.5373,-2.5961,-2.6013,-2.6227,-2.6691,-2.6691,-2.6691,-2.6691,-2.6691,-2.6691,-2.6691,-2.6691,-2.6691,-2.6691,-2.6793,-2.7604,-2.9011,-2.9076,-2.9905,-3.1207,-3.1275,-3.2138,-3.3474,-3.4117,-3.4878,-3.5622,-3.5622,-3.5622,-3.5622,-1.9747,0.0,0.0,0.0,0.0,0.0,0.0,0.0,0.0,0.0,0.0,0.0,0.0,0.0,0.0,0.0,0.0,-2.1705,0.0,0.0,0.0,0.0,0.0,0.0,0.0,-1.969,-1.969,-1.969,-1.969,0.0,0.0,0.0,0.0,0.0,-2.0288,0.0,-2.0872,0.0,0.0,0.0,0.0,0.0,0.0,-2.0396,-1.9836,-1.9677,-2.0191,-2.1386,-2.2724,0.0,-2.3086,0.0,0.0,0.0,0.0,0.0,0.0,0.0,0.0,0.0,0.0,0.0,0.0,0.0,-2.2067,0.0,-2.1974,0.0,0.0,0.0,0.0,0.0,0.0,0.0,0.0,0.0,0.0,0.0,0.0,0.0,0.0,0.0,0.0,0.0,0.0,0.0,0.0,-2.5376,-2.6333,-2.6401,-2.6521,-2.6691,-2.6691,-2.6691,-2.6691,-2.6691,-2.6691,-2.6691,-2.6691,-2.6911,-2.7351,-2.7807,-2.8602,-2.9651,-3.0074,-3.0615,-3.1224,-3.1647,-3.2188,-3.2865,-3.4032,-3.4962,-3.5622,-3.5622,-3.5622,-3.5622,-2.0104,0.0,0.0,0.0,0.0,0.0,0.0,0.0,0.0,0.0,0.0,0.0,-2.2106,-2.2209,0.0,0.0,0.0,-2.1957,0.0,0.0,-2.1134,0.0,0.0,0.0,0.0,0.0,-2.005,-2.005,0.0,0.0,0.0,0.0,0.0,0.0,0.0,-2.0976,-2.1455,0.0,0.0,-2.2724,-2.2862,-2.2727,-2.2282,-2.1123,-2.0799,-2.0983,-2.0971,-2.1814,-2.2936,-2.2936,-2.3236,0.0,-2.3595,0.0,0.0,0.0,0.0,0.0,-2.3018,0.0,0.0,0.0,0.0,0.0,0.0,0.0,0.0,0.0,0.0,0.0,0.0,0.0,0.0,0.0,0.0,0.0,0.0,0.0,0.0,0.0,0.0,0.0,0.0,0.0,0.0,-2.4705,-2.4926,-2.5497,-2.6657,-2.6691,-2.6691,-2.6691,-2.6691,-2.6691,-2.6691,-2.6894,-2.6996,-2.6996,-2.7215,-2.7604,-2.8163,-2.8721,-2.9454,-3.0279,-3.0844,-3.1202,-3.1385,-3.1952,-3.223,-3.2408,-3.3694,-3.4658,-3.5334,-3.5537,-3.5622,-3.5622,-2.0959,-2.0959,0.0,0.0,0.0,0.0,0.0,0.0,0.0,0.0,0.0,0.0,0.0,0.0,0.0,0.0,0.0,-2.1628,-2.1582,0.0,-2.1007,0.0,0.0,-2.0959,0.0,0.0,0.0,0.0,0.0,0.0,0.0,0.0,0.0,0.0,0.0,-2.0722,-2.0827,-2.2099,-2.2694,-2.2727,-2.3325,-2.2832,-2.1665,0.0,-2.1102,-2.1695,-2.168,0.0,0.0,-2.3565,-2.358,0.0,0.0,0.0,0.0,0.0,0.0,0.0,0.0,0.0,0.0,-2.5464,0.0,0.0,0.0,0.0,-2.4002,0.0,0.0,0.0,0.0,0.0,0.0,0.0,0.0,0.0,0.0,0.0,0.0,0.0,0.0,0.0,0.0,0.0,0.0,-2.4742,-2.5263,-2.588,-2.6657,-2.6691,-2.6691,-2.6691,-2.6691,-2.6691,-2.6691,-2.7418,-2.7755,-2.7755,-2.8552,-2.8924,-2.8941,-2.9011,-2.9621,-3.0664,-3.0699,-3.1132,-3.1789,-3.1823,-3.1991,-3.2357,-3.3136,-3.3897,-3.4624,-3.5351,-3.5622,-3.5622,0.0,0.0,0.0,0.0,0.0,0.0,0.0,-2.2613,0.0,0.0,0.0,0.0,0.0,0.0,-2.2962,0.0,0.0,-2.2061,-2.2061,-2.1645,0.0,0.0,0.0,-2.0862,0.0,0.0,0.0,0.0,0.0,0.0,0.0,0.0,0.0,0.0,0.0,-2.1605,0.0,0.0,0.0,0.0,0.0,-2.3086,-2.2218,0.0,0.0,-2.1754,-2.2188,-2.2892,0.0,-2.3595,-2.3595,-2.3595,-2.3595,-2.3595,-2.352,-2.3101,-2.3131,0.0,0.0,0.0,-2.4265,-2.502,0.0,0.0,0.0,0.0,0.0,0.0,0.0,0.0,0.0,0.0,0.0,0.0,0.0,0.0,0.0,0.0,0.0,0.0,0.0,0.0,0.0,0.0,0.0,-2.3821,-2.4483,-2.5186,0.0,-2.6437,-2.6691,-2.6691,-2.6691,-2.6691,-2.6691,-2.6945,-2.7334,-2.7789,-2.8095,-2.8755,-2.9736,-2.9736,-3.0336,-3.1426,-3.1426,-3.176,-3.2264,-3.2264,-3.2161,-3.2101,-3.335,-3.3833,-3.3931,-3.5165,-3.5622,-3.5622,-2.1853,0.0,0.0,0.0,0.0,0.0,0.0,0.0,0.0,0.0,-2.4594,0.0,-2.4881,0.0,-2.368,0.0,-2.297,-2.2581,-2.2327,-2.2032,0.0,-2.1477,-2.1291,0.0,0.0,0.0,0.0,0.0,0.0,-2.0258,0.0,0.0,0.0,0.0,0.0,0.0,0.0,0.0,-2.3595,0.0,0.0,-2.3288,0.0,0.0,-2.2087,-2.2373,0.0,-2.3483,-2.4158,-2.4158,-2.4032,-2.3879,-2.3879,-2.3879,-2.3761,-2.32,-2.3561,-2.4133,-2.4045,-2.4484,0.0,-2.5386,-2.5495,0.0,-2.497,0.0,0.0,0.0,0.0,0.0,0.0,0.0,0.0,0.0,0.0,0.0,0.0,-2.231,0.0,0.0,0.0,0.0,0.0,0.0,-2.2615,-2.3342,-2.4069,-2.4814,0.0,0.0,-2.6691,-2.6691,-2.6691,-2.6691,-2.6691,-2.7368,-2.7981,-2.8442,-2.9128,-3.0006,-3.0952,-3.0952,-3.1463,-3.2298,-3.2298,-3.2466,-3.2745,-3.2745,-3.2626,-3.2581,-3.3873,-3.4224,-3.4209,-3.5209,-3.5622,-3.5622,0.0,0.0,0.0,0.0,-2.2361,0.0,0.0,0.0,-2.4746,0.0,-2.5642,-2.5659,-2.5659,-2.4983,-2.4255,-2.3562,-2.3477,0.0,-2.2412,-2.2333,0.0,0.0,-2.1857,-2.1873,-2.2304,0.0,0.0,0.0,0.0,0.0,0.0,0.0,0.0,0.0,-2.2009,0.0,-2.3413,-2.3549,-2.3638,-2.3621,-2.3492,-2.3468,-2.353,-2.4079,-2.3951,-2.3546,-2.3507,-2.4225,-2.5221,-2.5221,-2.4871,-2.443,-2.443,-2.443,-2.4348,-2.3837,-2.4389,-2.5221,-2.5221,-2.5577,-2.6068,-2.6556,0.0,0.0,0.0,0.0,-2.6285,0.0,0.0,0.0,0.0,0.0,0.0,0.0,0.0,0.0,0.0,0.0,0.0,0.0,0.0,0.0,0.0,-2.231,-2.2598,-2.3291,-2.4052,0.0,0.0,0.0,-2.6691,-2.6691,-2.6691,-2.6725,-2.6725,-2.8593,-2.9588,-2.964,-3.1524,-3.2449,-3.2484,-3.2484,-3.2745,-3.3214,-3.3214,-3.3214,-3.3243,-3.3243,-3.3432,-3.3807,-3.457,-3.5058,-3.5411,-3.5598,-3.5667,-3.5667,-2.3004,-2.3562,-2.3934,0.0,-2.3038,-2.2564,0.0,0.0,0.0,0.0,-2.6082,-2.642,-2.642,-2.5761,-2.5236,-2.505,-2.4526,0.0,0.0,0.0,0.0,-2.1811,-2.2184,-2.2465,-2.2573,-2.2556,0.0,-2.2403,0.0,0.0,-2.1827,0.0,0.0,0.0,0.0,0.0,-2.3413,-2.3989,-2.4184,-2.4168,-2.4163,-2.4366,0.0,0.0,-2.5099,-2.5301,-2.4872,-2.4946,-2.5221,-2.5221,-2.5105,-2.4973,-2.4973,-2.4973,-2.4989,-2.4831,-2.4973,-2.5221,-2.5221,-2.5297,-2.5524,-2.6033,-2.6191,-2.6212,0.0,0.0,0.0,0.0,0.0,0.0,0.0,0.0,0.0,0.0,0.0,0.0,0.0,0.0,0.0,0.0,0.0,0.0,-2.2412,-2.231,-2.2395,-2.2581,-2.3765,0.0,0.0,0.0,0.0,-2.6691,-2.6691,-2.6841,-2.7147,-2.8224,-2.9196,-3.0061,-3.1158,-3.1983,-3.2484,-3.2484,-3.2745,-3.3214,-3.3214,-3.3361,-3.3652,-3.3652,-3.3862,-3.4271,-3.5044,-3.5883,-3.6679,-3.6329,-3.6182,-3.6182,-2.3418,0.0,0.0,-2.4608,0.0,0.0,-2.478,0.0,0.0,-2.6437,-2.664,0.0,-2.6691,-2.6336,-2.5828,-2.5169,-2.4729,0.0,0.0,0.0,0.0,-2.2412,-2.2609,-2.2808,-2.2995,-2.2459,0.0,-2.2205,0.0,0.0,-2.1997,0.0,0.0,0.0,0.0,-2.4015,0.0,-2.4697,-2.4752,-2.4776,-2.5028,0.0,0.0,-2.5783,-2.6052,-2.6262,-2.598,-2.5855,-2.5855,-2.5855,-2.5709,-2.554,-2.554,-2.554,-2.5486,-2.5259,-2.5524,-2.5819,-2.5615,-2.5709,-2.5944,-2.621,-2.6297,-2.6367,-2.6657,-2.6691,-2.6691,0.0,0.0,0.0,0.0,0.0,0.0,0.0,0.0,0.0,0.0,0.0,0.0,0.0,-2.4506,0.0,-2.3585,-2.3068,-2.2919,-2.3241,0.0,0.0,0.0,0.0,0.0,-2.6971,-2.7279,-2.7661,-2.808,-2.9417,-3.0409,-3.1035,-3.1984,-3.2655,-3.3057,-3.3057,-3.3225,-3.3465,-3.3465,-3.3578,-3.3825,-3.4192,-3.4658,-3.5339,-3.6208,-3.7084,-3.7791,-3.7248,-3.6786,-3.6426,0.0,0.0,0.0,0.0,0.0,0.0,0.0,-2.637,0.0,-2.7485,0.0,-2.681,-2.6708,-2.6691,-2.6133,-2.4746,0.0,-2.4019,-2.2547,-2.3038,-2.3393,-2.3393,-2.3109,-2.3179,-2.368,-2.2244,0.0,0.0,0.0,0.0,0.0,0.0,0.0,0.0,0.0,0.0,0.0,-2.5411,-2.5259,0.0,-2.5815,-2.6049,-2.6156,-2.6539,-2.6691,-2.6691,-2.6691,-2.6691,-2.6691,-2.6691,-2.6436,-2.6085,-2.6085,-2.6085,-2.5997,-2.5524,-2.6016,-2.6624,-2.6191,-2.6401,-2.6691,-2.6691,-2.6691,-2.6725,-2.6826,-2.6843,-2.6843,-2.6843,-2.6843,-2.681,0.0,0.0,0.0,0.0,0.0,0.0,0.0,0.0,0.0,0.0,0.0,0.0,0.0,-2.4327,-2.3901,0.0,0.0,0.0,0.0,0.0,0.0,-2.7303,-2.8126,0.0,-2.9336,0.0,-3.2169,-3.2335,-3.3323,-3.3807,-3.3807,-3.3807,-3.3807,-3.3807,-3.3917,-3.3972,-3.4027,-3.4835,-3.5679,-3.6567,-3.7602,-3.83,-3.8627,-3.8183,-3.7433,-3.6708,0.0,0.0,0.0,0.0,0.0,-2.7841,-2.8484,-2.7926,-2.73,-2.6945,-2.7317,-2.7385,-2.6759,-2.6691,-2.6336,-2.549,-2.5423,0.0,0.0,0.0,0.0,-2.3393,-2.389,-2.4498,-2.5203,-2.4497,-2.41,0.0,0.0,0.0,0.0,0.0,0.0,0.0,0.0,0.0,-2.5961,-2.5411,0.0,-2.5888,-2.5961,-2.6227,-2.659,-2.6657,-2.6691,-2.6691,-2.6691,-2.6691,-2.6691,-2.6691,-2.6657,-2.659,-2.659,-2.659,-2.6556,-2.647,-2.6573,-2.6691,-2.659,-2.6624,-2.6691,-2.6691,-2.6691,-2.686,-2.7486,-2.7621,-2.7621,-2.7621,-2.7621,-2.7435,-2.681,0.0,0.0,0.0,0.0,0.0,0.0,0.0,0.0,0.0,0.0,0.0,0.0,0.0,0.0,0.0,0.0,0.0,0.0,0.0,0.0,0.0,-2.8386,0.0,0.0,0.0,-3.2555,-3.3506,-3.3688,-3.3807,-3.3807,-3.3807,-3.3807,-3.3844,-3.4504,-3.477,-3.4871,-3.5716,-3.6541,-3.7367,-3.8211,-3.8627,-3.8707,-3.8578,-3.815,-3.7667,0.0,0.0,0.0,0.0,0.0,0.0,0.0,-2.8738,0.0,-2.7435,-2.6928,-2.6539,-2.6167,-2.6471,-2.6251,-2.5118,-2.5033,-2.4391,-2.2936,-2.319,-2.3393,-2.3393,-2.4103,0.0,-2.5017,-2.476,-2.4592,-2.4506,0.0,0.0,0.0,0.0,0.0,0.0,0.0,-2.659,0.0,0.0,0.0,-2.6367,-2.6367,-2.6521,-2.6691,-2.6691,-2.6691,-2.6691,-2.6691,-2.6691,-2.6691,-2.6691,-2.6691,-2.6691,-2.6691,-2.6691,-2.6691,-2.6691,-2.6691,-2.6691,-2.6691,-2.6691,-2.6793,-2.7182,-2.7283,-2.7486,-2.8247,-2.8416,-2.8416,-2.8416,-2.8416,-2.8315,-2.7943,-2.7875,0.0,0.0,0.0,0.0,0.0,0.0,0.0,0.0,0.0,0.0,0.0,0.0,0.0,0.0,0.0,0.0,0.0,0.0,0.0,0.0,0.0,0.0,0.0,0.0,0.0,-3.3807,-3.3807,-3.3807,-3.3807,-3.3807,-3.3807,-3.3825,-3.4211,-3.4605,-3.5082,-3.6395,-3.7386,-3.8157,-3.856,-3.8707,-3.8762,-3.9166,-3.915,-3.8973,0.0,-2.9768,0.0,0.0,-2.96,0.0,-2.8448,-2.933,-2.9499,-2.7807,-2.6708,-2.5964,-2.5642,-2.625,-2.6063,-2.4421,-2.432,-2.3778,-2.2395,-2.2852,-2.3241,-2.3393,-2.3951,-2.4391,-2.4743,-2.4591,-2.4591,0.0,0.0,0.0,0.0,0.0,0.0,0.0,0.0,0.0,0.0,0.0,-2.6691,-2.6691,-2.6691,-2.6691,-2.6691,-2.6691,-2.6691,-2.6691,-2.6691,-2.6691,-2.6691,-2.6691,-2.6691,-2.6691,-2.6691,-2.6691,-2.6691,-2.6691,-2.6691,-2.6691,-2.6691,-2.6691,-2.6843,-2.7435,-2.7671,-2.8027,-2.8805,-2.911,-2.9211,-2.9211,-2.9093,-2.9025,-2.9194,-2.9093,0.0,0.0,0.0,0.0,0.0,0.0,0.0,0.0,0.0,0.0,0.0,0.0,0.0,0.0,0.0,0.0,0.0,0.0,0.0,0.0,0.0,-3.1601,-3.2852,0.0,-3.3899,-3.4064,-3.388,-3.3807,-3.3807,-3.3807,-3.3899,-3.4082,-3.4247,-3.489,-3.5871,-3.7202,-3.823,-3.8964,-3.8964,-3.9056,-3.9294,-3.9918,-4.0047,-3.996,0.0,0.0,0.0,0.0,0.0,0.0,0.0,-3.0023,-2.9313,-2.7097,-2.7266,-2.7063,-2.5761,-2.6247,-2.5819,-2.3693,-2.3723,-2.3418,-2.2378,-2.2378,-2.2699,-2.3359,-2.346,-2.4137,-2.5473,-2.4831,-2.4814,0.0,0.0,0.0,0.0,0.0,0.0,0.0,0.0,0.0,0.0,-2.6691,-2.6691,-2.6691,-2.6691,-2.6691,-2.6691,-2.6691,-2.6691,-2.6691,-2.6691,-2.6691,-2.6691,-2.6691,-2.6691,-2.6691,-2.6691,-2.6691,-2.6691,-2.6691,-2.6691,-2.6691,-2.6691,-2.6691,-2.6708,-2.6776,-2.7317,-2.8027,-2.8805,-2.9516,-3.0006,-3.0006,-2.9465,-2.9194,-2.9871,-2.9448,-2.9211,0.0,0.0,0.0,0.0,0.0,0.0,0.0,0.0,0.0,0.0,0.0,0.0,0.0,0.0,0.0,0.0,0.0,0.0,-2.9583,0.0,-3.2093,-3.3678,-3.3752,-3.4174,-3.4862,-3.4156,-3.3807,-3.3807,-3.3807,-3.4211,-3.4917,-3.5716,-3.6945,-3.8377,-3.8524,-3.9056,-3.979,-3.979,-4.023,-4.0891,-4.0965,-4.0524,-4.001,0.0,0.0,0.0,0.0,0.0,0.0,0.0,-3.0404,-2.9448,-2.7604,-2.7638,-2.7418,-2.637,-2.6131,-2.537,-2.3776,-2.3596,-2.3388,-2.2987,-2.297,-2.3291,-2.4019,-2.4475,-2.5,-2.5592,-2.5727,-2.5947,0.0,0.0,0.0,0.0,0.0,0.0,0.0,0.0,-2.6691,-2.6691,-2.6691,-2.6691,-2.6691,-2.6691,-2.6691,-2.6691,-2.6691,-2.6691,-2.6691,-2.6691,-2.6691,-2.6691,-2.6691,-2.6691,-2.6691,-2.6691,-2.6691,-2.6691,-2.6691,-2.6691,-2.6793,-2.7249,-2.7368,-2.7588,-2.8518,-2.8975,-2.9397,-3.0142,-3.0548,-3.0768,-3.0768,-3.0531,-3.0395,-3.0717,-3.0514,-3.0412,0.0,0.0,0.0,0.0,0.0,0.0,0.0,0.0,0.0,0.0,0.0,0.0,0.0,0.0,0.0,0.0,0.0,0.0,-3.0659,0.0,-3.2669,-3.3788,-3.3807,-3.3972,-3.4284,-3.3954,-3.4064,-3.4523,-3.4523,-3.4981,-3.5844,-3.6652,-3.7661,-3.8744,-3.9221,-3.9882,-4.0616,-4.0616,-4.0836,-4.1167,-4.1644,-4.1625,-4.1387,-3.1326,0.0,-3.0598,0.0,-3.0768,-3.0535,-3.0819,-3.0624,-2.9803,-2.8009,-2.8112,-2.7825,-2.6404,-2.6064,-2.5338,-2.3916,-2.387,-2.3863,-2.3714,-2.3714,-2.3951,-2.4489,-2.5,0.0,-2.5609,-2.6116,-2.6471,-2.6691,-2.6184,0.0,0.0,0.0,0.0,0.0,-2.6691,-2.6691,-2.6691,-2.6691,-2.6691,-2.6691,-2.6691,-2.6691,-2.6691,-2.6691,-2.6691,-2.6691,-2.6691,-2.6691,-2.6691,-2.6691,-2.6691,-2.6691,-2.6691,-2.6691,-2.6691,-2.6691,-2.6691,-2.681,-2.7351,-2.7638,-2.8043,-2.9161,-2.977,-3.0243,-3.0768,-3.1038,-3.119,-3.119,-3.119,-3.119,-3.119,-3.119,-3.119,-3.119,0.0,0.0,0.0,0.0,0.0,0.0,-2.9929,-2.9479,-2.9945,0.0,0.0,0.0,0.0,0.0,0.0,0.0,0.0,0.0,0.0,0.0,0.0,-3.3807,-3.3917,-3.4156,-3.4244,-3.4703,-3.5514,-3.5754,-3.6196,-3.6805,-3.7537,-3.8303,-3.9093,-3.9662,-4.0506,-4.146,-4.146,-4.1607,-4.1882,-4.2433,-4.2506,-4.2304,-3.119,-3.119,-3.119,-3.119,-3.119,-3.0937,-3.0226,-3.0717,-3.0378,-2.8076,-2.8914,-2.8523,-2.5528,-2.6111,-2.5922,-2.3981,-2.4655,-2.4985,-2.4523,-2.4506,-2.4506,0.0,0.0,-2.4847,-2.5592,-2.5609,-2.5981,-2.6691,0.0,0.0,-2.6691,0.0,-2.6691,-2.6691,-2.6691,-2.6691,-2.6691,-2.6691,-2.6691,-2.6691,-2.6691,-2.6691,-2.6691,-2.6691,-2.6691,-2.6691,-2.6691,-2.6691,-2.6691,-2.6691,-2.6691,-2.6691,-2.6691,-2.6691,-2.6691,-2.6691,-2.6691,-2.6691,-2.6708,-2.7249,-2.7789,-2.7806,-2.8991,-3.0108,-3.0125,-3.0683,-3.119,-3.119,-3.119,-3.119,-3.119,-3.119,-3.119,-3.119,0.0,0.0,0.0,0.0,0.0,0.0,-3.1363,-3.1248,-3.0928,0.0,0.0,0.0,0.0,0.0,0.0,0.0,0.0,-3.254,-3.2596,0.0,-3.3788,-3.3807,-3.4211,-3.4972,-3.5324,-3.5906,-3.6721,-3.7497,-3.7869,-3.7899,-3.8464,-3.9148,-3.9882,-3.99,-4.0836,-4.2286,-4.2286,-4.2763,-4.3461,-4.3461,-4.2983,-4.2304,-3.1292,-3.119,-3.119,-3.119,-3.119,-3.1123,-3.0886,-3.1055,-3.07,-2.9289,-2.9161,-2.8467,-2.6454,-2.6521,-2.6177,0.0,-2.4746,-2.4876,0.0,-2.5253,-2.5473,-2.5964,-2.5998,-2.6099,-2.6336,-2.6353,-2.6454,-2.6691,0.0,0.0,0.0,-2.6691,-2.6691,-2.6691,-2.6691,-2.6691,-2.6691,-2.6691,-2.6691,-2.6691,-2.6691,-2.6691,-2.6691,-2.6691,-2.6691,-2.6691,-2.6691,-2.6691,-2.6758,-2.7036,-2.7115,-2.7147,-2.7409,-2.7147,-2.6691,-2.6691,-2.6691,-2.681,-2.7317,-2.7603,-2.8026,-2.9127,-2.9753,-3.0243,-3.0734,-3.1021,-3.119,-3.119,-3.119,-3.119,-3.119,-3.119,-3.119,-3.119,-3.1545,0.0,0.0,0.0,0.0,0.0,-3.214,-3.1874,0.0,-3.1561,0.0,0.0,0.0,0.0,0.0,0.0,0.0,0.0,-3.3321,0.0,-3.4614,-3.5032,-3.5544,-3.617,-3.7108,-3.8248,-3.9566,-3.9844,-4.0233,-4.076,-4.071,-4.1134,-4.1865,-4.1627,-4.2158,-4.3112,-4.3112,-4.3259,-4.3497,-4.3497,-4.3332,-4.3039,-3.1275,-3.119,-3.119,-3.119,-3.119,-3.1106,-3.0835,-3.0678,-3.0256,-2.9138,-2.9149,-2.8625,-2.6874,-2.6708,0.0,-2.5814,-2.5492,-2.5507,-2.5981,-2.6015,-2.6218,-2.6674,-2.6691,-2.6691,-2.6691,0.0,0.0,-2.6691,-2.6691,-2.6691,-2.6691,-2.6691,-2.6691,-2.6691,-2.6691,-2.6691,-2.6691,-2.6691,-2.6691,-2.6725,-2.6873,-2.6841,-2.6725,-2.7036,-2.7051,-2.6939,-2.7083,-2.7147,-2.7178,-2.7439,-2.7547,-2.756,-2.7811,-2.7577,-2.7147,-2.7147,-2.7147,-2.7287,-2.7861,-2.8237,-2.8696,-2.9824,-3.0311,-3.0632,-3.1089,-3.119,-3.119,-3.119,-3.119,-3.119,-3.119,-3.119,-3.119,-3.119,-3.1677,-3.2057,-3.2057,0.0,0.0,0.0,0.0,0.0,0.0,-3.2596,-3.2504,0.0,0.0,0.0,0.0,0.0,0.0,-3.3179,-3.416,0.0,-3.5324,-3.6032,-3.6877,-3.7834,-3.9331,-4.0625,-4.1717,-4.1611,-4.181,-4.2284,-4.1926,-4.2174,-4.2768,-4.2551,-4.2973,-4.3679,-4.3548,-4.3563,-4.366,-4.3548,-4.3497,-4.3424,-3.119,-3.119,0.0,0.0,-3.119,0.0,-3.0294,-2.988,-2.9201,-2.7973,-2.8799,-2.8767,-2.6894,-2.6708,-2.6691,-2.6691,0.0,0.0,0.0,-2.6691,-2.6691,-2.6691,-2.6691,-2.6691,-2.6691,-2.6691,-2.6691,-2.6691,-2.6691,-2.6691,-2.6691,-2.6691,-2.6691,-2.6691,-2.6691,-2.6691,-2.6691,-2.6725,-2.6758,-2.6791,-2.7178,-2.7115,-2.6873,-2.7619,-2.7648,-2.7378,-2.7783,-2.7897,-2.7897,-2.7926,-2.7926,-2.7954,-2.7982,-2.7982,-2.7954,-2.7926,-2.7897,-2.797,-2.8265,-2.8882,-2.9524,-2.9952,-3.0615,-3.119,-3.119,-3.123,-3.123,-3.119,-3.123,-3.123,-3.119,-3.123,-3.1252,-3.1252,-3.1986,-3.255,-3.255,0.0,0.0,0.0,0.0,0.0,0.0,-3.3815,-3.3834,0.0,0.0,0.0,0.0,0.0,-3.3389,-3.4274,-3.5142,-3.5791,-3.6149,-3.7005,-3.8315,-4.0056,-4.1793,-4.2871,-4.3258,-4.2891,-4.2755,-4.2792,-4.2454,-4.2573,-4.2978,-4.293,-4.3368,-4.4016,-4.3679,-4.3726,-4.3955,-4.3612,-4.3497,-4.3497,0.0,0.0,-3.119,-3.119,-3.119,-3.114,-3.097,-2.9921,-2.8896,-2.8202,-2.7712,-2.7246,-2.6772,-2.6725,-2.6691,-2.6691,-2.6691,-2.6691,-2.6691,-2.6691,-2.6691,-2.6691,-2.6691,-2.6691,-2.6691,-2.6691,-2.6691,-2.6691,-2.6691,-2.6691,-2.6691,-2.6691,-2.6691,-2.6691,-2.6691,-2.6691,-2.6725,-2.7019,-2.7147,-2.721,-2.7607,-2.7678,-2.7636,-2.784,-2.784,-2.7783,-2.7869,-2.7897,-2.7954,-2.821,-2.829,-2.8342,-2.8651,-2.8743,-2.8626,-2.8065,-2.7897,-2.7904,-2.8012,-2.8338,-2.8831,-2.9455,-3.0438,-3.119,-3.119,-3.1449,-3.1565,-3.1252,-3.1449,-3.1565,-3.1269,-3.1449,-3.166,-3.166,-3.2433,-3.3045,-3.3045,-3.3494,0.0,0.0,-3.3807,-3.3807,-3.3807,-3.3986,-3.4383,0.0,0.0,0.0,0.0,-3.6844,-3.6531,-3.5235,-3.6175,-3.7385,-3.8776,-3.9414,-4.0895,-4.3215,-4.3059,-4.3688,-4.497,-4.4245,-4.4266,-4.4862,-4.4548,-4.4448,-4.4526,-4.4278,-4.4285,-4.4419,-4.4016,-4.3924,-4.3955,-4.3612,-4.3497,-4.3497,-3.119,-3.119,-3.119,-3.119,-3.119,-3.1213,-3.1206,-3.0527,-2.9671,-2.8703,-2.7461,-2.6689,-2.6719,-2.6708,-2.6691,-2.6691,-2.6691,-2.6691,-2.6691,-2.6691,-2.6691,-2.6691,-2.6691,-2.6691,-2.6691,-2.6691,-2.6691,-2.6691,-2.6691,-2.6691,-2.6691,-2.6691,-2.6691,-2.6691,-2.6691,-2.6691,-2.6725,-2.7115,-2.7303,-2.7348,-2.789,-2.802,-2.7926,-2.8281,-2.8281,-2.8156,-2.8334,-2.8404,-2.843,-2.8608,-2.8682,-2.8707,-2.8929,-2.9255,-2.9478,-2.9075,-2.8675,-2.845,-2.8621,-2.9083,-2.9739,-3.0655,-3.1165,-3.1545,-3.1768,-3.1806,-3.1789,-3.1787,-3.1986,-3.2039,-3.1823,-3.1968,-3.2127,-3.2127,-3.2745,-3.3214,-3.3214,-3.355,0.0,-3.3807,-3.426,-3.4567,-3.4567,-3.5184,-3.5762,-3.6235,-3.6406,0.0,-3.774,-3.859,-3.8458,-3.7093,-3.8357,-3.9581,-4.0653,-4.1716,-4.2931,-4.4297,-4.4259,-4.472,-4.5566,-4.5105,-4.5143,-4.5586,-4.5419,-4.5243,-4.5074,-4.4896,-4.4825,-4.4757,-4.4233,-4.4117,-4.4204,-4.3679,-4.3497,-4.3497,-3.119,-3.119,-3.119,-3.119,-3.119,-3.1218,-3.1202,-3.082,-3.015,-2.9113,-2.7859,-2.6962,-2.6736,-2.6707,-2.6691,-2.6691,-2.6691,-2.6691,-2.6691,-2.6691,-2.6691,-2.6691,-2.6691,-2.6691,-2.6691,-2.6691,-2.6691,-2.6691,-2.6691,-2.6691,-2.6691,-2.6691,-2.6691,-2.6691,-2.6691,-2.6725,-2.6825,-2.721,-2.7409,-2.753,-2.8219,-2.8316,-2.812,-2.8767,-2.8773,-2.854,-2.8881,-2.8994,-2.8994,-2.8994,-2.8994,-2.8994,-2.8994,-2.9475,-3.0026,-3.0026,-2.9622,-2.9276,-2.9761,-3.0405,-3.1218,-3.2261,-3.2196,-3.1986,-3.2417,-3.223,-3.2092,-3.2451,-3.255,-3.2583,-3.2517,-3.255,-3.2616,-3.2616,-3.2983,-3.3302,-3.3302,0.0,-3.3844,-3.3972,-3.4865,-3.5552,-3.5664,-3.6647,-3.7368,-3.7614,-3.7675,-3.8131,-3.9136,-3.9951,-4.019,-3.9736,-4.0941,-4.1762,-4.2181,-4.372,-4.4489,-4.4509,-4.524,-4.5586,-4.5586,-4.5586,-4.5586,-4.5586,-4.5586,-4.5438,-4.518,-4.518,-4.518,-4.5118,-4.4436,-4.4346,-4.4501,-4.3823,-4.3548,-4.3497,-3.119,-3.119,-3.119,-3.119,-3.119,-3.1218,-3.1202,-2.9033,-2.7791,-2.8873,-2.8796,-2.815,-2.682,-2.6686,-2.6706,-2.6708,-2.6691,-2.6691,-2.6691,-2.6691,-2.6691,-2.6691,-2.6691,-2.6691,-2.6691,-2.6691,-2.6691,-2.6691,-2.6691,-2.6691,-2.6691,-2.6691,-2.6691,-2.6691,-2.6691,-2.6906,-2.7224,-2.7636,-2.7964,-2.8272,-2.8725,-2.8881,-2.8839,-2.897,-2.8952,-2.8929,-2.8994,-2.8994,-2.8994,-2.8994,-2.8994,-2.8994,-2.8994,-2.9085,-2.92,-2.92,-2.9586,-3.0167,-3.0931,-3.1456,-3.1912,-3.2403,-3.2451,-3.2417,-3.2484,-3.2745,-3.2872,-3.2583,-3.2809,-3.2983,-3.2583,-3.2809,-3.3075,-3.3075,-3.3437,-3.3707,-3.3707,0.0,-3.4064,-3.4715,-3.5217,-3.5776,-3.6441,-3.7137,-3.8137,-3.9528,-3.9865,-4.0696,-4.2309,-4.3153,-4.3555,-4.3475,-4.2776,-4.291,-4.3893,-4.4893,-4.5393,-4.5393,-4.5528,-4.5586,-4.5586,-4.5586,-4.5586,-4.5586,-4.5586,-4.5568,-4.5513,-4.5513,-4.5513,-4.5495,-4.5077,-4.4781,-4.4553,-4.4106,-4.3758,-4.3497,-3.119,-3.119,-3.119,-3.119,-3.119,-3.1218,-3.1202,-2.8645,-2.6958,-2.7688,-2.9191,-2.9919,-2.9195,-2.7656,-2.6691,-2.6708,-2.6691,-2.6691,-2.6691,-2.6691,-2.6691,-2.6691,-2.6691,-2.6691,-2.6691,-2.6691,-2.6691,-2.6691,-2.6691,-2.6691,-2.6691,-2.6691,-2.6691,-2.6691,-2.6691,-2.6808,-2.7036,-2.7636,-2.801,-2.8183,-2.8767,-2.8994,-2.8994,-2.8994,-2.8994,-2.8994,-2.8994,-2.8994,-2.8994,-2.8994,-2.8994,-2.8994,-2.8994,-2.931,-2.9659,-2.9659,-2.9916,-3.0467,-3.1715,-3.2172,-3.2465,-3.3056,-3.3045,-3.2934,-3.3148,-3.3196,-3.3214,-3.3196,-3.339,-3.3465,-3.3255,-3.339,-3.3522,-3.3522,-3.368,0.0,0.0,-3.4174,-3.4659,-3.5203,-3.6745,-3.7962,-3.8477,-3.9757,-4.0875,-4.1662,-4.1824,-4.2431,-4.3682,-4.4105,-4.4509,-4.4989,-4.4497,-4.4478,-4.4989,-4.5393,-4.5586,-4.5586,-4.5586,-4.5586,-4.5586,-4.5586,-4.5586,-4.5586,-4.5586,-4.5586,-4.5586,-4.5586,-4.5586,-4.5568,-4.5222,-4.5007,-4.4781,-4.4204,-4.3893,-4.374,-3.119,-3.119,-3.119,-3.119,-3.119,-3.1218,-3.1202,-2.924,-2.7748,-2.7748,-2.9151,-3.0158,-3.0158,-2.8099,-2.6708,-2.6691,-2.6691,-2.6691,-2.6691,-2.6691,-2.6691,-2.6691,-2.6691,-2.6691,-2.6691,-2.6691,-2.6691,-2.6691,-2.6691,-2.6691,-2.6691,-2.6791,-2.6791,-2.6691,-2.6808,-2.6906,-2.7019,-2.7619,-2.801,-2.8201,-2.8767,-2.8994,-2.8994,-2.8994,-2.8994,-2.8994,-2.8994,-2.8994,-2.8994,-2.8994,-2.8994,-2.8994,-2.8994,-2.9439,-2.9934,-2.9934,-3.0191,-3.0797,-3.221,-3.2742,-3.3036,-3.3642,-3.3578,-3.3437,-3.3734,-3.355,-3.3437,-3.3734,-3.3807,-3.3807,-3.3807,-3.3807,-3.3807,-3.3807,0.0,0.0,0.0,-3.4843,-3.565,-3.6273,-3.838,-4.0032,-4.0616,-4.2139,-4.3181,-4.3355,-4.3374,-4.3739,-4.4566,-4.4605,-4.4913,-4.5566,-4.5586,-4.5586,-4.5586,-4.5586,-4.5586,-4.5586,-4.5586,-4.5586,-4.5586,-4.5586,-4.5586,-4.5586,-4.5586,-4.5586,-4.5586,-4.5586,-4.5586,-4.5568,-4.5322,-4.518,-4.5011,-4.4373,-4.4087,-4.3955,-3.119,-3.119,-3.119,-3.119,-3.119,-3.1218,-3.1202,-3.1031,-3.0874,-3.0857,-2.8641,-2.7027,-2.7027,-2.6809,-2.6709,-2.6719,-2.6708,-2.6691,-2.6691,-2.6691,-2.6691,-2.6691,-2.6691,-2.6691,-2.6691,-2.6691,-2.6691,-2.6691,-2.6691,-2.6691,-2.6725,-2.7083,-2.7051,-2.6725,-2.7083,-2.747,-2.7811,-2.7869,-2.8281,-2.8929,-2.8994,-2.8994,-2.8994,-2.8994,-2.8994,-2.8994,-2.8994,-2.8994,-2.8994,-2.8994,-2.8994,-2.8994,-2.8994,-2.903,-2.9085,-2.9085,-3.0136,-3.1494,-3.2375,-3.3146,-3.3733,-3.3788,-3.378,-3.3762,-3.3788,-3.378,-3.3762,-3.3788,-3.3807,-3.3807,-3.3807,-3.3807,-3.3807,-3.3807,0.0,0.0,-3.4899,-3.5869,-3.7161,-3.8723,-3.9599,-4.0692,-4.2256,-4.283,-4.3412,-4.4162,-4.4201,-4.4586,-4.5451,-4.549,-4.5528,-4.5586,-4.5586,-4.5586,-4.5586,-4.5586,-4.5586,-4.5586,-4.5586,-4.5586,-4.5586,-4.5586,-4.5586,-4.5586,-4.5586,-4.5586,-4.5586,-4.5586,-4.5586,-4.5586,-4.5568,-4.5362,-4.5052,-4.4682,-4.4318,-4.3955,-3.119,-3.119,-3.119,-3.119,-3.119,-3.1213,-3.1184,-3.1206,-3.1215,-3.1202,-3.0183,-2.9479,-2.9486,-2.9486,-2.873,-2.6877,-2.6708,-2.6691,-2.6691,-2.6691,-2.6691,-2.6691,-2.6691,-2.6691,-2.6691,-2.6691,-2.6691,-2.6691,-2.6691,-2.6691,-2.6691,-2.6841,-2.7004,-2.7083,-2.7241,-2.753,-2.7926,-2.8129,-2.8368,-2.8658,-2.8905,-2.8994,-2.8994,-2.8994,-2.8994,-2.8994,-2.8994,-2.8994,-2.8994,-2.8994,-2.8994,-2.8994,-2.8994,-2.8994,-2.9195,-3.021,-3.1274,-3.232,-3.3128,-3.3568,-3.3807,-3.3807,-3.3807,-3.3807,-3.3807,-3.3807,-3.3807,-3.3807,-3.4211,-3.4559,-3.4559,-3.5,-3.5349,-3.5349,0.0,-3.6541,-3.6541,-3.7979,-3.9324,-4.0152,-4.1551,-4.2775,-4.3579,-4.4263,-4.4778,-4.5066,-4.5105,-4.524,-4.5566,-4.5586,-4.5586,-4.5586,-4.5586,-4.5586,-4.5586,-4.5586,-4.5586,-4.5586,-4.5586,-4.5586,-4.5586,-4.5586,-4.5586,-4.5586,-4.5586,-4.5586,-4.5586,-4.5586,-4.5586,-4.5586,-4.5586,-4.54,-4.5052,-4.4707,-4.4364,-4.3955,-3.119,-3.119,-3.119,-3.119,-3.119,-3.119,-3.119,-3.1179,-3.1215,-3.1185,-3.0364,-3.0165,-3.1098,-3.0352,-2.8955,-2.6877,-2.6691,-2.6691,-2.6691,-2.6691,-2.6691,-2.6691,-2.6691,-2.6691,-2.6691,-2.6691,-2.6691,-2.6691,-2.6691,-2.6691,-2.6691,-2.6841,-2.6971,-2.7115,-2.7396,-2.7619,-2.7926,-2.8264,-2.8471,-2.8615,-2.8905,-2.8994,-2.8994,-2.8994,-2.8994,-2.8994,-2.8994,-2.8994,-2.8994,-2.8994,-2.8994,-2.8994,-2.8994,-2.9159,-2.9696,-3.1292,-3.2173,-3.2797,-3.3587,-3.3807,-3.3807,-3.3807,-3.3807,-3.3807,-3.3807,-3.4009,-3.4192,-3.4192,-3.4835,-3.5422,-3.5422,-3.5899,-3.6376,-3.6633,-3.7458,-3.8135,-3.8364,-3.9962,-4.1286,-4.1783,-4.3132,-4.4212,-4.4645,-4.524,-4.5586,-4.5586,-4.5586,-4.5586,-4.5586,-4.5586,-4.5586,-4.5586,-4.5586,-4.5586,-4.5586,-4.5586,-4.5586,-4.5586,-4.5586,-4.5586,-4.5586,-4.5586,-4.5586,-4.5586,-4.5586,-4.5586,-4.5586,-4.5586,-4.5586,-4.5586,-4.5586,-4.54,-4.5052,-4.4707,-4.4364,-4.3955,-3.119,-3.119,-3.119,-3.119,-3.119,-3.119,-3.119,-3.121,-3.1206,-3.1189,-2.8568,-2.7824,-3.0864,-2.8486,-2.6684,-2.6684,-2.6708,-2.6708,-2.6708,-2.6725,-2.6725,-2.6708,-2.6708,-2.6691,-2.6691,-2.6691,-2.6691,-2.6691,-2.6691,-2.6691,-2.6725,-2.7115,-2.7083,-2.6758,-2.7547,-2.7897,-2.7943,-2.8281,-2.8633,-2.8994,-2.8994,-2.8994,-2.8994,-2.8994,-2.8994,-2.8994,-2.8994,-2.8994,-2.8994,-2.8994,-2.8994,-2.8994,-2.8994,-2.9567,-3.0522,-3.2137,-3.2614,-3.2797,-3.3587,-3.3807,-3.3807,-3.3807,-3.3807,-3.3807,-3.3807,-3.4431,-3.499,-3.5009,-3.5716,-3.6303,-3.6303,-3.6321,-3.6578,-3.7397,-3.8479,-3.9506,-4.0327,-4.1699,-4.2945,-4.3804,-4.4153,-4.4643,-4.5509,-4.5586,-4.5586,-4.5586,-4.5586,-4.5586,-4.5586,-4.5586,-4.5586,-4.5586,-4.5586,-4.5586,-4.5586,-4.5586,-4.5586,-4.5586,-4.5586,-4.5586,-4.5586,-4.5586,-4.5586,-4.5586,-4.5586,-4.5586,-4.5586,-4.5586,-4.5586,-4.5586,-4.5586,-4.5381,-4.5052,-4.4707,-4.4346,-4.3955,-3.119,-3.119,-3.119,-3.119,-3.119,-3.119,-3.119,-3.1196,-3.042,-2.8322,-2.7252,-2.7027,-2.7938,-2.7219,-2.6697,-2.6708,-2.6691,-2.7165,-2.8236,-2.9282,-2.9385,-2.8367,-2.7266,-2.6691,-2.6691,-2.6691,-2.6691,-2.6691,-2.6691,-2.6691,-2.6691,-2.6808,-2.6971,-2.7164,-2.827,-2.8849,-2.9161,-3.0101,-3.0265,-2.9843,-2.9843,-2.9512,-2.8994,-2.8994,-2.8994,-2.8994,-2.8994,-2.8994,-2.8994,-2.8994,-2.8994,-2.9085,-2.9659,-3.0393,-3.1237,-3.2302,-3.2999,-3.3495,-3.3733,-3.3807,-3.3807,-3.3807,-3.3807,-3.3954,-3.4523,-3.4825,-3.5155,-3.5789,-3.656,-3.7129,-3.7129,-3.8046,-3.8891,-3.9148,-4.06,-4.181,-4.2052,-4.3396,-4.4448,-4.4717,-4.5017,-4.5297,-4.5566,-4.5586,-4.5586,-4.5586,-4.5586,-4.5586,-4.5586,-4.5586,-4.5586,-4.5586,-4.5586,-4.5586,-4.5586,-4.5586,-4.5586,-4.5586,-4.5586,-4.5586,-4.5586,-4.5586,-4.5586,-4.5586,-4.5586,-4.5586,-4.5586,-4.5586,-4.5586,-4.5586,-4.5586,-4.5243,-4.4751,-4.465,-4.4194,-4.3612,-3.1185,-3.119,-3.119,-3.119,-3.119,-3.119,-3.119,-3.1218,-3.0531,-2.8716,-2.8473,-2.8488,-2.8475,-2.7398,-2.6704,-2.6708,-2.6691,-2.7114,-2.8043,-2.9315,-2.9709,-2.9028,-2.8095,-2.7604,-2.7604,-2.73,-2.7148,-2.7148,-2.6843,-2.6691,-2.6691,-2.6691,-2.6841,-2.7117,-2.8303,-2.906,-2.9466,-3.0666,-3.0801,-3.021,-3.021,-2.9732,-2.8994,-2.8994,-2.8994,-2.8994,-2.8994,-2.8994,-2.8994,-2.8994,-2.8994,-2.9195,-3.032,-3.0999,-3.1623,-3.2761,-3.3421,-3.3807,-3.3807,-3.4027,-3.4284,-3.4284,-3.4284,-3.4504,-3.533,-3.5771,-3.6138,-3.667,-3.7661,-3.8432,-3.8432,-3.9496,-4.0487,-4.0799,-4.2066,-4.3118,-4.3474,-4.4554,-4.5302,-4.5302,-4.5476,-4.5586,-4.5586,-4.5586,-4.5586,-4.5586,-4.5586,-4.5586,-4.5586,-4.5586,-4.5586,-4.5586,-4.5586,-4.5586,-4.5586,-4.5586,-4.5586,-4.5586,-4.5586,-4.5586,-4.5586,-4.5586,-4.5586,-4.5586,-4.5586,-4.5586,-4.5586,-4.5586,-4.5586,-4.5586,-4.5586,-4.5182,-4.458,-4.458,-4.4125,-4.3497,-3.1196,-3.119,-3.119,-3.119,-3.119,-3.119,-3.119,-3.121,-3.121,-3.1207,-3.0972,-3.0803,-3.0802,-2.8339,-2.6708,-2.6708,-2.6962,-2.7061,-2.6902,-2.7885,-2.8657,-2.9059,-2.9076,-2.9096,-2.9011,-2.8213,-2.7789,-2.7789,-2.7063,-2.6691,-2.6691,-2.6691,-2.6691,-2.6759,-2.8025,-2.8819,-2.9296,-3.0535,-3.082,-3.0411,-3.0411,-2.9934,-2.9195,-2.9195,-2.9195,-2.9195,-2.9122,-2.9104,-2.9104,-2.9104,-2.9104,-2.9402,-3.0999,-3.1494,-3.1806,-3.3348,-3.3807,-3.3807,-3.3807,-3.4394,-3.5009,-3.5082,-3.5155,-3.5412,-3.6229,-3.6964,-3.7533,-3.7661,-3.8872,-3.9918,-3.9992,-4.0671,-4.146,-4.2176,-4.293,-4.37,-4.4485,-4.5182,-4.5586,-4.5586,-4.5586,-4.5586,-4.5586,-4.5586,-4.5586,-4.5586,-4.5586,-4.5586,-4.5586,-4.5586,-4.5586,-4.5586,-4.5586,-4.5586,-4.5586,-4.5586,-4.5586,-4.5586,-4.5586,-4.5586,-4.5586,-4.5586,-4.5586,-4.5586,-4.5586,-4.5586,-4.5586,-4.5586,-4.5586,-4.5586,-4.5586,-4.5182,-4.458,-4.458,-4.4125,-4.3497,-3.1196,-3.119,-3.119,-3.119,-3.119,-3.119,-3.119,-3.1196,-3.1201,-3.1189,-2.9156,-2.769,-2.7694,-2.7111,-2.6692,-2.6692,-2.8863,-2.9736,-2.8594,-2.977,-3.0343,-2.9871,-2.9871,-2.9583,-2.8991,-2.8213,-2.7789,-2.7789,-2.7063,-2.6691,-2.6691,-2.6691,-2.6691,-2.6775,-2.8931,-2.9951,-3.0178,-3.2264,-3.2737,-3.2082,-3.2082,-3.1604,-3.087,-3.087,-3.087,-3.0797,-3.0173,-2.9953,-2.9953,-2.9953,-2.9953,-3.0228,-3.1843,-3.2339,-3.254,-3.3513,-3.3807,-3.3807,-3.3807,-3.4394,-3.5155,-3.5862,-3.6486,-3.7,-3.7184,-3.7349,-3.7875,-3.9111,-3.9643,-4.0084,-4.0726,-4.1497,-4.2103,-4.2268,-4.3434,-4.4398,-4.4587,-4.5182,-4.5586,-4.5586,-4.5586,-4.5586,-4.5586,-4.5586,-4.5586,-4.5586,-4.5586,-4.5586,-4.5586,-4.5586,-4.5586,-4.5586,-4.5586,-4.5586,-4.5586,-4.5586,-4.5586,-4.5586,-4.5586,-4.5586,-4.5586,-4.5586,-4.5586,-4.5586,-4.5586,-4.5586,-4.5586,-4.5586,-4.5586,-4.5586,-4.5586,-4.5182,-4.458,-4.458,-4.4125,-4.3497,-3.1098,-3.1207,-3.119,-3.119,-3.119,-3.119,-3.119,-3.119,-3.1196,-3.1206,-2.9804,-2.8294,-2.685,-2.7992,-2.8834,-2.8861,-3.0304,-3.0857,-3.0091,-3.0438,-3.0489,-3.0125,-3.0446,-3.0446,-3.0057,-2.8941,-2.8197,-2.7789,-2.7063,-2.6691,-2.6691,-2.6691,-2.6894,-2.7317,-2.9151,-3.0286,-3.096,-3.2748,-3.315,-3.2614,-3.2614,-3.2118,-3.1384,-3.1384,-3.1384,-3.1329,-3.0907,-3.076,-3.076,-3.076,-3.076,-3.098,-3.221,-3.2614,-3.2761,-3.3568,-3.3807,-3.388,-3.4284,-3.4981,-3.5826,-3.6652,-3.7477,-3.8065,-3.8065,-3.8358,-3.8872,-3.9717,-4.0506,-4.1167,-4.1589,-4.2323,-4.2873,-4.2873,-4.3664,-4.4373,-4.458,-4.5033,-4.5419,-4.5586,-4.5586,-4.5586,-4.5586,-4.5586,-4.5586,-4.5586,-4.5586,-4.5586,-4.5586,-4.5586,-4.5586,-4.5586,-4.5586,-4.5586,-4.5586,-4.5586,-4.5586,-4.5586,-4.5586,-4.5586,-4.5586,-4.5586,-4.5586,-4.5586,-4.5586,-4.5586,-4.5586,-4.5586,-4.5586,-4.5586,-4.5586,-4.5182,-4.458,-4.458,-4.4125,-4.3497,-3.0938,-3.1189,-3.1196,-3.1207,-3.119,-3.119,-3.119,-3.119,-3.1179,-3.1198,-3.1185,-3.0251,-2.7727,-2.9712,-3.1182,-3.1202,-3.1216,-3.1182,-3.1202,-3.0506,-3.0108,-3.0108,-3.0565,-3.0751,-3.0615,-2.955,-2.867,-2.8027,-2.7131,-2.6759,-2.6894,-2.6894,-2.73,-2.8044,-2.935,-3.046,-3.1479,-3.2763,-3.3112,-3.2816,-3.2816,-3.2412,-3.1806,-3.1806,-3.1806,-3.1788,-3.1641,-3.1513,-3.1403,-3.1549,-3.1604,-3.1751,-3.2559,-3.2816,-3.2944,-3.3605,-3.3899,-3.4156,-3.4807,-3.5752,-3.6688,-3.7496,-3.8303,-3.8946,-3.9093,-3.9515,-3.9974,-4.0249,-4.1368,-4.2341,-4.2488,-4.3039,-4.3497,-4.3497,-4.3772,-4.4117,-4.4447,-4.4849,-4.5201,-4.5495,-4.5568,-4.5586,-4.5586,-4.5586,-4.5586,-4.5586,-4.5586,-4.5586,-4.5586,-4.5586,-4.5586,-4.5586,-4.5586,-4.5586,-4.5586,-4.5586,-4.5586,-4.5586,-4.5586,-4.5586,-4.5586,-4.5586,-4.5586,-4.5586,-4.5586,-4.5586,-4.5586,-4.5586,-4.5586,-4.5586,-4.555,-4.514,-4.458,-4.4447,-4.4023,-4.3497,-3.0836,-3.1199,-3.1174,-3.1219,-3.119,-3.119,-3.119,-3.119,-3.119,-3.1196,-3.1193,-3.1062,-3.0644,-3.0976,-3.1201,-3.1196,-3.1218,-3.1201,-3.1196,-3.0497,-3.0108,-3.0108,-2.9567,-2.8958,-2.8298,-2.8738,-2.896,-2.8822,-2.7385,-2.7029,-2.7637,-2.7637,-2.8078,-2.8929,-3.0466,-3.1243,-3.1497,-3.3073,-3.368,-3.3642,-3.3642,-3.3568,-3.3476,-3.3476,-3.3476,-3.3385,-3.2706,-3.199,-3.1494,-3.221,-3.2449,-3.2596,-3.3385,-3.3642,-3.366,-3.377,-3.4302,-3.4844,-3.4954,-3.6138,-3.7514,-3.834,-3.9129,-3.9918,-4.0634,-4.0322,-4.0286,-4.168,-4.2158,-4.2506,-4.3204,-4.3424,-4.3497,-4.3497,-4.3772,-4.4016,-4.4058,-4.4663,-4.5118,-4.5161,-4.5419,-4.5586,-4.5586,-4.5586,-4.5586,-4.5586,-4.5586,-4.5586,-4.5586,-4.5586,-4.5586,-4.5586,-4.5586,-4.5586,-4.5586,-4.5586,-4.5586,-4.5586,-4.5586,-4.5586,-4.5586,-4.5586,-4.5586,-4.5586,-4.5586,-4.5586,-4.5586,-4.5586,-4.5586,-4.5568,-4.5263,-4.4943,-4.4527,-4.3868,-4.3582,-4.3497,-2.9944,-3.0488,-3.0792,-3.1128,-3.119,-3.119,-3.119,-3.119,-3.119,-3.119,-3.1201,-3.1184,-3.119,-3.119,-3.119,-3.119,-3.119,-3.119,-3.119,-3.0903,-3.0717,-3.0717,-3.0395,-3.0057,-2.9719,-2.9651,-2.96,-2.96,-2.8078,-2.7723,-2.8467,-2.8027,-2.8467,-2.9655,-3.0578,-3.125,-3.1705,-3.2943,-3.3447,-3.3494,-3.3707,-3.3807,-3.3807,-3.3807,-3.3807,-3.3752,-3.3403,-3.3036,-3.2797,-3.3146,-3.3275,-3.333,-3.3697,-3.4119,-3.4486,-3.4486,-3.5073,-3.5826,-3.6266,-3.6927,-3.779,-3.9056,-3.9643,-4.023,-4.1479,-4.1497,-4.1442,-4.2158,-4.2653,-4.3075,-4.3424,-4.3497,-4.3497,-4.3497,-4.3772,-4.4058,-4.429,-4.4781,-4.518,-4.5342,-4.5513,-4.5586,-4.5586,-4.5586,-4.5586,-4.5586,-4.5586,-4.5586,-4.5586,-4.5586,-4.5586,-4.5586,-4.5586,-4.5586,-4.5586,-4.5586,-4.5586,-4.5586,-4.5586,-4.5586,-4.5586,-4.5586,-4.5586,-4.5586,-4.5586,-4.5586,-4.5586,-4.5586,-4.5586,-4.5568,-4.5222,-4.4757,-4.4204,-4.3679,-4.3497,-4.3497]}]]